     2              OBSERVATION DATA    GPS                 RINEX VERSION / TYPE
teqc 2000Feb29 Duncan Agnew 20000517 23:38:25UTC            PGM / RUN BY / DATE
                                                            COMMENT
L2: 1 -> 1; 5 -> 5; 60 -> 9                                 COMMENT
L2: 1 -> 1; 5 -> 5; 60 -> 9                                 COMMENT
L2: 1 -> 1; 5 -> 5; 60 -> 9                                 COMMENT
L2: 1 -> 1; 5 -> 5; 60 -> 9                                 COMMENT
L2: 1 -> 1; 5 -> 5; 60 -> 9                                 COMMENT
Original Marker Name: 0808                                  COMMENT
Campaign Name: Post Hector                                  COMMENT
4-Character Station Name: 0808                              COMMENT
6-Character Antenna Code: TRMCMP                            COMMENT
Vertical Measurement Point: BPA                             COMMENT
Vertical Offset to Rinex Ref. Point: 0.0000                 COMMENT
Radial Measurement Point: RRP                               COMMENT
Radial Offset to Rinex Ref. Point: 0.0000                   COMMENT
Antenna Height from Field Measurement: 1.8940 m             COMMENT
Additional Antenna Identification Info.:                    COMMENT
Model 22020.00+GP                                           COMMENT
Original XYZ: -2295195.5262 -4719818.0229 3613518.1402      COMMENT
New XYZ position is based on association with SCEC monument COMMENT
E1F2M2F5+0011. Position of that monument is believed to be  COMMENT
valid to within 1 m horizontally; vertical accuracy         COMMENT
should be no worse than 3-times this value.                 COMMENT
                                                            COMMENT
Revised Rinex header created by UCSD GPS archive for        COMMENT
GSAC on 16-Jun-2000 (2000:168) 22:01:55 GMT                 COMMENT
For assistance contact dagnew@ucsd.edu                      COMMENT
or anderson@python.ucsd.edu                                 COMMENT
                                                            COMMENT
HPGN STA 0808 1991                                          MARKER NAME
0808                                                        MARKER NUMBER
-Unknown- CALIF DEPT TRANSPORTATION                         OBSERVER / AGENCY
1534 TRIMBLE 4000 SSI NP 7.29; SP 3.07                      REC # / TYPE / VERS
79188 TR GEOD L1/L2 GP                                      ANT # / TYPE
 -2295192.9039 -4719809.8016  3613505.4768                  APPROX POSITION XYZ
        1.8940        0.0000        0.0000                  ANTENNA: DELTA H/E/N
     1     1     0                                          WAVELENGTH FACT L1/2
     7    C1    L1    L2    P1    P2    S1    S2            # / TYPES OF OBSERV
     0                                                      INTERVAL
  2000     5     1    18    31   30.000000                  TIME OF FIRST OBS
  2000     5     2     0    30   30.000000                  TIME OF LAST OBS
                                                            END OF HEADER
 00  5  1 18 31 30.0000000  0  6G 4G 5G 9G10G24G30
  22181533.7734      16625.78857
        22.2504
  20746680.4534     -10439.11757
        26.2504
  23298425.3594      16664.87556
        15.2504
  23138120.6484     -13131.80356
        13.7504
  20479530.9064       5635.44157
        27.2504
  22953837.0784     -27954.57756
        16.7504
 00  5  1 18 31 45.0000000  0  7G 4G 5G 6G 9G10G24G30
  22191045.9694      66611.17247
        22.2504
  20744722.3754     -20729.69847
        26.2504
  24837661.1644     -26242.73743
         6.0004
  23307958.4924      66759.37546
        16.2504
  23130637.6334     -52453.70046
        14.2504
  20482773.6724      22676.62647
        27.0004
  22946605.2974     -65958.64546
        17.0004
 00  5  1 18 32  0.0000000  0  7G 4G 5G 6G 9G10G24G30
  22200601.1484     116824.17147
        22.2504
  20742815.2274     -30749.82947     -5702.97157                  20742823.4574
        26.2504         27.5004
  24832340.2274     -54203.59645
         7.5004
  23317530.9694     117063.10146
        16.2504
  23123193.9924     -91571.14946
        13.5004
  20486069.0474      39993.88647
        27.2504
  22939412.9064    -103753.30546     -5873.07756                  22939423.1174
        16.2504         17.0004
 00  5  1 18 32 15.0000000  0  7G 4G 5G 6G 9G10G24G30
  22210207.3914     167305.91847     36717.42756                  22210215.9844
        22.2504         21.2504
  20740968.8444     -40453.74147    -13264.45947                  20740977.1564
        26.0004         27.2504
  24827058.4144     -81962.22845
         8.2504
  23327150.5234     167614.62546     26278.75656                  23327164.8714
        15.7504         16.5004
  23115797.4924    -130438.46846    -20166.98856                  23115811.7934
        14.2504         14.7504
  20489424.6564      57628.52347     11011.20657                  20489432.8984
        27.2504         26.5004
  22932269.5784    -141292.57546    -35124.40146                  22932280.3164
        17.0004         17.0004
 00  5  1 18 32 30.0000000  0  7G 4G 5G 6G 9G10G24G30
  22219865.8674     218059.83947     76265.90346                  22219874.4844
        22.0004         21.5004
  20739183.4064     -49836.49247    -20575.69447                  20739191.6024
        26.0004         27.2504
  24821814.5314    -109519.58045
         8.2504
  23336818.0084     218415.77246     65863.89746                  23336832.7074
        15.7504         17.2504
  23108449.5554    -169052.12846    -50255.42646                  23108463.8674
        14.0004         15.2504
  20492841.3364      75583.01847     25001.72347                  20492849.5314
        27.5004         26.5004
  22925174.9844    -178574.32846    -64175.07346                  22925185.2304
        17.0004         17.0004
 00  5  1 18 32 45.0000000  0  7G 4G 5G 6G 9G10G24G30
  22229573.9924     269077.05747    116019.56346                  22229582.7624
        22.2504         22.0004
  20737458.0004     -58903.71447    -27641.07047                  20737466.2664
        26.0004         27.2504
  24816606.0554    -136885.77444
         6.7504
  23346530.7114     269456.58546    105635.79646                  23346546.1954
        16.0004         17.5004
  23101148.5234    -207419.66546    -80152.08246                  23101162.9654
        14.2504         15.2504
  20496316.9304      93846.79447     39233.22247                  20496325.0314
        27.7504         26.5004
  22918127.2584    -215609.79046    -93033.83346                  22918137.6214
        16.7504         17.0004
 00  5  1 18 33  0.0000000  0  7G 4G 5G 6G 9G10G24G30
  22239328.4924     320338.13047    155963.25446                  22239336.9104
        22.2504         21.2504
  20735788.9454     -67674.59347    -34475.52447                  20735797.1764
        25.5004         26.7504
  24811431.3204    -164076.13543    -18353.52655                  24811446.6414
         6.0004          6.7504
  23356284.8524     320716.13346
        15.7504
  23093890.2344    -245560.60446   -109872.16946                  23093904.3714
        14.2504         15.0004
  20499846.7894     112396.76847     53687.74647                  20499854.9384
        27.5004         26.7504
  22911123.2664    -252416.62246   -121714.42046                  22911133.6764
        17.0004         17.0004
 00  5  1 18 33 15.0000000  0  7G 4G 5G 6G 9G10G24G30
  22249125.6414     371823.00047    196081.27346                  22249134.0354
        22.2504         21.0004
  20734172.7894     -76167.55147    -41093.41447                  20734181.0204
        25.5004         27.0004
  24806287.0084    -191108.68344    -39417.78945                  24806303.6764
         6.2504          7.5004
  23366077.8594     372174.99246
        15.7504
  23086671.3524    -283494.36346   -139430.81646                  23086686.1564
        14.2504         15.2504
  20503427.6724     131214.27647     68350.73347                  20503435.8204
        27.7504         26.7504
  22904160.2424    -289007.90346   -150227.04846                  22904170.3134
        17.0004         17.2504
 00  5  1 18 33 30.0000000  0  7G 4G 5G 6G 9G10G24G30
  22258961.7814     423510.35447    236357.11846                  22258970.5744
        22.0004         21.5004
  20732606.6724     -84397.28347    -47506.19447                  20732614.9964
        25.5004         27.2504
  24801170.5394    -217999.54344    -60371.53745                  24801188.3914
         6.5004          8.5004
  23375904.6094     423815.22346
        15.7504
  23079489.6884    -321235.26146   -168839.17246                  23079504.3754
        14.7504         15.2504
  20507056.2974     150282.85547     83209.35947                  20507064.3874
        27.5004         26.5004
  22897234.5784    -325400.12946   -178584.57746                  22897244.5314
        17.5004         17.2504
 00  5  1 18 33 45.0000000  0  7G 4G 5G 6G 9G10G24G30
  22268832.2974     475380.22347    276775.17846                  22268840.8444
        21.7504         20.7504
  20731087.8594     -92377.66347    -53724.67347                  20731096.1484
        25.5004         27.0004
  24796078.0314    -244762.14344    -81225.35645                  24796095.7074
         7.0004          8.5004
  23385762.7734     475619.45646     29611.60956                  23385776.9454
        15.7504         16.0004
  23072341.7034    -358797.42446   -198108.27546                  23072356.7424
        14.2504         15.0004
  20510729.9774     169587.67147     98252.07047                  20510738.2194
        27.2504         26.5004
  22890344.7274    -361607.83446   -206798.32746                  22890354.8794
        16.7504         17.2504
 00  5  1 18 34  0.0000000  0  7G 4G 5G 6G 9G10G24G30
  22278734.5234     527417.61547    317323.76946                  22278742.9884
        21.2504         20.7504
  20729614.0864    -100123.62747    -59760.48947                  20729622.1524
        25.5004         27.2504
  24791006.9144    -271407.96245   -101988.21645                  24791023.1604
         7.5004          8.7504
  23395649.5314     527575.00246     70096.31346                  23395663.9734
        15.5004         15.7504
  23065226.0394    -396189.54146   -227244.84846                  23065240.8444
        15.0004         15.5004
  20514446.2034     189117.10047    113469.80147                  20514454.3054
        27.2504         26.5004
  22883487.1254    -397643.37946   -234877.92446                  22883496.9614
        17.0004         17.2504
 00  5  1 18 34 15.0000000  0  7G 4G 5G 6G 9G10G24G30
  22288666.6564     579610.50547    357993.53246                  22288675.2154
        21.2504         20.5004
  20728182.5704    -107645.77347    -65621.90247                  20728190.8134
        25.5004         27.0004
  24785957.3834    -297945.73145   -122666.85745                  24785974.5084
         8.2504          8.5004
  23405563.8444     579673.37346    110692.27846                  23405578.4614
        15.0004         15.7504
  23058141.5004    -433418.68446   -256254.44446                  23058155.9534
        14.7504         15.0004
  20518203.6724     208861.89947    128855.35147                  20518211.7734
        27.2504         26.7504
  22876660.5864    -433516.14246   -262830.67046                  22876670.5274
        17.0004         17.0004
 00  5  1 18 34 30.0000000  0  7G 4G 5G 6G 9G10G24G30
  22298625.8754     631947.19247    398775.34946                  22298634.5164
        21.0004         20.5004
  20726791.6484    -114955.50147    -71317.79547                  20726799.8324
        25.2504         27.2504
  24780926.0234    -324384.63445   -143268.51645                  24780942.1294
         8.5004          7.5004
  23415503.8364     631907.53146    151394.07546                  23415517.9264
        15.2504         15.7504
  23051085.5164    -470497.18146   -285146.65146                  23051100.1094
        15.0004         15.5004
  20521999.6564     228810.44947    144399.67547                  20522007.7934
        27.2504         26.5004
  22869863.0084    -469238.15646   -290665.95946                  22869872.8324
        17.0004         17.0004
 00  5  1 18 34 45.0000000  0  7G 4G 5G 6G 9G10G24G30
  22308609.9304     684413.43147    439658.11546                  22308618.5234
        21.0004         20.2504
  20725438.3674    -122066.63947    -76858.94747                  20725446.7034
        25.7504         27.0004
  24775912.1414    -350732.35545   -163799.14645                  24775928.3164
         8.0004          8.0004
  23425467.4694     684267.15246    192193.63546                  23425482.1804
        15.0004         15.7504
  23044055.7584    -507437.73746   -313931.36346                  23044069.8714
        15.0004         15.5004
  20525832.9064     248954.24247    160096.12747                  20525841.1604
        27.2504         26.2504
  22863091.5234    -504822.49346   -318393.96446                  22863101.3134
        17.0004         17.0004
 00  5  1 18 35  0.0000000  0  7G 4G 5G 6G 9G10G24G30
  22318617.1094     737000.93447    480635.36146                  22318625.7384
        20.7504         20.2504
  20724121.3134    -128988.72447    -82252.77847                  20724129.6484
        25.7504         27.2504
  24770914.1484    -376990.86344   -184260.21045                  24770930.3714
         7.2504          8.5004
  23435453.8754     736745.26246    233085.50846                  23435468.8444
        15.0004         16.0004
  23037051.6174    -544245.64746   -342612.72646                  23037065.9064
        14.7504         15.2504
  20529701.9224     269286.27947    175939.27447                  20529710.0004
        27.0004         26.5004
  22856345.1724    -540274.85746   -346019.14046                  22856354.8794
        17.0004         17.0004
 00  5  1 18 35 15.0000000  0  7G 4G 5G 6G 9G10G24G30
  22328645.6024     789702.14247    521701.22546                  22328654.5124
        20.7504         20.2504
  20722838.4774    -135729.63447    -87505.43147                  20722846.8484
        25.5004         27.2504
  24765933.1024    -403167.43644   -204657.36145                  24765949.8164
         7.2504          8.7504
  23445461.3674     789333.09646    274062.88946                  23445475.8794
        15.0004         15.5004
  23030071.1174    -580928.01546   -371196.25846                  23030084.9964
        15.0004         15.5004
  20533605.6254     289800.89147    191924.68347                  20533613.7384
        27.0004         26.5004
  22849622.9384    -575601.56946   -373546.38946                  22849632.5744
        17.7504         17.2504
 00  5  1 18 35 30.0000000  0  7G 4G 5G 6G 9G10G24G30
  22338694.9064     842509.94747    562850.14046                  22338703.8404
        21.0004         20.2504
  20721589.0234    -142296.50847    -92622.47847                  20721597.2894
        25.7504         27.2504
  24760966.5164    -429270.08545   -224996.94745                  24760984.2854
         7.5004          8.2504
  23455487.4844     842022.96146    315119.76346                  23455501.9144
        14.2504         15.2504
  23023113.2504    -617491.30246   -399687.00846                  23023128.0904
        14.7504         15.5004
  20537543.2424     310490.77847    208046.66547                  20537551.2624
        27.0004         26.5004
  22842921.5084    -610816.29746   -400986.39546                  22842931.3794
        17.2504         17.0004
 00  5  1 18 35 45.0000000  0  7G 4G 5G 6G 9G10G24G30
  22348764.1724     895425.89347    604083.32946                  22348772.6374
        20.5004         20.2504
  20720372.4694    -148687.95947    -97602.82547                  20720380.5824
        26.2504         27.0004
  24756012.9384    -455297.07145   -245277.62045                  24756031.8914
         7.5004          7.5004
  23465534.0394     894814.41346    356255.80146                  23465548.3634
        15.0004         15.2504
  23016178.1564    -653934.59246   -428084.24546                  23016191.6604
        15.2504         15.5004
  20541513.8444     331357.11947    224306.15647                  20541521.9104
        26.7504         26.5004
  22836241.2974    -645922.15946   -428341.55646                  22836250.8164
        18.0004         17.2504
 00  5  1 18 36  0.0000000  0  7G 4G 5G 6G 9G10G24G30
  22358854.1174     948447.91147    645399.16546                  22358862.3364
        21.0004         20.0004
  20719189.1724    -154907.30247   -102449.06447                  20719197.1334
        26.0004         27.2504
  24751074.0944    -481253.34145   -265503.17245                  24751089.7544
         8.0004          8.0004
  23475599.0704     947706.05146    397469.91646                  23475613.3134
        15.2504         16.0004
  23009265.1254    -690261.95346   -456391.15546                  23009279.0164
        14.7504         15.2504
  20545517.6484     352397.66547    240701.38547                  20545525.7974
        27.0004         26.5004
  22829580.3834    -680923.34446   -455615.16146                  22829590.0434
        18.0004         17.5004
 00  5  1 18 36 15.0000000  0  7G 4G 5G 6G 9G10G24G30
  22368962.6334    1001568.52747    686791.83646                  22368971.0274
        21.2504         20.0004
  20718036.7424    -160962.67947   -107167.54447                  20718044.7274
        26.5004         27.2504
  24746146.5394    -507148.21645   -285680.91545                  24746162.3874
         8.7504          9.2504
  23485681.4694    1000690.29046    438756.17746                  23485696.0514
        14.7504         15.5004
  23002372.9304    -726480.62146   -484613.36846                  23002386.9024
        15.0004         15.2504
  20549553.3914     373605.14747    257226.68847                  20549561.5984
        26.7504         26.2504
  22822938.4534    -715827.08546   -482812.82446                  22822947.7974
        18.0004         17.5004
 00  5  1 18 36 30.0000000  0  7G 4G 5G 6G 9G10G24G30
  22379089.4064    1054784.98847    728259.19046                  22379097.8364
        21.0004         19.7504
  20716915.1024    -166857.16547   -111760.64847                  20716923.0634
        26.2504         27.2504
  24741230.1174    -532985.05045   -305813.40545                  24741246.7854
         8.7504          9.5004
  23495781.0234    1053763.69846    480111.91346                  23495796.5554
        14.2504         15.7504
  22995500.0634    -762596.12846   -512755.18646                  22995514.5984
        14.7504         15.5004
  20553620.0944     394976.85547    273879.96547                  20553628.3484
        27.0004         26.0004
  22816314.8914    -750635.11346   -509935.91546                  22816324.7274
        18.2504         17.7504
 00  5  1 18 36 45.0000000  0  7G 4G 5G 6G 9G10G24G30
  22389233.7814    1108095.29647    769799.67846                  22389241.9654
        20.7504         19.5004
  20715823.5704    -172594.06347   -116230.95547                  20715831.6604
        26.5004         27.5004
  24736323.9454    -558765.06645   -325901.58745                  24736339.9224
         8.0004          9.0004
  23505897.7274    1106925.94246    521536.88346                  23505912.6484
        14.2504         15.2504
  22988647.1564    -798608.79246   -540816.88446                  22988661.3874
        15.0004         15.5004
  20557717.8364     416510.84347    290659.69447                  20557726.0554
        26.7504         26.5004
  22809708.9924    -785348.73446   -536985.43146                  22809718.5824
        18.7504         17.7504
 00  5  1 18 37  0.0000000  0  7G 4G 5G 6G 9G10G24G30
  22399396.1884    1161496.67047    811411.11946                  22399404.1134
        20.7504         19.7504
  20714761.4774    -178175.11147   -120579.82247                  20714769.3794
        26.5004         27.2504
  24731427.4614    -584492.28744   -345948.65945                  24731444.8674
         6.7504          8.5004
  23516030.9224    1160175.29846    563029.72646                  23516045.9384
        14.5004         15.0004
  22981813.7424    -834517.50946   -568797.56846                  22981827.5044
        14.7504         15.5004
  20561846.0944     438204.80647    307564.08347                  20561854.5474
        26.7504         26.2504
  22803121.6024    -819967.77046   -563961.25246                  22803131.1684
        18.7504         17.7504
 00  5  1 18 37 15.0000000  0  7G 4G 5G 6G 9G10G24G30
  22409576.3054    1214993.91747    853097.26246                  22409584.8284
        20.7504         19.7504
  20713730.1884    -183594.99647   -124803.10647                  20713738.1954
        26.5004         27.5004
  24726541.3204    -610169.17544   -365956.51045                  24726557.0164
         7.2504          8.0004
  23526180.7814    1213512.83646    604591.29346                  23526195.3164
        14.2504         15.0004
  22975000.9534    -870318.36246   -596694.21346                  22975015.2074
        14.7504         15.5004
  20566004.6564     460058.62647    324593.03047                  20566012.8754
        26.7504         26.5004
  22796551.8754    -854490.13446   -590861.75846                  22796561.1724
        18.7504         17.7504
 00  5  1 18 37 30.0000000  0  7G 4G 5G 6G 9G10G24G30
  22419774.8134    1268588.23246    894859.04246                  22419783.2894
        19.5004         19.7504
  20712729.9224    -188851.79447   -128899.30847                  20712737.8134
        26.5004         27.2504
  24721664.7424    -635799.17744   -385927.85245                  24721681.1414
         7.2504          9.5004
  23536347.1954    1266937.97446    646221.11546                  23536362.2234
        13.7504         15.2504
  22968208.5234    -906011.23246   -624506.71446                  22968222.0984
        15.0004         15.7504
  20570193.6254     482071.59847    341745.99647                  20570201.8674
        26.7504         26.2504
  22790001.0554    -888915.66146   -617686.79846                  22790011.0434
        18.5004         18.0004
 00  5  1 18 37 45.0010000  0  7G 4G 5G 6G 9G10G24G30
  22429992.5834    1322283.25046    936699.29846                  22430001.3414
        19.5004         19.5004
  20711760.1694    -193946.89147   -132869.51147                  20711768.2594
        26.7504         27.5004
  24716795.0214    -661385.73144   -405865.26745                  24716810.7984
         6.7504          8.5004
  23546531.3884    1320454.43946    687922.08846                  23546547.9154
        13.2504         15.0004
  22961436.7554    -941597.84746   -652236.41846                  22961450.8454
        14.7504         15.5004
  20574412.4584     504242.37447    359021.92547                  20574420.7244
        26.5004         26.5004
  22783467.8724    -923246.87946   -644438.32546                  22783477.1924
        19.5004         18.5004
 00  5  1 18 38  0.0010000  0  7G 4G 5G 6G 9G10G24G30
  22440227.2634    1376068.23646    978609.65346                  22440236.3254
        19.5004         19.2504
  20710821.3804    -198881.16147   -136714.39647                  20710829.5524
        26.7504         27.5004
  24711933.5754    -686931.14244   -425770.64345                  24711949.4814
         6.7504          8.7504
  23556730.4114    1374052.59746    729686.71446                  23556745.8024
        14.2504         15.2504
  22954685.5754    -977076.30546   -679881.84446                  22954699.0914
        15.0004         15.5004
  20578660.6384     526566.66047    376417.46647                  20578669.1614
        26.7504         26.5004
  22776954.5914    -957474.62846   -671109.27046                  22776963.6424
        19.2504         18.2504
 00  5  1 18 38 15.0010000  0  7G 4G 5G 6G 9G10G24G30
  22450479.2474    1429941.60247   1020588.87646                  22450487.8064
        20.0004         19.0004
  20709911.4814    -203662.29547   -140439.95347                  20709919.4544
        27.0004         27.5004
  24707079.9034    -712442.46345   -445649.43245                  24707096.1734
         9.0004          9.2504
  23566945.4114    1427731.65846    771514.39946                  23566960.5094
        13.2504         14.7504
  22947953.1534   -1012454.39446   -707449.08646                  22947966.9854
        14.5004         15.5004
  20582937.0134     549038.64647    393928.09847                  20582945.4894
        26.5004         26.2504
  22770459.9194    -991603.84046   -697703.42046                  22770469.3104
        19.5004         18.5004
 00  5  1 18 38 30.0010000  0  7G 4G 5G 6G 9G10G24G30
  22460748.5994    1483908.69547   1062641.14146                  22460757.0994
        20.0004         19.5004
  20709031.1224    -208289.26847   -144045.38347                  20709038.9074
        26.7504         27.5004
  24702231.8414    -737918.27345   -465500.66945                  24702247.3494
         9.2504          9.5004
  23577176.2314    1481492.21146    813405.58146                  23577191.3534
        13.0004         14.5004
  22941239.6224   -1047731.39246   -734937.51946                  22941253.7944
        14.7504         15.5004
  20587241.6464     571659.58947    411554.81047                  20587250.1694
        26.7504         26.5004
  22763985.0674   -1025630.03247   -724217.29046                  22763994.5754
        20.0004         18.2504
 00  5  1 18 38 45.0010000  0  7G 4G 5G 6G 9G10G24G30
  22471036.8104    1537971.52547   1104767.99146                  22471045.4624
        20.2504         19.0004
  20708180.1694    -212760.39747   -147529.38047                  20708188.1424
        27.0004         27.5004
  24697391.0284    -763357.80545   -485323.59945                  24697405.8334
         8.0004          9.2504
  23587422.0284    1535335.27046    855361.04446                  23587437.9354
        13.0004         15.0004
  22934545.4424   -1082910.32046   -762349.56346                  22934559.0524
        14.7504         15.5004
  20591574.2084     594426.78147    429295.47647                  20591582.9194
        26.7504         26.2504
  22757529.5994   -1059553.11247   -750650.80646                  22757538.8494
        20.5004         18.5004
 00  5  1 18 39  0.0010000  0  7G 4G 5G 6G 9G10G24G30
  22481342.4034    1592128.34447   1146968.09346                  22481351.0094
        20.5004         19.0004
  20707358.7944    -217077.18147   -150893.10947                  20707366.6384
        27.0004         27.5004
  24692555.2474    -788764.33844   -505120.75545                  24692571.0014
         6.7504          8.0004
  23597683.4274    1589257.85846    897378.47046                  23597699.3564
        13.5004         15.2504
  22927869.2554   -1117993.73646   -789687.17546                  22927882.9814
        14.5004         15.7504
  20595933.7244     617336.10147    447146.89047                  20595942.1654
        26.7504         26.5004
  22751093.6614   -1093372.94047   -777003.89146                  22751103.1104
        20.2504         19.0004
 00  5  1 18 39 15.0010000  0  7G 4G 5G 6G 9G10G24G30
  22491666.8414    1646382.06346   1189243.69946                  22491675.2474
        19.7504         19.0004
  20706567.0914    -221236.88547   -154134.43347                  20706574.8764
        27.0004         27.5004
  24687727.6614    -814136.56545   -524891.14545                  24687743.9314
         7.5004          8.7504
  23607959.1064    1643255.47846    939454.36546                  23607974.8494
        13.5004         14.7504
  22921210.6384   -1152984.57946   -816952.65146                  22921224.5754
        15.0004         15.7504
  20600319.8644     640386.10447    465107.93147                  20600328.2004
        26.7504         26.2504
  22744677.5914   -1127089.96847   -803276.84146                  22744687.4034
        20.5004         19.0004
 00  5  1 18 39 30.0010000  0  7G 4G 5G 6G 9G10G24G30
  22502008.7864    1700730.18147   1231592.85746                  22502017.6964
        20.0004         19.2504
  20705804.6144    -225244.04247   -157256.89647                  20705812.6924
        27.0004         27.5004
  24682905.6224    -839474.49245   -544634.87245                  24682921.6694
         8.2504          9.5004
  23618248.1614    1697325.00846    981586.30346                  23618264.1854
        13.2504         14.5004
  22914568.6614   -1187888.17546   -844150.14146                  22914582.1304
        14.7504         15.7504
  20604732.0524     663573.17647    483175.77547                  20604740.5634
        26.5004         26.5004
  22738280.4814   -1160707.69047   -829472.43246                  22738289.9424
        20.5004         18.7504
 00  5  1 18 39 45.0010000  0  7G 4G 5G 6G 9G10G24G30
  22512368.4354    1755170.71546   1274014.03046                  22512377.3564
        19.5004         19.0004
  20705070.7864    -229099.79747   -160261.37847                  20705078.5484
        26.7504         27.5004
  24678091.3494    -864774.57545   -564349.14645                  24678105.8964
         8.5004          9.5004
  23628551.1064    1751468.05646   1023775.51546                  23628567.5524
        13.0004         14.2504
  22907943.4424   -1222704.63446   -871279.74346                  22907956.7354
        14.7504         15.5004
  20609171.0214     686899.63747    501352.24147                  20609179.4744
        26.5004         26.2504
  22731902.2554   -1194225.36447   -855590.05146                  22731911.5994
        20.0004         18.7504
 00  5  1 18 40  0.0010000  0  7G 4G 5G 6G 9G10G24G30
  22522744.4194    1809698.44946   1316503.15546                  22522753.0134
        19.2504         18.7504
  20704365.3884    -232806.32647   -163149.58347                  20704373.2674
        26.7504         27.5004
  24673283.4664    -890036.17345   -584033.40245                  24673300.4274
         8.0004          9.0004
  23638868.3104    1805682.67146   1066020.49546                  23638883.8294
        13.2504         14.7504
  22901334.2864   -1257434.71446   -898342.03346                  22901348.0604
        14.5004         16.0004
  20613636.6304     710364.88347    519636.84647                  20613644.9784
        27.0004         26.5004
  22725542.4664   -1227645.53447   -881631.70546                  22725551.7514
        20.7504         19.5004
 00  5  1 18 40 15.0010000  0  7G 4G 5G 6G 9G10G24G30
  22533137.3644    1864311.11847   1359058.45846                  22533145.8294
        20.0004         19.2504
  20703687.8174    -236367.04347   -165924.17147                  20703695.7204
        26.7504         27.2504
  24668483.6064    -915258.98645   -603687.38645                  24668498.4464
         7.5004          8.5004
  23649198.3644    1859967.83746   1108320.47146                  23649213.8374
        13.5004         14.5004
  22894740.9354   -1292081.54646   -925339.45346                  22894754.4034
        14.7504         15.7504
  20618127.4034     733965.92747    538027.26547                  20618135.6464
        26.7504         26.2504
  22719201.1144   -1260969.12047   -907598.08846                  22719209.9894
        20.5004         19.5004
 00  5  1 18 40 30.0010000  0  7G 4G 5G 6G 9G10G24G30
  22543547.2244    1919015.82647   1401685.48546                  22543556.0634
        20.5004         19.0004
  20703039.1144    -239776.19947   -168580.65447                  20703047.2164
        26.2504         27.0004
  24663692.8644    -940434.66144   -623304.69545                  24663707.9504
         7.0004          7.7504
  23659542.4504    1914326.41746   1150677.64146                  23659558.2514
        12.7504         14.2504
  22888165.1534   -1326637.01946   -952265.70046                  22888178.5634
        14.7504         16.0004
  20622645.4744     757708.36347    556527.86547                  20622653.8564
        27.0004         26.5004
  22712878.5054   -1294193.26247   -933486.99346                  22712888.0134
        20.5004         19.2504
 00  5  1 18 40 45.0010000  0  7G 4G 5G 6G 9G10G24G30
  22553973.1384    1973805.37347   1444378.60846                  22553981.7434
        20.2504         19.0004
  20702418.8644    -243035.62247   -171120.46847                  20702426.9314
        26.5004         27.2504
  24658910.1064    -965565.20044   -642886.85945                  24658925.9314
         7.2504          7.5004
  23669900.2394    1968753.78246   1193088.39246                  23669916.2864
        13.0004         14.7504
  22881606.4584   -1361103.68746   -979122.72546                  22881620.1494
        15.2504         16.0004
  20627189.5834     781587.16647    575134.72547                  20627197.9194
        26.7504         26.2504
  22706574.2084   -1327322.75747   -959302.12946                  22706583.9974
        21.0004         19.7504
 00  5  1 18 41  0.0010000  0  7G 4G 5G 6G 9G10G24G30
  22564413.7554    2028668.04147   1487128.71946                  22564422.4074
        20.2504         19.0004
  20701826.0134    -246151.38847   -173548.34047                  20701833.9034
        26.2504         27.0004
  24654136.3414    -990656.68645   -662438.54945                  24654152.6344
         8.5004          9.2504
  23680269.3494    2023243.08046   1235547.41746                  23680284.7744
        13.5004         14.7504
  22875063.8414   -1395484.34446  -1005912.75346                  22875077.1924
        15.0004         16.2504
  20631758.2164     805595.81947    593842.76647                  20631766.4704
        26.7504         26.0004
  22700286.7474   -1360364.53647   -985048.92846                  22700295.9744
        20.2504         19.5004
 00  5  1 18 41 15.0010000  0  7G 4G 5G 6G 9G10G24G30
  22574866.9664    2083600.57647   1529933.26846                  22574875.8174
        20.0004         18.7504
  20701260.0524    -249124.00847   -175864.66647                  20701268.1654
        26.2504         27.0004
  24649368.5754   -1015712.06145   -681962.09145                  24649384.7634
         9.2504         11.0004
  23690649.1224    2077790.82646   1278051.98146                  23690665.3564
        13.2504         14.7504
  22868538.3494   -1429775.90546  -1032633.33346                  22868551.7124
        15.2504         16.5004
  20636351.8174     829734.19547    612651.89147                  20636360.0834
        26.7504         26.2504
  22694015.2084   -1393321.01647  -1010729.25446                  22694024.5284
        21.0004         19.5004
 00  5  1 18 41 30.0010000  0  7G 4G 5G 6G 9G10G24G30
  22585333.8564    2138604.19247   1572793.20746                  22585342.7084
        20.0004         18.7504
  20700722.2864    -251950.30747   -178066.98047                  20700730.4934
        26.5004         26.7504
  24644607.8024   -1040729.44445   -701456.01545                  24644623.9424
         9.0004         10.0004
  23701041.3414    2132400.48146   1320604.78546                  23701057.6104
        13.2504         14.2504
  22862031.0914   -1463971.74446  -1059279.34746                  22862044.4664
        15.7504         16.7504
  20640970.7864     854007.33147    631566.02347                  20640979.0524
        27.0004         26.2504
  22687760.2474   -1426190.09747  -1036341.48246                  22687769.7674
        20.7504         19.7504
 00  5  1 18 41 45.0010000  0  7G 4G 5G 6G 9G10G24G30
  22595812.4814    2193672.34146   1615703.43246                  22595821.2044
        19.7504         18.7504
  20700212.0214    -254633.34047   -180157.65447                  20700220.0994
        26.2504         27.0004
  24639852.9274   -1065714.95645   -720925.13545                  24639866.6064
         8.7504          9.5004
  23711444.6854    2187068.79146   1363203.29446                  23711460.9424
        13.2504         14.7504
  22855541.5444   -1498072.20046  -1085851.01846                  22855555.3064
        15.7504         16.5004
  20645614.9194     878413.01847    650583.44147                  20645623.0094
        27.0004         26.2504
  22681522.3964   -1458972.10247  -1061885.86346                  22681531.7744
        20.5004         19.7504
 00  5  1 18 42  0.0010000  0  7G 4G 5G 6G 9G10G24G30
  22606304.2084    2248804.03046   1658663.16446                  22606312.7554
        19.7504         18.7504
  20699728.9424    -257172.28947   -182136.05647                  20699736.8454
        26.5004         27.0004
  24635103.9744   -1090671.34545   -740371.60945                  24635116.3644
         8.0004          9.0004
  23721858.4194    2241793.97946   1405846.11746                  23721873.9854
        13.5004         14.5004
  22849070.8724   -1532076.29746  -1112347.61646                  22849084.2714
        16.0004         16.7504
  20650284.2864     902949.87847    669703.07547                  20650292.2474
        27.2504         26.2504
  22675300.5284   -1491666.94847  -1087362.31546                  22675309.4854
        20.5004         19.7504
 00  5  1 18 42 15.0010000  0  7G 4G 5G 6G 9G10G24G30
  22616807.7474    2304003.14547   1701675.44446                  22616816.1304
        20.0004         18.7504
  20699273.7474    -259563.64647   -183999.44947                  20699281.5674
        26.5004         26.7504
  24630359.8804   -1115597.83044   -759794.73945                  24630376.7244
         6.2504          8.7504
  23732283.2084    2296576.54246   1448533.66246                  23732298.7044
        13.0004         14.0004
  22842618.4894   -1565983.72946  -1138768.88546                  22842631.4664
        16.0004         16.5004
  20654978.7244     927619.30447    688926.00347                  20654986.7904
        27.2504         26.2504
  22669096.4194   -1524269.26447  -1112766.67746                  22669105.8334
        20.0004         19.7504
 00  5  1 18 42 30.0010000  0  7G 4G 5G 6G 9G10G24G30
  22627325.4814    2359272.25347   1744742.25546                  22627333.7474
        20.0004         18.7504
  20698847.1774    -261804.57847   -185745.63347                  20698855.0914
        26.5004         26.7504
  24625621.8964   -1140493.90944   -779194.07045                  24625639.3844
         6.2504          8.2504
  23742719.4664    2351415.68046   1491265.26746                  23742735.8644
        12.2504         13.5004
  22836184.3644   -1599793.74346  -1165114.25146                  22836197.3644
        16.5004         17.5004
  20659698.7944     952422.89647    708253.47947                  20659706.6034
        27.5004         26.5004
  22662910.3564   -1556777.90147  -1138098.03346                  22662920.1344
        20.5004         19.7504
 00  5  1 18 42 45.0010000  0  7G 4G 5G 6G 9G10G24G30
  22637855.4114    2414607.73047   1787860.77346                  22637863.8174
        20.0004         18.5004
  20698449.4974    -263894.33247   -187374.01447                  20698457.5754
        26.5004         26.5004
  24620889.9894   -1165363.71145   -798572.96345                  24620906.5634
         9.2504          9.0004
  23753165.0444    2406308.26446   1534038.52646                  23753181.3494
        13.5004         14.2504
  22829769.1854   -1633507.25646  -1191384.42046                  22829782.6774
        16.2504         17.2504
  20664444.0524     977360.34447    727685.26047                  20664451.9664
        27.5004         26.5004
  22656741.6854   -1589194.07347  -1163357.35246                  22656751.2164
        20.5004         19.7504
 00  5  1 18 43  0.0010000  0  7G 4G 5G 6G 9G10G24G30
  22648397.7554    2470008.41646   1831030.12046                  22648406.5604
        19.7504         18.2504
  20698080.7084    -265832.84747   -188884.54447                  20698088.7044
        26.5004         26.7504
  24616163.3334   -1190207.64645   -817931.84345                  24616177.7744
        10.0004          8.5004
  23763621.4894    2461255.49446   1576854.36246                  23763637.1964
        13.5004         14.2504
  22823371.8964   -1667125.37946  -1217580.26346                  22823385.1534
        16.5004         17.2504
  20669214.9354    1002431.40347    747221.14847                  20669222.9074
        27.5004         26.5004
  22650590.7634   -1621517.33947  -1188544.26746                  22650600.7044
        20.2504         20.0004
 00  5  1 18 43 15.0010000  0  7G 4G 5G 6G 9G10G24G30
  22658953.4664    2525476.68046   1874252.12646                  22658961.9074
        19.5004         18.2504
  20697740.4274    -267621.29147   -190278.13947                  20697748.2824
        26.2504         26.5004
  24611438.3024   -1215030.30945   -837274.16445                  24611451.6654
         8.2504          8.5004
  23774087.3494    2516254.12546   1619710.26746                  23774102.3534
        14.0004         14.5004
  22816992.2634   -1700648.85546  -1243702.35746                  22817005.4384
        16.2504         17.5004
  20674010.8804    1027634.50047    766859.92547                  20674018.9584
        27.5004         26.0004
  22644456.9894   -1653749.51047  -1213660.19646                  22644466.3924
        20.2504         19.7504
 00  5  1 18 43 30.0010000  0  7G 4G 5G 6G 9G10G24G30
  22669521.3334    2581014.19546   1917528.08746                  22669530.1734
        19.5004         18.5004
  20697428.9114    -269258.99447   -191554.27047                  20697436.8844
        26.5004         26.7504
  24606719.2714   -1239828.24745   -856597.06945                  24606735.3174
         7.7504          9.2504
  23784562.8644    2571305.93646   1662607.60846                  23784578.7474
        12.7504         14.0004
  22810631.2634   -1734076.43346  -1269749.71746                  22810644.2634
        16.7504         17.7504
  20678832.1064    1052971.64847    786603.16347                  20678840.1264
        27.7504         26.5004
  22638341.2474   -1685888.09246  -1238703.21246                  22638350.9194
        19.2504         19.5004
 00  5  1 18 43 45.0010000  0  7G 4G 5G 6G 9G10G24G30
  22680103.4894    2636622.31746   1960859.05946                  22680112.2354
        19.5004         18.2504
  20697145.6694    -270746.85747   -192713.64547                  20697153.6534
        26.5004         26.5004
  24602006.1144   -1264598.51845   -875898.38645                  24602021.9624
         9.5004         10.7504
  23795049.5604    2626411.04046   1705546.46446                  23795066.5914
        13.0004         14.0004
  22804288.0674   -1767408.97046  -1295723.03446                  22804301.3724
        16.5004         17.5004
  20683679.0834    1078441.17347    806449.54447                  20683686.9854
        27.7504         26.5004
  22632243.2944   -1717931.67447  -1263672.18446                  22632252.9894
        20.5004         19.7504
 00  5  1 18 44  0.0010000  0  7G 4G 5G 6G 9G10G24G30
  22690698.6464    2692300.56446   2004244.68146                  22690707.3104
        19.2504         18.5004
  20696890.4194    -272087.57047   -193758.35447                  20696898.4624
        26.5004         26.5004
  24597297.6774   -1289341.12645   -895178.27345                  24597313.2434
         8.2504          9.7504
  23805546.7714    2681569.55946   1748526.94846                  23805563.2864
        14.5004         14.5004
  22797962.5674   -1800648.98346  -1321624.23446                  22797975.9314
        16.7504         17.7504
  20688550.4744    1104040.40947    826397.00247                  20688558.3174
        27.5004         26.7504
  22626163.1774   -1749883.17547  -1288569.42846                  22626173.0954
        20.2504         19.7504
 00  5  1 18 44 15.0010000  0  7G 4G 5G 6G 9G10G24G30
  22701308.1924    2748051.57746   2047687.00846                  22701316.9504
        19.5004         18.5004
  20696663.7554    -273279.11047   -194686.82647                  20696671.5874
        26.5004         26.5004
  24592592.6534   -1314052.96543   -914434.14645                  24592605.2784
         5.2504          7.5004
  23816053.0524    2736782.21846   1791549.63446                  23816068.6424
        14.2504         14.7504
  22791655.0604   -1833795.36546  -1347452.49646                  22791668.0834
        16.7504         17.7504
  20693447.0914    1129771.75647    846447.40747                  20693455.1814
        27.5004         26.5004
  22620101.0994   -1781740.20546  -1313393.03746                  22620110.6064
        19.7504         19.7504
 00  5  1 18 44 30.0010000  0  7G 4G 5G 6G 9G10G24G30
  22711929.7394    2803869.28446   2091181.28946                  22711938.5094
        19.2504         18.2504
  20696464.2864    -274326.08047   -195502.64547                  20696472.3294
        26.5004         26.7504
  24587896.8564   -1338739.28445   -933670.09345                  24587910.7594
         8.2504          8.5004
  23826568.7864    2792042.97646   1834609.78446                  23826584.5174
        13.2504         14.0004
  22785364.7784   -1866850.63646  -1373209.74846                  22785378.0134
        17.0004         18.0004
  20698367.9114    1155630.46347    866597.05147                  20698375.9544
        27.7504         26.7504
  22614056.0134   -1813507.29046  -1338146.57446                  22614065.9544
        19.7504         20.2504
 00  5  1 18 44 45.0010000  0  7G 4G 5G 6G 9G10G24G30
  22722564.7554    2859755.55446   2134729.00946                  22722573.7714
        19.0004         18.5004
  20696292.9894    -275227.43747   -196205.00047                  20696300.7164
        26.7504         26.2504
  24583205.4194   -1363398.43745   -952884.93045                  24583220.4814
        11.0004         10.5004
  23837094.1924    2847354.84646   1877709.73846                  23837110.1694
        13.2504         13.5004
  22779092.8884   -1899809.59946  -1398891.96446                  22779105.7714
        16.7504         18.2504
  20703312.9974    1181617.58447    886846.75747                  20703321.1924
        27.7504         26.7504
  22608028.3024   -1845182.59946  -1362828.58746                  22608038.0214
        19.7504         19.7504
 00  5  1 18 45  0.0010000  0  7G 4G 5G 6G 9G10G24G30
  22733212.0754    2915709.39546   2178329.37246                  22733220.8924
        19.0004         18.2504
  20696148.9664    -275984.00547   -196794.53547                  20696156.7044
        26.2504         26.2504
  24578517.7244   -1388030.81645   -972078.90245                  24578532.3764
         9.2504         10.2504
  23847629.7634    2902718.36746   1920849.97246                  23847645.8924
        13.2504         13.5004
  22772839.6534   -1932670.60946  -1424497.85446                  22772852.7714
        17.0004         18.0004
  20708281.9034    1207729.46147    907193.67947                  20708289.8534
        27.7504         26.7504
  22602018.0364   -1876766.80247  -1387439.60446                  22602027.4854
        20.2504         20.0004
 00  5  1 18 45 15.0010000  0  7G 4G 5G 6G 9G10G24G30
  22743872.8174    2971730.89446   2221982.45846                  22743881.8924
        19.0004         18.5004
  20696032.4114    -276596.51847   -197271.81747                  20696040.3494
        26.5004         26.5004
  24573832.6534   -1412638.06544   -991253.26945                  24573848.8884
         6.2504          8.0004
  23858175.2314    2958131.63346   1964028.95746                  23858191.5834
        14.2504         14.0004
  22766605.3174   -1965431.73046  -1450025.90246                  22766618.5994
        16.7504         18.2504
  20713274.7784    1233967.31447    927638.76147                  20713282.9154
        27.5004         26.7504
  22596024.9114   -1908260.55646  -1411980.16446                  22596034.6534
        19.7504         20.0004
 00  5  1 18 45 30.0010000  0  7G 4G 5G 6G 9G10G24G30
  22754545.4274    3027816.37246   2265685.39846                  22754554.3134
        19.2504         18.5004
  20695943.1304    -277066.07547   -197637.70447                  20695951.1964
        26.2504         26.5004
  24569156.1464   -1437222.69145  -1010409.96845                  24569170.2824
         9.0004          9.2504
  23868729.2554    3013593.49046   2007245.80646                  23868745.5244
        13.5004         14.0004
  22760390.2784   -1998092.97946  -1475476.12646                  22760403.2434
        17.2504         18.0004
  20718291.6064    1260331.31647    948182.14447                  20718299.7204
        27.7504         26.7504
  22590048.3884   -1939666.14247  -1436451.99446                  22590058.2824
        20.2504         20.2504
 00  5  1 18 45 45.0010000  0  7G 4G 5G 6G 9G10G24G30
  22765230.7084    3083966.75646   2309438.92546                  22765239.3844
        19.2504         18.0004
  20695881.0674    -277391.72447   -197891.45547                  20695889.0284
        26.0004         26.2504
  24564482.2714   -1461783.51045  -1029548.21045                  24564497.8844
         8.7504         11.0004
  23879292.6464    3069105.49246   2050501.72446                  23879308.7284
        13.2504         14.2504
  22754193.7244   -2030654.98946  -1500849.03546                  22754206.6654
        17.0004         18.5004
  20723332.8884    1286823.57747    968825.46447                  20723341.0714
        27.2504         26.5004
  22584089.2944   -1970981.58046  -1460853.59946                  22584098.7434
        19.7504         20.0004
 00  5  1 18 46  0.0010000  0  7G 4G 5G 6G 9G10G24G30
  22775928.0054    3140184.66446   2353245.05446                  22775937.0324
        18.7504         18.2504
  20695846.8174    -277571.24347   -198031.34047                  20695854.6144
        26.2504         26.2504
  24559811.6464   -1486320.97444  -1048668.16145                  24559828.5714
         7.2504          9.7504
  23889866.3174    3124669.13546   2093797.85846                  23889883.3374
        13.0004         14.0004
  22748015.7944   -2063118.45546  -1526145.13046                  22748029.3684
        17.0004         18.2504
  20728398.6144    1313444.67647    989569.18047                  20728406.8104
        27.2504         26.7504
  22578147.1924   -2002207.54147  -1485185.47646                  22578156.9704
        20.0004         20.0004
 00  5  1 18 46 15.0010000  0  7G 4G 5G 6G 9G10G24G30
  22786637.9744    3196464.47146   2397099.42246                  22786647.1064
        18.7504         18.0004
  20695840.2554    -277606.19147   -198058.57347                  20695848.1224
        26.0004         26.2504
  24555147.6464   -1510837.88745  -1067772.07645                  24555162.8024
         9.7504          9.2504
  23900449.1854    3180281.32846   2137131.84946                  23900466.4974
        12.7504         13.5004
  22741856.7244   -2095485.94046  -1551366.46346                  22741869.7714
        16.7504         18.2504
  20733489.0444    1340193.84447   1010412.69347                  20733497.2044
        27.2504         27.0004
  22572221.8964   -2033344.76346  -1509448.20446                  22572231.5214
        19.7504         20.0004
 00  5  1 18 46 30.0010000  0  7G 4G 5G 6G 9G10G24G30
  22797359.7714    3252805.58746   2441001.56646                  22797368.5054
        19.0004         18.0004
  20695861.8254    -277494.74147   -197971.73147                  20695869.7394
        26.0004         26.2504
  24550487.1304   -1535332.40845  -1086858.69545                  24550499.8134
        11.0004          9.2504
  23911041.5054    3235940.45746   2180502.40346                  23911057.6574
        13.5004         13.7504
  22735715.2314   -2127756.31646  -1576512.10646                  22735728.0444
        17.0004         18.2504
  20738603.3564    1367070.41447   1031355.47647                  20738611.5284
        27.0004         26.7504
  22566313.7554   -2064392.97746  -1533641.57646                  22566323.5794
        19.5004         20.0004
 00  5  1 18 46 45.0010000  0  7G 4G 5G 6G 9G10G24G30
  22808093.1464    3309211.42946   2484954.13846                  22808102.0564
        19.0004         18.0004
  20695910.7164    -277235.44047   -197769.67947                  20695918.6424
        26.0004         26.2504
  24545829.4274   -1559803.15645  -1105926.79845                  24545844.0564
         8.7504          9.5004
  23921642.6304    3291652.58346   2223914.28946                  23921658.9354
        13.0004         13.2504
  22729593.7944   -2159927.19946  -1601580.23446                  22729606.6184
        16.7504         18.2504
  20743741.8724    1394072.41647   1052395.99647                  20743750.1494
        27.0004         26.5004
  22560422.1144   -2095353.16647  -1557766.36446                  22560431.5994
        20.2504         20.0004
 00  5  1 18 47  0.0010000  0  7G 4G 5G 6G 9G10G24G30
  22818839.3414    3365681.29346   2528956.60446                  22818848.4624
        18.5004         17.7504
  20695988.1854    -276827.91547   -197452.13047                  20695996.2044
        26.2504         26.0004
  24541176.4894   -1584247.03244  -1124973.81245                  24541192.7354
         7.2504          9.0004
  23932254.9664    3347419.09446   2267368.51446                  23932272.3374
        12.0004         13.0004
  22723490.3024   -2192000.49146  -1626572.31646                  22723503.4784
        17.0004         18.2504
  20748903.7634    1421200.29547   1073534.60347                  20748912.0754
        26.7504         26.7504
  22554547.1064   -2126225.98447  -1581823.06146                  22554557.0134
        20.0004         20.0004
 00  5  1 18 47 15.0010000  0  7G 4G 5G 6G 9G10G24G30
  22829595.8964    3422209.04546   2573004.16946                  22829604.8414
        18.5004         18.0004
  20696093.1384    -276276.36047   -197022.35147                  20696101.2744
        26.2504         26.2504
  24536530.4974   -1608666.89945  -1144002.08345                  24536545.2204
         9.7504         10.2504
  23942876.2634    3403234.49246   2310860.82846                  23942893.0134
        12.5004         13.5004
  22717404.7084   -2223979.80446  -1651491.16446                  22717417.8134
        16.7504         18.2504
  20754089.7084    1448452.21547   1094769.86647                  20754097.9744
        26.7504         26.7504
  22548687.7714   -2157017.50447  -1605816.40646                  22548697.5244
        20.2504         19.7504
 00  5  1 18 47 30.0010000  0  7G 4G 5G 6G 9G10G24G30
  22840363.9274    3478795.52446   2617097.50446                  22840373.0014
        18.0004         17.5004
  20696225.7394    -275581.45147   -196480.86347                  20696233.6884
        26.5004         26.2504
  24531889.2944   -1633058.81845  -1163008.73545                  24531903.3844
        10.0004         10.2504
  23953507.4894    3459101.09246   2354393.06646                  23953524.0174
        12.2504         12.7504
  22711337.0834   -2255865.71946  -1676337.23746                  22711350.0834
        17.0004         18.5004
  20759299.4114    1475828.98347   1116102.41047                  20759307.6424
        26.5004         26.5004
  22542844.1304   -2187726.47247  -1629745.44246                  22542853.6854
        20.5004         20.2504
 00  5  1 18 47 45.0010000  0  7G 4G 5G 6G 9G10G24G30
  22851143.0524    3535440.11646   2661236.12246                  22851151.8104
        18.2504         17.2504
  20696384.6694    -274744.63147   -195828.80047                  20696392.5714
        26.5004         26.2504
  24527252.7084   -1657420.82145  -1181992.03845                  24527266.6574
         9.0004         10.0004
  23964148.0054    3515017.48345   2397964.06646                  23964164.1104
        11.7504         12.7504
  22705286.0914   -2287660.97146  -1701112.66646                  22705299.1734
        16.7504         18.0004
  20764531.9114    1503326.36947   1137528.94647                  20764540.2244
        26.2504         26.5004
  22537015.9274   -2218351.87647  -1653609.35146                  22537025.8454
        20.2504         20.2504
 00  5  1 18 48  0.0010000  0  7G 4G 5G 6G 9G10G24G30
  22861932.0604    3592137.73446   2705416.05146                  22861941.0284
        18.0004         17.5004
  20696570.2164    -273770.04247   -195069.38647                  20696578.1424
        26.5004         26.5004
  24522622.1614   -1681754.11445  -1200952.91545                  24522637.7984
         9.2504         10.5004
  23974797.8104    3570979.88046   2441570.94046                  23974815.0284
        12.0004         12.5004
  22699252.0754   -2319370.74546  -1725821.47646                  22699265.0634
        17.5004         18.2504
  20769786.2084    1530938.16247   1159044.62847                  20769794.3684
        26.2504         26.5004
  22531203.6694   -2248894.86547  -1677409.04146                  22531213.2354
        20.2504         20.2504
 00  5  1 18 48 15.0010000  0  7G 4G 5G 6G 9G10G24G30
  22872731.2634    3648887.53746   2749636.64646                  22872739.8564
        18.0004         17.5004
  20696782.4974    -272654.97247   -194200.50647                  20696790.4814
        26.7504         26.5004
  24517998.3724   -1706056.03045  -1219889.38345                  24518012.4154
         9.5004         10.2504
  23985456.2084    3626990.82745   2485215.64346                  23985472.8994
        11.7504         12.7504
  22693235.1224   -2350990.34846  -1750460.04846                  22693248.0994
        17.0004         18.5004
  20775062.8254    1558666.09347   1180650.80547                  20775071.1964
        26.0004         26.5004
  22525408.5364   -2279350.82147  -1701140.92046                  22525418.2084
        20.5004         20.2504
 00  5  1 18 48 30.0010000  0  7G 4G 5G 6G 9G10G24G30
  22883539.8884    3705688.78246   2793897.32746                  22883549.1614
        17.7504         17.2504
  20697021.0834    -271400.73847   -193223.18347                  20697029.0444
        27.0004         26.7504
  24513378.9974   -1730327.43545  -1238802.12545                  24513392.3844
         8.0004          8.2504
  23996123.9114    3683048.48946   2528896.72946                  23996140.5094
        12.0004         12.5004
  22687235.7394   -2382517.66646  -1775026.69246                  22687249.1854
        17.7504         18.5004
  20780360.4664    1586507.50147   1202345.40747                  20780368.9314
        25.7504         26.2504
  22519629.2244   -2309719.67547  -1724804.92446                  22519638.9784
        21.0004         20.7504
 00  5  1 18 48 45.0010000  0  7G 4G 5G 6G 9G10G24G30
  22894359.4114    3762542.85646   2838199.17746                  22894368.3214
        17.5004         17.5004
  20697286.3174    -270007.19347   -192137.31247                  20697294.0444
        27.0004         27.0004
  24508765.6534   -1754570.38445  -1257692.63145                  24508779.7784
         8.7504          8.7504
  24006800.4114    3739152.67545   2572614.10646                  24006817.1264
        11.5004         12.5004
  22681253.6534   -2413951.79846  -1799520.73946                  22681266.1614
        17.5004         18.7504
  20785680.2244    1614461.51047   1224127.74547                  20785688.6774
        26.0004         26.5004
  22513866.5914   -2340002.43847  -1748401.85146                  22513876.2864
        21.0004         20.5004
 00  5  1 18 49  0.0010000  0  7G 4G 5G 6G 9G10G24G30
  22905187.3104    3819444.82446   2882538.33646                  22905195.9274
        18.2504         17.2504
  20697577.6144    -268476.63147   -190944.67147                  20697585.5524
        26.7504         27.0004
  24504157.0444   -1778788.93245  -1276564.12245                  24504172.7514
         9.2504         10.5004
  24017484.2394    3795299.09145   2616364.33146                  24017501.6574
        10.7504         12.0004
  22675289.2784   -2445294.87146  -1823943.82346                  22675301.7394
        18.0004         18.5004
  20791021.2004    1642528.18647   1245997.88047                  20791029.7474
        26.0004         26.2504
  22508120.5834   -2370199.03747  -1771931.62946                  22508129.9274
        21.0004         20.5004
 00  5  1 18 49 15.0010000  0  7G 4G 5G 6G 9G10G24G30
  22916024.1534    3876392.03046   2926912.75346                  22916033.0174
        18.7504         17.2504
  20697894.6614    -266810.41947   -189646.32747                  20697902.7394
        26.7504         27.0004
  24499552.2474   -1802983.50445  -1295416.93545                  24499568.6224
         8.2504         10.0004
  24028176.4504    3851482.91545   2660143.74946                  24028193.5054
        11.5004         12.7504
  22669342.1224   -2476546.30246  -1848295.49846                  22669354.5364
        17.7504         18.5004
  20796383.6534    1670707.38747   1267955.69747                  20796392.0244
        25.7504         26.2504
  22502390.5754   -2400309.24747  -1795394.10546                  22502400.0244
        21.5004         20.7504
 00  5  1 18 49 30.0010000  0  7G 4G 5G 6G 9G10G24G30
  22926870.7244    3933389.21746   2971326.11446                  22926879.9624
        18.5004         17.5004
  20698237.9504    -265007.09147   -188241.14247                  20698245.9584
        27.0004         26.7504
  24494952.7784   -1827154.58345  -1314251.39845                  24494967.1964
         9.0004         10.0004
  24038874.8884    3907704.00045   2703952.18446                  24038892.3064
        11.0004         12.5004
  22663413.5754   -2507703.34046  -1872573.61446                  22663426.2594
        18.2504         18.7504
  20801767.2314    1698998.21747   1290000.49247                  20801775.5794
        25.5004         26.2504
  22496678.0054   -2430328.89947  -1818785.99946                  22496687.5714
        21.2504         20.7504
 00  5  1 18 49 45.0010000  0  7G 4G 5G 6G 9G10G24G30
  22937726.6614    3990437.67346   3015779.43346                  22937735.6774
        17.7504         17.2504
  20698607.6064    -263063.80347   -186726.89847                  20698615.5914
        27.0004         26.7504
  24490358.1614   -1851304.61645  -1333069.55145                  24490372.7204
        10.5004         10.5004
  24049580.8724    3963962.79745   2747789.99345                  24049598.9354
        10.5004         11.5004
  22657502.2314   -2538766.39846  -1896778.51946                  22657514.8104
        18.0004         18.7504
  20807171.5134    1727398.50347   1312130.58447                  20807179.8724
        25.5004         26.0004
  22490984.1774   -2460252.64547  -1842103.17346                  22490993.3454
        21.5004         20.7504
 00  5  1 18 50  0.0010000  0  7G 4G 5G 6G 9G10G24G30
  22948592.4354    4047538.31146   3060273.39746                  22948601.5794
        18.0004         17.2504
  20699004.7244    -260977.29747   -185101.05247                  20699012.8134
        26.7504         27.2504
  24485765.0674   -1875435.99045  -1351873.16345                  24485780.1304
         8.7504         10.2504
  24060293.5134    4020257.98045   2791656.15746                  24060309.7354
        11.7504         12.5004
  22651609.5834   -2569733.86546  -1920908.91946                  22651622.1264
        18.5004         18.7504
  20812597.2314    1755911.60347   1334348.57847                  20812605.7314
        25.2504         26.0004
  22485308.1924   -2490077.95247  -1865343.64146                  22485317.5014
        21.5004         21.0004
 00  5  1 18 50 15.0010000  0  7G 4G 5G 6G 9G10G24G30
  22959468.6304    4104694.57546   3104810.71446                  22959477.3644
        18.2504         17.5004
  20699429.2164    -258745.93847   -183362.33947                  20699437.3764
        27.2504         27.2504
  24481176.1694   -1899548.51045  -1370661.99745                  24481190.5284
         8.2504          9.2504
  24071012.9814    4076592.19445   2835552.78345                  24071029.9314
        10.5004         11.7504
  22645735.2164   -2600600.88346  -1944961.05846                  22645747.2434
        18.2504         18.7504
  20818045.2394    1784540.11347   1356656.50847                  20818053.5404
        26.0004         26.2504
  22479651.2714   -2519804.82647  -1888507.39746                  22479660.4034
        22.0004         21.0004
 00  5  1 18 50 30.0010000  0  7G 4G 5G 6G 9G10G24G30
  22970356.6534    4161908.17946   3149392.70546                  22970365.6464
        18.5004         17.0004
  20699881.6854    -256368.42647   -181509.73847                  20699889.8214
        27.2504         27.2504
  24476591.8644   -1923643.47145  -1389437.22145                  24476605.5794
         9.2504          8.7504
  24081741.0134    4132962.21645   2879477.24346                  24081758.5714
        10.7504         12.5004
  22639880.9424   -2631365.67946  -1968933.54546                  22639893.7204
        18.2504         19.0004
  20823514.6774    1813283.98247   1379054.32347                  20823522.8494
        25.7504         26.2504
  22474012.7474   -2549435.65947  -1911596.32846                  22474021.9034
        22.0004         21.2504
 00  5  1 18 50 45.0010000  0  7G 4G 5G 6G 9G10G24G30
  22981254.8494    4219178.51146   3194018.91646                  22981263.7824
        18.2504         17.2504
  20700361.8884    -253844.01047   -179542.66147                  20700370.0244
        27.2504         27.2504
  24472009.6534   -1947718.95445  -1408197.34045                  24472023.9424
         8.2504          9.5004
  24092474.3334    4189367.44745   2923429.16546                  24092491.6814
        11.0004         12.5004
  22634045.7784   -2662029.04846  -1992826.98746                  22634058.1694
        18.2504         18.7504
  20829006.7864    1842144.54147   1401543.06647                  20829015.0754
        25.7504         26.5004
  22468392.4114   -2578971.09747  -1934610.92146                  22468401.6964
        21.7504         21.5004
 00  5  1 18 51  0.0010000  0  7G 4G 5G 6G 9G10G24G30
  22992163.2714    4276505.38246   3238689.17846                  22992171.8994
        18.2504         17.0004
  20700870.7164    -251171.17147   -177459.93547                  20700878.9464
        27.0004         27.2504
  24467432.2244   -1971771.47244  -1426939.42345                  24467448.9034
         6.7504          9.2504
  24103214.0754    4245807.02645   2967407.86145                  24103232.3024
        10.5004         11.7504
  22628229.8884   -2692591.48346  -2016641.79146                  22628242.3494
        18.7504         19.0004
  20834521.5134    1871125.62447   1424125.72147                  20834529.7314
        25.7504         26.2504
  22462790.9744   -2608407.26547  -1957548.15946                  22462800.1424
        22.2504         21.2504
 00  5  1 18 51 15.0010000  0  7G 4G 5G 6G 9G10G24G30
  23003083.3254    4333889.42646   3283403.98246                  23003092.2944
        18.0004         17.0004
  20701407.5524    -248350.36147   -175261.90947                  20701415.6884
        27.0004         27.2504
  24462860.8104   -1995798.60845  -1445661.73245                  24462876.2474
         8.7504         10.5004
  24113961.3024    4302280.38645   3011412.87546                  24113979.6464
        11.2504         12.2504
  22622433.1614   -2723053.40346  -2040378.27046                  22622445.5634
        18.2504         18.7504
  20840059.6854    1900226.57747   1446801.78747                  20840068.0794
        26.0004         26.2504
  22457207.8564   -2637745.49047  -1980409.08546                  22457216.9074
        21.7504         21.5004
 00  5  1 18 51 30.0010000  0  7G 4G 5G 6G 9G10G24G30
  23014014.4354    4391333.66946   3328165.69846                  23014023.0404
        18.0004         16.7504
  20701972.3724    -245382.05547   -172948.94347                  20701980.3924
        27.5004         27.2504
  24458293.3644   -2019800.07545  -1464364.06445                  24458308.8024
         8.0004          9.5004
  24124714.0214    4358786.26645   3055443.21246                  24124731.0634
        11.2504         12.5004
  22616655.6064   -2753414.62046  -2064036.27746                  22616667.8454
        18.2504         18.7504
  20845620.0444    1929447.72247   1469571.50647                  20845628.1924
        26.2504         26.2504
  22451643.1144   -2666988.20247  -2003195.57646                  22451652.5754
        22.0004         21.2504
 00  5  1 18 51 45.0010000  0  7G 4G 5G 6G 9G10G24G30
  23024956.8174    4448834.34846   3372971.39446                  23024965.6814
        18.0004         16.7504
  20702565.0284    -242267.08547   -170521.70047                  20702573.0834
        27.5004         27.0004
  24453729.7164   -2043777.30245  -1483047.58245                  24453745.7634
         7.5004          8.5004
  24135472.7714    4415322.24845   3099497.00645                  24135490.7394
        10.2504         11.5004
  22610896.6224   -2783677.04746  -2087617.30746                  22610909.0604
        18.0004         18.5004
  20851203.8254    1958789.55747   1492435.26547                  20851211.9744
        26.2504         26.5004
  22446096.3174   -2696135.68947  -2025907.87246                  22446105.5914
        22.2504         21.5004
 00  5  1 18 52  0.0010000  0  7G 4G 5G 6G 9G10G24G30
  23035908.8334    4506387.36046   3417817.87246                  23035917.7904
        18.0004         16.7504
  20703185.6464    -239006.03847   -167980.62947                  20703193.6774
        27.7504         27.0004
  24449172.5914   -2067729.53845  -1501711.59945                  24449186.6924
         8.5004          9.7504
  24146237.3104    4471887.87145   3143573.89746                  24146254.6814
        11.5004         12.5004
  22605156.5364   -2813841.19546  -2111121.75346                  22605168.7514
        18.5004         18.5004
  20856810.3724    1988253.09647   1515393.85947                  20856818.4154
        26.5004         26.2504
  22440567.5444   -2725191.00047  -2048548.33946                  22440576.5364
        22.7504         21.5004
 00  5  1 18 52 15.0010000  0  7G 4G 5G 6G 9G10G24G30
  23046871.0524    4563995.45646   3462707.25346                  23046879.9274
        18.2504         16.7504
  20703833.9744    -235599.98848   -165326.57247                  20703841.8764
        28.0004         27.0004
  24444619.2314   -2091653.60745  -1520353.63945                  24444634.3644
         8.2504          9.0004
  24157007.0754    4528483.91045   3187674.50746                  24157025.2674
        11.0004         12.2504
  22599435.5134   -2843904.58146  -2134547.69046                  22599447.9504
        18.0004         19.0004
  20862440.2784    2017838.71447   1538447.57947                  20862448.4624
        26.5004         26.5004
  22435055.3334   -2754157.75447  -2071119.80646                  22435064.3024
        22.7504         21.7504
 00  5  1 18 52 30.0010000  0  7G 4G 5G 6G 9G10G24G30
  23057842.7634    4621651.75746   3507634.20846                  23057851.1814
        18.2504         16.5004
  20704509.2474    -232051.53047   -162561.54647                  20704517.0674
        27.7504         27.0004
  24440070.4424   -2115552.42044  -1538976.00645                  24440086.1384
         7.2504          8.7504
  24167781.7944    4585105.66045   3231795.14146                  24167799.7634
        11.0004         12.0004
  22593732.9034   -2873870.63246  -2157897.77646                  22593745.2124
        18.5004         18.7504
  20868092.4354    2047540.25547   1561591.62947                  20868100.5834
        26.5004         26.7504
  22429559.4034   -2783039.36247  -2093624.92446                  22429568.5954
        22.5004         21.7504
 00  5  1 18 52 45.0010000  0  7G 4G 5G 6G 9G10G24G30
  23068824.1144    4679358.20246   3552600.24246                  23068832.1694
        17.7504         16.7504
  20705212.0604    -228358.17147   -159683.60347                  20705219.9744
        27.7504         26.7504
  24435529.6144   -2139423.53745  -1557576.79245                  24435542.5444
        10.2504         10.2504
  24178563.3884    4641756.83046   3275938.70646                  24178581.1224
        12.2504         12.5004
  22588050.0674   -2903735.99546  -2181169.40746                  22588062.8334
        18.0004         18.7504
  20873766.9814    2077359.66947   1584827.52447                  20873775.2244
        26.2504         26.7504
  22424080.3644   -2811830.22047  -2116059.33246                  22424089.1814
        22.2504         22.0004
 00  5  1 18 53  0.0010000  0  7G 4G 5G 6G 9G10G24G30
  23079813.9584    4737110.03146   3597601.63646                  23079823.1494
        17.2504         16.5004
  20705941.2084    -224526.80747   -156698.13347                  20705949.2744
        27.7504         26.7504
  24430992.0364   -2163274.50145  -1576161.92346                  24431004.5444
        11.2504         12.0004
  24189347.6144    4698432.80245   3320101.60446                  24189365.3604
        11.7504         12.5004
  22582385.1534   -2933504.85346  -2204365.84346                  22582397.3334
        18.2504         18.7504
  20879462.6144    2107291.42947   1608150.96847                  20879470.7744
        26.5004         26.7504
  22418618.4584   -2840534.17447  -2138426.01646                  22418627.6264
        22.7504         21.7504
 00  5  1 18 53 15.0010000  0  7G 4G 5G 6G 9G10G24G30
  23090813.0054    4794910.25346   3642640.73446                  23090821.6924
        17.5004         16.0004
  20706696.8494    -220555.46547   -153603.58647                  20706704.9034
        27.7504         27.0004
  24426455.0214   -2187108.26645  -1594733.60745                  24426469.5914
         8.5004         10.5004
  24200138.0604    4755134.01745   3364284.11846                  24200156.4504
        11.7504         12.7504
  22576738.8644   -2963174.27746  -2227484.79546                  22576751.4544
        18.0004         19.0004
  20885179.7004    2137334.27947   1631560.97647                  20885187.8374
        26.7504         26.7504
  22413172.3334   -2869152.72647  -2160726.14846                  22413181.8414
        22.7504         22.0004
 00  5  1 18 53 30.0010000  0  7G 4G 5G 6G 9G10G24G30
  23101821.2944    4852759.73746   3687718.22246                  23101829.7124
        18.0004         16.5004
  20707479.5364    -216442.52747   -150398.70247                  20707487.2744
        27.2504         26.7504
  24421921.2164   -2210928.31245  -1613294.54945                  24421935.5404
         7.5004          9.2504
  24210933.7244    4811863.80446   3408488.93546                  24210951.4464
        12.0004         12.7504
  22571112.6534   -2992741.32846  -2250523.96846                  22571125.0094
        18.0004         18.7504
  20890917.6924    2167488.16847   1655057.50347                  20890925.8764
        26.7504         27.0004
  22407742.6224   -2897685.85247  -2182959.72346                  22407751.6034
        23.0004         21.7504
 00  5  1 18 53 45.0010000  0  7G 4G 5G 6G 9G10G24G30
  23112838.4744    4910655.22146   3732831.55046                  23112847.9354
        18.0004         16.0004
  20708289.0134    -212188.01647   -147083.50547                  20708296.9854
        27.5004         26.7504
  24417391.2474   -2234737.54945  -1631847.15745                  24417406.5444
         8.0004          9.5004
  24221734.5754    4868623.59145   3452717.15246                  24221752.7784
        11.0004         12.5004
  22565505.3174   -3022207.03146  -2273484.17846                  22565517.4744
        18.2504         18.7504
  20896676.3494    2197749.92447   1678638.08347                  20896684.6494
        27.0004         26.7504
  22402330.1854   -2926128.62847  -2205122.89546                  22402339.1534
        23.0004         22.2504
 00  5  1 18 54  0.0010000  0  7G 4G 5G 6G 9G10G24G30
  23123864.3494    4968595.34346   3777979.66846                  23123873.1184
        17.5004         16.0004
  20709125.6464    -207791.30347   -143657.50247                  20709133.5134
        27.2504         26.5004
  24412862.2634   -2258536.69845  -1650391.85045                  24412877.0444
         8.5004          9.2504
  24232542.2394    4925417.82145   3496972.15846                  24232560.4664
        11.2504         12.2504
  22559917.5054   -3051571.14446  -2296365.21646                  22559929.6964
        18.2504         19.2504
  20902455.6224    2228119.57247   1702302.73647                  20902463.9464
        27.0004         27.0004
  22396936.2084   -2954475.85547  -2227211.61746                  22396944.9194
        23.2504         22.2504
 00  5  1 18 54 15.0010000  0  7G 4G 5G 6G 9G10G24G30
  23134898.4814    5026581.48046   3823163.63546                  23134907.2514
        17.2504         16.2504
  20709989.2474    -203253.01547   -140121.18047                  20709997.1854
        27.2504         26.5004
  24408335.9584   -2282328.13345  -1668930.54445                  24408350.3064
        11.0004         10.7504
  24243356.8104    4982246.18446   3541253.76546                  24243375.1884
        12.0004         12.5004
  22554348.4114   -3080835.05946  -2319168.20346                  22554360.7084
        18.7504         19.2504
  20908255.1694    2258594.77747   1726049.64047                  20908263.4704
        27.0004         27.0004
  22391559.3254   -2982730.76547  -2249228.39846                  22391568.3174
        23.2504         22.2504
 00  5  1 18 54 30.0010000  0  7G 4G 5G 6G 9G10G24G30
  23145942.2784    5084615.40346   3868384.83646                  23145951.0134
        17.7504         16.2504
  20710880.5364    -198569.25647   -136471.50147                  20710888.4744
        27.2504         26.5004
  24403810.7784   -2306108.27745  -1687460.48245                  24403824.0364
        11.2504         11.5004
  24254177.9814    5039112.27345   3585564.79646                  24254195.5284
        11.7504         12.0004
  22548799.8964   -3109993.76046  -2341889.18646                  22548812.1344
        18.2504         19.0004
  20914074.9274    2289179.49547   1749881.88147                  20914083.2044
        26.7504         27.0004
  22386201.1384   -3010887.93647  -2271169.01346                  22386210.1184
        23.2504         22.2504
 00  5  1 18 54 45.0010000  0  7G 4G 5G 6G 9G10G24G30
  23156992.9664    5142688.83046   3913636.82546                  23157002.2514
        17.5004         16.0004
  20711798.2944    -193746.56247   -132713.56947                  20711806.2084
        27.0004         26.2504
  24399284.9424   -2329884.56845  -1705987.40045                  24399297.9664
         8.7504         10.7504
  24265005.9194    5096010.60446   3629900.94446                  24265023.2084
        12.7504         12.5004
  22543269.2944   -3139055.70646  -2364534.77846                  22543281.6734
        18.7504         19.2504
  20919914.9424    2319868.22347   1773795.16447                  20919923.2434
        27.0004         27.0004
  22380861.1064   -3038950.28847  -2293035.75246                  22380870.2044
        23.7504         22.5004
 00  5  1 18 55  0.0010000  0  7G 4G 5G 6G 9G10G24G30
  23168051.7864    5200801.78546   3958919.62446                  23168060.8024
        16.5004         15.7504
  20712741.9814    -188787.62247   -128849.46747                  20712749.8374
        27.0004         26.2504
  24394760.9504   -2353657.26545  -1724511.44645                  24394776.0954
         8.2504         10.0004
  24275839.3884    5152941.07346   3674262.16046                  24275857.1224
        12.7504         13.0004
  22537757.1694   -3168022.26446  -2387106.04146                  22537769.5364
        18.5004         19.0004
  20925774.5914    2350660.87947   1797789.42947                  20925782.8334
        27.0004         27.2504
  22375538.5134   -3066920.58947  -2314830.76446                  22375547.5634
        23.5004         22.5004
 00  5  1 18 55 15.0010000  0  7G 4G 5G 6G 9G10G24G30
  23179118.0994    5258958.07446   4004236.16946                  23179126.6464
        17.0004         15.7504
  20713712.5364    -183687.53247   -124875.37747                  20713720.3564
        27.0004         26.2504
  24390239.8564   -2377421.17745  -1743028.69145                  24390253.8764
        10.0004         10.5004
  24286679.2394    5209905.37645   3718649.69446                  24286697.7244
        11.5004         12.5004
  22532263.3104   -3196892.78746  -2409602.47446                  22532275.2904
        18.5004         19.2504
  20931654.8964    2381562.51047   1821868.61647                  20931663.2554
        27.2504         27.2504
  22370233.6384   -3094795.73247  -2336551.62346                  22370242.6654
        23.5004         22.5004
 00  5  1 18 55 30.0010000  0  7G 4G 5G 6G 9G10G24G30
  23190194.1464    5317158.36046   4049587.01546                  23190203.2204
        18.0004         16.2504
  20714709.9584    -178445.31647   -120790.54347                  20714717.9664
        27.0004         26.5004
  24385719.8644   -2401171.82545  -1761535.61445                  24385732.8884
        10.0004         10.5004
  24297526.8174    5266906.77145   3763066.13246                  24297544.6924
        11.7504         12.0004
  22526787.7784   -3225665.84846  -2432022.96146                  22526799.8994
        18.5004         19.5004
  20937556.1854    2412573.91347   1846033.33347                  20937564.4384
        27.2504         27.5004
  22364948.2474   -3122572.01547  -2358195.45046                  22364957.2164
        23.5004         22.7504
 00  5  1 18 55 45.0010000  0  7G 4G 5G 6G 9G10G24G30
  23201276.9424    5375399.41646   4094969.61646                  23201285.7714
        16.7504         15.5004
  20715733.9894    -173064.61847   -116597.80047                  20715741.8214
        26.7504         26.5004
  24381203.1534   -2424908.49545  -1780031.67145                  24381216.6224
        10.7504         10.5004
  24308379.8964    5323941.67445   3807508.72446                  24308397.9464
        11.7504         12.2504
  22521330.2864   -3254345.04946  -2454370.31246                  22521342.1264
        18.7504         19.5004
  20943477.8254    2443691.45847   1870280.75747                  20943486.2084
        27.2504         27.2504
  22359681.3964   -3150249.65347  -2379762.41046                  22359690.2824
        24.2504         23.0004
 00  5  1 18 56  0.0010000  0  7G 4G 5G 6G 9G10G24G30
  23212367.1774    5433682.63146   4140385.08446                  23212376.4274
        16.2504         16.0004
  20716784.4424    -167544.77747   -112296.63447                  20716792.3924
        26.7504         26.7504
  24376689.7004   -2448625.82945  -1798512.64445                  24376703.9784
         9.7504         11.2504
  24319240.0134    5381008.30745   3851975.98946                  24319257.8644
        11.2504         12.0004
  22515890.9814   -3282928.47446  -2476643.03546                  22515903.0324
        18.7504         19.7504
  20949419.8024    2474916.40347   1894611.87447                  20949428.0094
        27.2504         27.2504
  22354433.2634   -3177828.53147  -2401252.42046                  22354442.4074
        23.7504         22.7504
 00  5  1 18 56 15.0010000  0  7G 4G 5G 6G 9G10G24G30
  23223465.9584    5492007.67746   4185833.12546                  23223474.4114
        16.7504         15.5004
  20717861.0914    -161886.32347   -107887.45447                  20717869.0874
        27.0004         26.2504
  24372179.6304   -2472324.25545  -1816978.84645                  24372194.0014
         9.2504         11.5004
  24330105.1614    5438103.61145   3896465.61245                  24330123.5524
        11.7504         11.7504
  22510469.9194   -3311416.52146  -2498841.43646                  22510481.9584
        18.7504         19.5004
  20955381.9034    2506248.14347   1919026.20647                  20955390.0994
        27.2504         27.2504
  22349202.4974   -3205315.72747  -2422670.98046                  22349211.7944
        24.0004         23.0004
 00  5  1 18 56 30.0010000  0  7G 4G 5G 6G 9G10G24G30
  23234573.5674    5550374.72646   4231313.90546                  23234583.4854
        16.2504         15.2504
  20718965.1774    -156086.22547   -103367.90847                  20718973.2204
        27.0004         27.0004
  24367674.4974   -2496000.99345  -1835428.12845                  24367688.5054
         9.5004         11.2504
  24340974.4194    5495226.40245   3940976.66445                  24340992.5994
        11.2504         11.7504
  22505067.2084   -3339807.42746  -2520964.13646                  22505079.3884
        19.2504         20.0004
  20961364.0054    2537684.04347   1943521.70247                  20961372.1534
        27.0004         27.2504
  22343989.2084   -3232712.10847  -2444018.78346                  22343998.1184
        24.2504         22.7504
 00  5  1 18 56 45.0010000  0  7G 4G 5G 6G 9G10G24G30
  23245688.0214    5608783.32646   4276827.07746                  23245697.8214
        14.7504         15.2504
  20720095.7314    -150143.61347    -98737.31147                  20720103.7394
        27.2504         26.7504
  24363173.1534   -2519654.82845  -1853859.62445                  24363186.4354
        10.2504         11.0004
  24351850.5834    5552376.71245   3985509.15546                  24351868.3764
        10.5004         12.0004
  22499683.4034   -3368099.83746  -2543010.09946                  22499695.7824
        19.2504         19.7504
  20967365.6064    2569222.10747   1968096.80347                  20967373.9424
        27.0004         27.2504
  22338793.7164   -3260013.44247  -2465292.52746                  22338802.3564
        24.2504         23.2504
 00  5  1 18 57  0.0010000  0  7G 4G 5G 6G 9G10G24G30
  23256811.1774    5667238.12946   4322376.22746                  23256820.7084
        15.2504         15.5004
  20721253.5284    -144059.12847    -93996.16647                  20721261.6884
        27.2504         26.7504
  24358676.1534   -2543285.44545  -1872273.01345                  24358689.4584
        10.5004         10.7504
  24362731.6304    5609554.34445   4030062.90345                  24362749.4584
        11.2504         11.7504
  22494318.6064   -3396291.77546  -2564977.76246                  22494331.0674
        19.2504         20.2504
  20973386.4664    2600863.29547   1992752.26247                  20973395.0134
        26.7504         27.0004
  22333616.5754   -3287219.24147  -2486491.81946                  22333625.3924
        24.7504         23.5004
 00  5  1 18 57 15.0010000  0  7G 4G 5G 6G 9G10G24G30
  23267944.4114    5725740.14746   4367962.18546                  23267954.2124
        16.5004         15.5004
  20722439.1774    -137829.85347    -89142.19347                  20722447.4194
        27.2504         27.0004
  24354183.5284   -2566891.76745  -1890667.48245                  24354197.9584
        10.0004         10.7504
  24373616.8804    5666758.35645   4074637.24845                  24373634.9664
        10.7504         11.5004
  22488973.3884   -3424380.31946  -2586864.86146                  22488985.6384
        19.0004         20.2504
  20979427.5214    2632608.11147   2017488.47447                  20979435.8334
        26.7504         27.0004
  22328457.9114   -3314328.24347  -2507615.69146                  22328466.5994
        24.2504         23.0004
 00  5  1 18 57 30.0010000  0  7G 4G 5G 6G 9G10G24G30
  23279086.2634    5784290.11146   4413585.48646                  23279095.7824
        16.0004         15.0004
  20723652.2474    -131455.14047    -84174.89847                  20723660.2784
        27.7504         27.2504
  24349695.7244   -2590474.00545  -1909043.16245                  24349710.4584
         9.0004         10.5004
  24384506.9744    5723986.84545   4119230.67445                  24384525.4584
        10.0004         10.7504
  22483648.3174   -3452363.30546  -2608669.70446                  22483660.6494
        19.2504         20.5004
  20985487.7314    2664455.43447   2042304.55847                  20985496.2084
        26.7504         27.0004
  22323317.8104   -3341338.71247  -2528662.78646                  22323326.3684
        24.7504         23.0004
 00  5  1 18 57 45.0010000  0  7G 4G 5G 6G 9G10G24G30
  23290237.5054    5842891.61146   4459248.97346                  23290247.2354
        15.0004         15.5004
  20724893.8494    -124929.94047    -79090.34047                  20724901.9744
        27.7504         27.5004
  24345213.6924   -2614029.80045  -1927398.23645                  24345228.1694
         9.2504         10.0004
  24395403.2784    5781242.33745   4163845.11745                  24395421.9154
        10.5004         11.7504
  22478344.3414   -3480236.68946  -2630389.15946                  22478356.6264
        19.2504         20.0004
  20991568.1614    2696408.57047   2067203.09347                  20991576.6264
        26.7504         27.0004
  22318197.1464   -3368249.30847  -2549632.05946                  22318205.7514
        24.5004         23.5004
 00  5  1 18 58  0.0010000  0  7G 4G 5G 6G 9G10G24G30
  23301398.2314    5901539.35746   4504948.47346                  23301407.2714
        15.7504         15.2504
  20726163.5754    -118257.99147    -73891.43247                  20726171.6304
        27.7504         27.2504
  24340735.4974   -2637563.78745  -1945736.30145                  24340749.4934
        10.0004         10.7504
  24406302.1694    5838519.61445   4208476.50945                  24406321.7084
         9.7504         11.2504
  22473059.8104   -3508005.60346  -2652027.19546                  22473071.9314
        19.2504         20.2504
  20997668.1464    2728464.62647   2092181.82947                  20997676.6104
        27.0004         27.0004
  22313094.3414   -3395064.65247  -2570527.10446                  22313102.8644
        25.0004         23.2504
 00  5  1 18 58 15.0010000  0  7G 4G 5G 6G 9G10G24G30
  23312567.1064    5960231.19246   4550682.32846                  23312576.9314
        16.0004         15.2504
  20727460.7164    -111440.29347    -68578.95047                  20727468.8994
        27.7504         27.2504
  24336260.6924   -2661078.69045  -1964059.53745                  24336275.2394
        10.7504         11.5004
  24417206.0524    5895820.65445   4253126.45645                  24417225.4974
         8.7504         10.5004
  22467795.7714   -3535668.61846  -2673582.71346                  22467807.6694
        19.5004         20.5004
  21003787.9504    2760624.16047   2117241.19347                  21003796.3564
        26.7504         27.0004
  22308009.9744   -3421784.14647  -2591347.46646                  22308018.4974
        25.0004         23.5004
 00  5  1 18 58 30.0010000  0  7G 4G 5G 6G 9G10G24G30
  23323744.3964    6018968.60546   4596451.71946                  23323753.5054
        15.0004         14.7504
  20728786.7394    -104472.18147    -63149.26447                  20728795.0174
        27.5004         27.0004
  24331789.8644   -2684572.63745  -1982366.42445                  24331804.2354
        10.7504         11.0004
  24428116.3724    5953149.66045   4297798.17345                  24428134.3764
        10.0004         10.5004
  22462552.3254   -3563221.35746  -2695052.30946                  22462564.1184
        19.2504         20.5004
  21009928.1224    2792890.63747   2142383.89147                  21009936.4234
        26.7504         27.0004
  22302944.3334   -3448403.00547  -2612089.41046                  22302952.9744
        24.7504         23.5004
 00  5  1 18 58 45.0010000  0  7G 4G 5G 6G 9G10G24G30
  23334930.0604    6077752.82446   4642257.55846                  23334939.2044
        15.7504         15.0004
  20730140.8644     -97356.62447    -57604.68847                  20730149.1304
        27.5004         27.5004
  24327322.7004   -2708046.61945  -2000657.76045                  24327336.7084
         9.2504         10.5004
  24439030.7084    6010504.03545   4342489.68745                  24439049.6144
         9.7504         10.7504
  22457330.8564   -3590661.53046  -2716434.18346                  22457342.7434
        19.5004         20.5004
  21016088.4814    2825263.64647   2167609.60047                  21016096.6884
        26.7504         27.0004
  22297898.6694   -3474917.66247  -2632750.16046                  22297907.2744
        25.0004         23.5004
 00  5  1 18 59  0.0010000  0  7G 4G 5G 6G 9G10G24G30
  23346124.9814    6136582.59746   4688098.90046                  23346134.8414
        16.0004         15.0004
  20731521.6924     -90099.94147    -51950.14247                  20731529.7714
        27.7504         27.5004
  24322859.0834   -2731504.06045  -2018936.18245                  24322872.6574
        10.5004         10.5004
  24449948.8254    6067881.47045   4387199.15145                  24449967.6614
         9.0004         10.5004
  22452130.5364   -3617989.77746  -2737728.84546                  22452142.5404
        19.5004         21.0004
  21022269.6304    2857745.31647   2192919.98547                  21022277.9194
        26.7504         26.7504
  22292872.5914   -3501330.04747  -2653331.21646                  22292881.3134
        24.7504         23.2504
 00  5  1 18 59 15.0010000  0  7G 4G 5G 6G 9G10G24G30
  23357328.1694    6195454.76846   4733973.28446                  23357337.3724
        14.5004         15.0004
  20732929.4744     -82702.03647    -46185.55847                  20732937.5054
        27.7504         27.2504
  24318398.1224   -2754946.44345  -2037202.90545                  24318410.5604
        11.2504         11.5004
  24460872.0284    6125279.41245   4431924.57245                  24460891.1574
         9.2504         10.7504
  22446951.5054   -3645206.34646  -2758936.48746                  22446963.4974
        19.7504         21.0004
  21028471.3104    2890336.04947   2218315.34947                  21028479.6924
        26.7504         26.7504
  22287865.1304   -3527643.63247  -2673835.28546                  22287873.9114
        25.0004         23.2504
 00  5  1 18 59 30.0010000  0  7G 4G 5G 6G 9G10G24G30
  23368538.3494    6254366.82846   4779878.76046                  23368547.5874
        15.0004         15.0004
  20734364.6304     -75160.68547    -40309.19047                  20734372.7784
        27.5004         27.5004
  24313940.1924   -2778372.34845  -2055456.78845                  24313953.0994
        11.5004         11.2504
  24471798.5754    6182698.36545   4476666.40145                  24471817.0134
         9.0004         10.5004
  22441793.2634   -3672310.80246  -2780056.76946                  22441805.3134
        19.7504         21.2504
  21034693.7784    2923034.95747   2243795.00747                  21034702.1614
        26.7504         26.7504
  22282876.7784   -3553857.67347  -2694261.78046                  22282885.4544
        25.2504         23.5004
 00  5  1 18 59 45.0010000  0  7G 4G 5G 6G 9G10G24G30
  23379756.9424    6313315.93746   4825813.07346                  23379765.9704
        16.2504         15.0004
  20735826.5524     -67478.53147    -34323.11247                  20735834.7714
        27.5004         27.2504
  24309485.7164   -2801781.24545  -2073697.41745                  24309498.5054
        11.7504         11.7504
  24482729.0444    6240138.95545   4521425.06445                  24482747.3294
         8.2504         10.2504
  22436656.8104   -3699303.65946  -2801090.09346                  22436668.7784
        19.5004         20.5004
  21040936.3884    2955839.92647   2269357.30847                  21040944.6884
        26.7504         26.7504
  22277907.1064   -3579974.64447  -2714612.64746                  22277915.7124
        25.2504         23.5004
 00  5  1 19  0  0.0010000  0  7G 4G 5G 6G 9G10G24G30
  23390980.7244    6372298.35646   4871773.36646                  23390989.9744
        15.7504         15.2504
  20737314.9114     -59657.09447    -28228.50247                  20737323.1774
        27.5004         27.5004
  24305033.6384   -2825172.68545  -2091924.46645                  24305046.6144
         9.7504         11.5004
  24493664.4584    6297602.45845   4566201.59145                  24493682.4854
         9.5004          9.7504
  22431541.3494   -3726184.47746  -2822036.11246                  22431553.2594
        19.5004         20.7504
  21047199.1144    2988750.58647   2295001.96747                  21047207.3564
        26.7504         26.5004
  22272955.5444   -3605994.11647  -2734887.53646                  22272964.1384
        25.0004         23.2504
 00  5  1 19  0 15.0010000  0  7G 4G 5G 6G 9G10G24G30
  23402210.2634    6431310.81046   4917757.05146                  23402220.1694
        15.2504         15.0004
  20738829.4354     -51698.69647    -22027.16647                  20738837.6304
        27.5004         27.0004
  24300585.9974   -2848546.80945  -2110137.93145                  24300599.8994
        10.5004         11.5004
  24504603.2554    6355087.37545   4610994.84545                  24504621.6814
         9.2504         10.2504
  22426447.8334   -3752950.79046  -2842892.90146                  22426459.8254
        19.5004         21.0004
  21053481.6144    3021765.10147   2320727.55447                  21053489.7744
        26.7504         26.7504
  22268022.6534   -3631916.39747  -2755086.68746                  22268031.3294
        25.5004         23.5004
 00  5  1 19  0 30.0010000  0  7G 4G 5G 6G 9G10G24G30
  23413446.2634    6490354.38746   4963765.00546                  23413455.4784
        16.5004         15.2504
  20740369.9424     -43602.21647    -15718.22947                  20740378.1854
        27.2504         27.2504
  24296141.3104   -2871903.68245  -2128338.03445                  24296154.2284
        11.2504         11.7504
  24515545.7314    6412589.95545   4655801.82045                  24515565.2824
         8.0004         10.2504
  22421375.9974   -3779602.17846  -2863660.14546                  22421387.8724
        19.7504         21.2504
  21059783.6854    3054884.03247   2346534.50847                  21059791.9274
        27.0004         26.7504
  22263108.1144   -3657742.18347  -2775210.65246                  22263116.7204
        25.2504         23.5004
 00  5  1 19  0 45.0010000  0  7G 4G 5G 6G 9G10G24G30
  23424687.8024    6549431.37346   5009798.96746                  23424696.7824
        15.2504         14.5004
  20741936.9584     -35367.84047     -9301.84747                  20741945.1184
        27.5004         27.2504
  24291700.0444   -2895243.04745  -2146524.48446                  24291713.2674
        11.2504         12.0004
  24526491.0444    6470105.30445   4700618.70145                  24526510.7244
         9.0004         10.0004
  22416325.8804   -3806141.02946  -2884339.69746                  22416337.4154
        19.5004         20.7504
  21066105.6064    3088105.04647   2372421.00347                  21066113.9314
        26.7504         26.5004
  22258211.9744   -3683472.43347  -2795260.17246                  22258220.5674
        25.2504         23.5004
 00  5  1 19  1  0.0010000  0  7G 4G 5G 6G 9G10G24G30
  23435937.1064    6608543.07946   5055860.01046                  23435947.4354
        15.5004         14.7504
  20743530.8884     -26993.54047     -2776.43847                  20743539.0014
        27.5004         27.5004
  24287261.8494   -2918561.68145  -2164694.77845                  24287275.7864
        10.0004         11.2504
  24537438.3414    6527634.26345   4745446.23245                  24537456.5794
         9.2504         10.7504
  22411297.1694   -3832568.00246  -2904932.07346                  22411309.3374
        19.5004         20.7504
  21072447.6384    3121431.40147   2398389.57447                  21072455.7864
        26.7504         26.5004
  22253334.0754   -3709106.01547  -2815234.36846                  22253342.9744
        24.7504         23.5004
 00  5  1 19  1 15.0010000  0  7G 4G 5G 6G 9G10G24G30
  23447191.3494    6667687.75846   5101946.70946                  23447200.3994
        15.7504         14.5004
  20745151.8414     -18474.35747      3861.87547                  20745159.9424
        27.7504         27.2504
  24282828.6144   -2941857.50145  -2182847.26445                  24282841.7674
        10.5004         11.2504
  24548389.3564    6585178.01945   4790285.33345                  24548407.4424
         9.2504          9.7504
  22406289.4354   -3858883.28046  -2925437.41146                  22406301.0174
        19.5004         21.0004
  21078809.6694    3154864.52647   2424441.35147                  21078817.9354
        26.5004         26.5004
  22248474.1464   -3734643.74747  -2835133.87146                  22248482.6694
        25.2504         23.5004
 00  5  1 19  1 30.0010000  0  7G 4G 5G 6G 9G10G24G30
  23458451.8174    6726860.66946   5148055.44646                  23458461.9934
        15.0004         14.7504
  20746800.5214      -9810.15747     10613.19147                  20746808.8454
        27.7504         27.2504
  24278400.0134   -2965134.63745  -2200985.23245                  24278413.4354
        11.2504         11.5004
  24559341.7714    6642732.20345   4835132.52145                  24559361.3804
         9.2504         10.2504
  22401301.8804   -3885092.45846  -2945860.07246                  22401313.4274
        19.5004         21.0004
  21085190.5914    3188398.35947   2450571.60147                  21085198.6924
        27.0004         26.7504
  22243632.2634   -3760088.43847  -2854960.88146                  22243640.4814
        25.7504         23.5004
 00  5  1 19  1 45.0010000  0  7G 4G 5G 6G 9G10G24G30
  23469717.8644    6786062.78246   5194186.91246                  23469726.8564
        15.7504         14.7504
  20748476.8414      -1001.69047     17476.91647                  20748485.0014
        27.7504         27.2504
  24273974.5914   -2988391.33946  -2219107.28446                  24273987.2044
        12.0004         12.0004
  24570295.7474    6700298.87345   4879989.45345                  24570316.1184
         8.7504         10.7504
  22396334.6064   -3911194.88146  -2966199.54846                  22396346.4814
        19.7504         21.2504
  21091591.3964    3222033.70147   2476780.94847                  21091599.6264
        27.0004         26.7504
  22238808.7864   -3785436.67547  -2874712.73146                  22238817.5214
        25.5004         23.5004
 00  5  1 19  2  0.0010000  0  7G 4G 5G 6G 9G10G24G30
  23480989.3024    6845296.96846   5240343.37046                  23480999.0674
        15.7504         15.0004
  20750180.8414       7953.57547     24455.03347                  20750189.0364
        27.7504         27.2504
  24269552.1304   -3011629.74445  -2237215.07446                  24269565.4704
        11.2504         12.2504
  24581253.8494    6757877.78745   4924855.88745                  24581273.7864
         8.5004         10.5004
  22391388.0524   -3937189.91946  -2986455.35446                  22391399.5174
        19.7504         21.0004
  21098011.7474    3255772.92647   2503071.24547                  21098019.9314
        26.7504         26.7504
  22234004.0444   -3810685.24547  -2894386.91746                  22234012.5794
        25.0004         23.7504
 00  5  1 19  2 15.0010000  0  7G 4G 5G 6G 9G10G24G30
  23492268.1304    6904564.58846   5286525.90146                  23492276.8064
        14.7504         13.7504
  20751913.6064      17058.47847     31549.74947                  20751921.6264
        27.7504         27.2504
  24265132.7394   -3034852.62945  -2255310.74845                  24265147.5794
         9.7504         11.5004
  24592212.0444    6815465.65645   4969729.32445                  24592231.3964
         9.5004         10.5004
  22386461.5284   -3963078.20146  -3006627.97046                  22386472.8064
        19.7504         21.2504
  21104451.7714    3289614.56247   2529441.34147                  21104459.9074
        27.0004         27.0004
  22229218.5604   -3835832.98147  -2913982.53246                  22229227.0014
        26.0004         23.5004
 00  5  1 19  2 30.0010000  0  7G 4G 5G 6G 9G10G24G30
  23503551.9114    6963864.94946   5332733.92946                  23503561.7354
        15.2504         14.5004
  20753674.8644      26314.10147     38761.91247                  20753683.1184
        27.7504         27.2504
  24260715.4114   -3058064.27545  -2273397.65045                  24260731.0714
         9.7504         11.2504
  24603171.8884    6873059.65345   5014607.54345                  24603189.7634
         9.5004         10.2504
  22381554.7634   -3988863.11147  -3026720.03346                  22381566.0404
        20.2504         21.7504
  21110910.4114    3323554.86047   2555888.31147                  21110918.5484
        27.0004         27.0004
  22224452.5754   -3860879.24247  -2933499.08146                  22224461.0054
        25.5004         23.7504
 00  5  1 19  2 45.0010000  0  7G 4G 5G 6G 9G10G24G30
  23514843.2244    7023200.03346   5378969.00846                  23514852.2864
        15.2504         14.2504
  20755465.2634      35723.48547     46093.88747                  20755473.5174
        27.7504         27.2504
  24256301.0604   -3081262.21045  -2291473.87845                  24256314.7514
        11.0004         11.7504
  24614133.7314    6930664.83745   5059494.46445                  24614153.5404
         9.0004         10.5004
  22376668.3964   -4014540.75647  -3046728.52146                  22376679.8494
        20.2504         21.5004
  21117387.7714    3357593.98347   2582412.29447                  21117395.9544
        27.0004         26.7504
  22219706.7084   -3885818.65847  -2952932.37346                  22219715.2434
        25.7504         23.7504
 00  5  1 19  3  0.0010000  0  7G 4G 5G 6G 9G10G24G30
  23526139.2394    7082559.40246   5425223.03946                  23526149.4504
        14.0004         13.7504
  20757283.9274      45280.21947     53540.68047                  20757292.1924
        27.7504         27.0004
  24251888.8564   -3104452.18745  -2309543.95346                  24251901.7044
        11.5004         12.5004
  24625097.7084    6988276.69245   5104386.59545                  24625117.1424
         9.5004         10.5004
  22371801.3104   -4040117.45647  -3066658.34746                  22371812.8454
        20.5004         21.5004
  21123882.4744    3391724.59747   2609007.56447                  21123890.5994
        27.0004         26.7504
  22214979.9354   -3910656.67447  -2972286.64546                  22214988.3174
        25.5004         23.5004
 00  5  1 19  3 15.0010000  0  7G 4G 5G 6G 9G10G24G30
  23537439.7244    7141946.69246   5471498.80446                  23537448.8564
        14.5004         13.7504
  20759131.6384      54988.82947     61105.81647                  20759139.9624
        27.7504         27.0004
  24247477.9894   -3127629.46945  -2327604.12145                  24247491.1424
        10.2504         11.7504
  24636063.8804    7045903.02345   5149290.02145                  24636083.1034
         9.7504         11.0004
  22366955.0444   -4065585.40947  -3086503.43346                  22366966.3564
        20.5004         21.2504
  21130395.4664    3425949.67947   2635676.44947                  21130403.4154
        27.0004         27.0004
  22210273.7784   -3935388.27347  -2991558.00246                  22210282.2434
        25.2504         23.7504
 00  5  1 19  3 30.0010000  0  7G 4G 5G 6G 9G10G24G30
  23548747.1384    7201364.40546   5517798.27146                  23548757.1264
        14.5004         13.5004
  20761007.8964      64849.98147     68789.81847                  20761016.1734
        27.7504         27.2504
  24243068.9194   -3150793.41845  -2345653.87945                  24243082.8454
         9.5004         11.2504
  24647033.1064    7103544.62045   5194205.32145                  24647052.6574
         9.2504         10.7504
  22362129.5914   -4090942.17347  -3106261.88146                  22362140.9744
        21.0004         21.7504
  21136925.8644    3460266.78847   2662417.04347                  21136933.9424
        26.7504         27.0004
  22205588.4744   -3960008.96847  -3010742.94246                  22205596.8564
        25.2504         23.7504
 00  5  1 19  3 45.0010000  0  7G 4G 5G 6G 9G10G24G30
  23560060.0214    7260815.99246   5564124.14046                  23560069.5174
        13.2504         13.0004
  20762912.9034      74861.33447     76590.85947                  20762921.3564
        27.5004         27.2504
  24238664.6774   -3173941.50545  -2363691.24145                  24238679.7284
        10.0004         11.0004
  24658005.5364    7161205.52145   5239135.62045                  24658025.8844
        10.0004         11.2504
  22357325.8104   -4116185.97047  -3125932.29846                  22357337.0054
        21.2504         22.0004
  21143473.5364    3494676.28947   2689229.62947                  21143481.7904
        26.7504         26.7504
  22200925.3724   -3984514.73947  -3029838.32346                  22200934.0834
        25.2504         23.7504
 00  5  1 19  4  0.0010000  0  7G 4G 5G 6G 9G10G24G30
  23571379.7244    7320302.25146   5610477.02046                  23571390.0634
        14.0004         13.5004
  20764846.2784      85020.31947     84506.94247                  20764854.6034
        27.5004         27.2504
  24234263.3884   -3197073.20845  -2381715.87946                  24234276.1534
        11.7504         12.0004
  24668981.7944    7218885.79345   5284081.08545                  24669001.0524
         9.7504         10.7504
  22352543.4744   -4141316.89647  -3145514.77146                  22352554.8104
        21.0004         22.0004
  21150039.3414    3529178.20047   2716114.22647                  21150047.5364
        27.0004         26.7504
  22196283.2084   -4008908.11047  -3048846.12446                  22196291.8724
        25.5004         23.7504
 00  5  1 19  4 15.0010000  0  7G 4G 5G 6G 9G10G24G30
  23582706.5284    7379821.12846   5656855.33246                  23582716.4934
        14.0004         13.0004
  20766806.9664      95324.75447     92536.35547                  20766815.3134
        27.7504         27.5004
  24229864.2784   -3220189.05045  -2399728.18046                  24229876.7044
        11.5004         12.2504
  24679960.8564    7276582.02145   5329038.96245                  24679979.1064
         9.2504         10.2504
  22347782.7714   -4166334.63647  -3165009.04146                  22347794.2474
        21.2504         22.2504
  21156621.7944    3563769.46647   2743068.45047                  21156629.8604
        26.7504         26.7504
  22191662.3024   -4033191.51347  -3067768.23746                  22191670.9194
        25.5004         24.2504
 00  5  1 19  4 30.0010000  0  7G 4G 5G 6G 9G10G24G30
  23594038.0914    7439371.50246   5703258.17846                  23594048.6654
        13.0004         13.2504
  20768794.8564     105770.57947    100675.94847                  20768803.2634
        27.7504         27.5004
  24225468.6304   -3243285.23445  -2417725.14845                  24225482.2864
        10.0004         11.2504
  24690944.0214    7334296.12845   5374010.75545                  24690963.6304
        10.5004         11.0004
  22343043.8644   -4191237.92247  -3184414.12946                  22343054.9664
        21.2504         22.0004
  21163221.2634    3598449.32447   2770091.70347                  21163229.6104
        27.2504         27.2504
  22187061.7944   -4057367.52247  -3086606.66246                  22187070.3294
        25.2504         24.0004
 00  5  1 19  4 45.0010000  0  7G 4G 5G 6G 9G10G24G30
  23605374.7944    7498948.00746   5749681.38146                  23605385.0524
        13.5004         13.5004
  20770807.9744     116349.46848    108919.22547                  20770816.3334
        28.0004         27.5004
  24221076.2314   -3266364.61745  -2435709.02645                  24221089.5604
         9.5004         11.0004
  24701929.8104    7392025.70445   5418994.61845                  24701949.3724
        10.5004         11.7504
  22338325.8414   -4216030.82647  -3203733.20846                  22338337.0604
        21.5004         22.0004
  21169837.2164    3633217.04147   2797183.41947                  21169845.6344
        27.0004         27.2504
  22182480.5994   -4081441.71747  -3105365.75346                  22182489.4384
        25.7504         23.7504
 00  5  1 19  5  0.0010000  0  7G 4G 5G 6G 9G10G24G30
  23616719.2864    7558557.44146   5796130.24146                  23616729.7434
        13.0004         13.0004
  20772847.0284     127064.74148    117268.77747                  20772855.4584
        28.0004         27.5004
  24216689.3254   -3289419.75645  -2453673.97045                  24216702.2674
        10.7504         11.0004
  24712919.1384    7449774.73045   5463993.62945                  24712939.4154
         9.2504         11.2504
  22333629.5754   -4240709.89447  -3222963.57746                  22333640.7124
        21.2504         22.2504
  21176470.8964    3668078.29347   2824348.02247                  21176479.2554
        26.7504         27.0004
  22177918.9034   -4105413.11047  -3124044.74746                  22177927.5564
        26.0004         24.0004
 00  5  1 19  5 15.0010000  0  7G 4G 5G 6G 9G10G24G30
  23628069.3494    7618205.23346   5842608.98746                  23628079.0214
        13.5004         12.2504
  20774912.4034     137917.47648    125725.44047                  20774920.7044
        28.0004         27.7504
  24212306.6774   -3312450.81945  -2471620.19745                  24212319.5014
        11.0004         11.0004
  24723912.3804    7507542.21845   5509006.99245                  24723932.2714
         9.7504         11.0004
  22328955.0674   -4265274.29247  -3242104.59846                  22328966.2634
        21.0004         22.0004
  21183123.0834    3703034.56247   2851586.66347                  21183131.4074
        27.0004         27.2504
  22173376.8644   -4129282.06947  -3142643.91846                  22173385.4934
        25.5004         24.5004
 00  5  1 19  5 30.0010000  0  7G 4G 5G 6G 9G10G24G30
  23639427.2784    7677889.92146   5889116.49446                  23639438.0524
        13.7504         13.2504
  20777003.3414     148905.49148    134287.51747                  20777011.5954
        28.2504         27.7504
  24207927.6304   -3335464.88545  -2489553.18845                  24207939.8684
        10.5004         10.5004
  24734907.9424    7565326.39745   5554033.42645                  24734926.3564
        10.5004         11.2504
  22324301.4034   -4289727.42047  -3261158.91646                  22324312.6924
        21.2504         22.0004
  21189792.3024    3738081.31047   2878895.80947                  21189800.6494
        26.7504         27.2504
  22168853.4894   -4153051.90047  -3161165.84446                  22168862.0714
        25.7504         24.0004
 00  5  1 19  5 45.0010000  0  7G 4G 5G 6G 9G10G24G30
  23650790.9194    7737610.54646   5935652.00546                  23650800.6734
        12.5004         12.7504
  20779120.6694     160031.78648    142957.34647                  20779129.0054
        28.5004         27.7504
  24203550.6854   -3358463.41545  -2507474.08245                  24203563.5214
        10.5004         11.0004
  24745907.7244    7623128.71645   5599073.95045                  24745927.9894
         9.7504         10.7504
  22319669.4584   -4314068.95447  -3280126.27646                  22319680.7594
        21.2504         22.2504
  21196479.1144    3773221.43447   2906277.71247                  21196487.4274
        26.7504         27.2504
  22164349.3494   -4176722.02647  -3179610.08646                  22164357.9894
        25.5004         24.2504
 00  5  1 19  6  0.0010000  0  7G 4G 5G 6G 9G10G24G30
  23662161.9814    7797364.11646   5982213.17446                  23662171.3134
        13.2504         13.0004
  20781264.2944     171297.32348    151735.67547                  20781272.5484
        28.5004         27.7504
  24199176.4354   -3381448.80345  -2525384.69045                  24199189.3294
        10.7504         11.2504
  24756910.6384    7680947.48245   5644127.29245                  24756930.1424
         9.7504         10.2504
  22315058.8884   -4338297.38447  -3299005.50746                  22315070.1884
        21.2504         22.0004
  21203183.9114    3808454.87647   2933732.32847                  21203192.3884
        26.5004         27.2504
  22159863.0604   -4200297.00847  -3197980.18546                  22159871.5604
        26.0004         24.5004
 00  5  1 19  6 15.0010000  0  7G 4G 5G 6G 9G10G24G30
  23673538.5994    7857146.30446   6028796.64546                  23673548.0714
        13.0004         12.7504
  20783434.5994     182702.85248    160623.08847                  20783442.6654
        28.5004         27.7504
  24194804.5444   -3404426.50545  -2543289.33046                  24194818.1654
        11.2504         12.0004
  24767914.5834    7738774.12745   5689186.81345                  24767934.5674
        10.0004         10.2504
  22310469.5834   -4362413.86847  -3317797.50346                  22310480.5914
        21.2504         22.2504
  21209905.1924    3843776.23047   2961255.45347                  21209913.6694
        26.7504         27.2504
  22155394.3334   -4223780.63847  -3216279.10146                  22155403.1144
        26.0004         24.5004
 00  5  1 19  6 30.0010000  0  7G 4G 5G 6G 9G10G24G30
  23684920.0674    7916959.98746   6075404.68646                  23684929.9154
        12.7504         13.0004
  20785632.9114     194254.50948    169624.37047                  20785641.0484
        28.5004         27.5004
  24190433.4274   -3427395.06245  -2561186.84646                  24190446.5214
        11.2504         12.0004
  24778920.3104    7796610.93445   5734254.23045                  24778940.1534
         9.2504         10.5004
  22305902.1384   -4386415.82947  -3336500.26246                  22305913.4274
        21.2504         22.2504
  21216643.7944    3879186.84347   2988848.13247                  21216652.1424
        26.7504         27.5004
  22150943.7394   -4247168.75947  -3234503.59146                  22150952.3804
        26.0004         24.5004
 00  5  1 19  6 45.0010000  0  7G 4G 5G 6G 9G10G24G30
  23696309.3564    7976805.51546   6122037.49646                  23696319.0174
        14.0004         13.0004
  20787859.4664     205954.85348    178741.50647                  20787867.5324
        28.2504         27.5004
  24186064.0754   -3450356.44145  -2579078.76145                  24186076.0564
        10.2504         11.2504
  24789929.0444    7854458.95645   5779330.35645                  24789949.5914
         9.2504         10.7504
  22301355.9664   -4410306.15947  -3355116.03246                  22301367.3134
        21.2504         22.5004
  21223399.5444    3914688.75447   3016511.94647                  21223408.1734
        26.7504         27.5004
  22146511.3724   -4270459.74647  -3252652.39446                  22146519.9074
        26.5004         24.7504
 00  5  1 19  7  0.0010000  0  7G 4G 5G 6G 9G10G24G30
  23707703.6064    8036684.54546   6168696.44446                  23707714.0284
        12.7504         13.0004
  20790115.2634     217808.88648    187978.40547                  20790123.3884
        28.2504         27.7504
  24181695.9894   -3473309.55845  -2596964.25745                  24181708.1464
        10.2504         10.5004
  24800939.1534    7912315.07645   5824412.80345                  24800958.6574
         9.7504         10.7504
  22296831.1384   -4434083.64947  -3373643.87646                  22296842.1104
        21.5004         22.5004
  21230172.5284    3950281.85547   3044246.82347                  21230181.0634
        26.5004         27.5004
  22142098.8564   -4293648.71247  -3270721.71046                  22142107.3214
        26.0004         24.5004
 00  5  1 19  7 15.0010000  0  7G 4G 5G 6G 9G10G24G30
  23719104.3724    8096598.18646   6215382.35046                  23719114.1384
        13.5004         13.2504
  20792400.6694     229819.14448    197337.03647                  20792408.8174
        28.2504         27.7504
  24177329.7164   -3496255.14845  -2614843.88745                  24177342.3644
        10.7504         11.0004
  24811950.0914    7970179.41045   5869501.68345                  24811969.6774
         9.2504         10.2504
  22292328.8024   -4457744.11047  -3392080.53346                  22292339.9274
        21.5004         22.5004
  21236963.0054    3985964.60447   3072051.55147                  21236971.7634
        26.2504         27.5004
  22137706.0834   -4316732.39147  -3288708.96546                  22137714.6534
        26.5004         24.7504
 00  5  1 19  7 30.0010000  0  7G 4G 5G 6G 9G10G24G30
  23730511.7314    8156539.65046   6262089.94946                  23730521.5564
        13.5004         13.2504
  20794715.6224     241983.24648    206815.54347                  20794723.8764
        28.2504         27.5004
  24172963.9034   -3519198.11645  -2632721.46746                  24172976.8454
        11.0004         14.5004
  24822962.5364    8028050.25945   5914595.63545                  24822983.4034
         8.5004         10.0004
  22287848.0214   -4481290.07747  -3410427.97346                  22287859.2744
        21.7504         22.5004
  21243769.8964    4021735.49947   3099924.96447                  21243778.7594
        26.2504         27.5004
  22133333.3964   -4339711.26847  -3306614.57747                  22133342.3064
        26.5004         25.7504
 00  5  1 19  7 45.0010000  0  7G 4G 5G 6G 9G10G24G30
  23741922.8024    8216507.51146   6308818.10746                  23741932.4384
        14.0004         13.0004
  20797059.7474     254303.51048    216415.73647                  20797068.0364
        28.2504         27.5004
  24168598.9974   -3542131.88745  -2650591.80845                  24168613.6734
        10.2504         11.7504
  24833977.1694    8085927.96745   5959694.89045                  24833998.1654
         9.2504         11.0004
  22283389.7084   -4504718.82647  -3428684.07146                  22283400.8334
        21.7504         22.7504
  21250594.2474    4057597.99547   3127869.75947                  21250602.9704
        26.2504         27.7504
  22128981.0444   -4362581.70647  -3324435.67646                  22128989.6384
        26.5004         25.0004
 00  5  1 19  8  0.0010000  0  7G 4G 5G 6G 9G10G24G30
  23753339.4354    8276499.63946   6355565.16546                  23753349.0604
        15.2504         13.2504
  20799432.9744     266774.93948    226133.72147                  20799441.1104
        28.0004         27.5004
  24164237.2004   -3565053.92145  -2668453.10246                  24164251.6774
        10.2504         12.0004
  24844991.6304    8143805.82645   6004794.28145                  24845012.4034
         9.5004         10.5004
  22278952.9354   -4528033.05647  -3446850.93246                  22278963.8374
        21.7504         22.5004
  21257435.7244    4093551.05247   3155885.11547                  21257444.6344
        26.5004         27.7504
  22124649.1774   -4385345.69447  -3342173.83146                  22124657.7244
        27.0004         25.0004
 00  5  1 19  8 15.0010000  0  7G 4G 5G 6G 9G10G24G30
  23764761.0524    8336520.36746   6402334.51646                  23764771.1224
        14.2504         12.7504
  20801835.1304     279396.96148    235969.04947                  20801843.5364
        28.0004         27.5004
  24159878.7314   -3587960.40045  -2686302.20845                  24159892.3294
        10.7504         11.7504
  24856004.7714    8201682.70445   6049892.93245                  24856026.3064
         9.0004         10.0004
  22274538.0214   -4551233.39647  -3464929.05246                  22274549.0874
        21.5004         22.7504
  21264294.9744    4129596.21847   3183972.24947                  21264303.9074
        26.5004         27.7504
  22120338.6534   -4407998.39647  -3359825.27246                  22120347.1654
        26.7504         25.2504
 00  5  1 19  8 30.0010000  0  7G 4G 5G 6G 9G10G24G30
  23776187.1464    8396568.04746   6449124.88746                  23776196.0094
        14.5004         13.0004
  20804264.4114     292164.22847    245917.56347                  20804272.6884
        27.7504         27.2504
  24155522.8414   -3610851.36545  -2704139.27446                  24155535.0214
        11.7504         12.0004
  24867018.0524    8259558.19645   6094990.49545                  24867038.7204
         8.7504          9.5004
  22270143.9274   -4574325.02947  -3482922.46246                  22270154.9814
        21.2504         22.5004
  21271171.2714    4165731.97547   3212129.97347                  21271180.1224
        26.2504         27.7504
  22116048.9194   -4430539.65147  -3377389.86946                  22116057.3964
        26.5004         25.2504
 00  5  1 19  8 45.0010000  0  7G 4G 5G 6G 9G10G24G30
  23787619.6304    8456642.57346   6495936.14246                  23787630.2164
        14.2504         13.7504
  20806721.2554     305074.36847    255977.39647                  20806729.6034
        27.7504         27.2504
  24151169.6464   -3633724.55945  -2721962.50846                  24151182.1184
        11.0004         12.2504
  24878032.1534    8317435.71345   6140089.63945                  24878052.7284
         9.0004         10.0004
  22265770.5214   -4597307.49547  -3500830.80546                  22265781.6694
        21.5004         22.7504
  21278066.0214    4201963.37347   3240362.22247                  21278075.0014
        26.2504         27.7504
  22111781.3884   -4452967.11147  -3394865.79446                  22111789.9704
        26.7504         25.2504
 00  5  1 19  9  0.0010000  0  7G 4G 5G 6G 9G10G24G30
  23799055.7084    8516742.32146   6542767.08646                  23799064.9814
        13.5004         13.2504
  20809204.8414     318125.57347    266147.15547                  20809213.1064
        27.7504         27.2504
  24146820.5754   -3656578.28045  -2739770.52346                  24146836.6694
        10.0004         12.0004
  24889046.4894    8375315.21045   6185190.29845                  24889067.6144
         8.7504          9.7504
  22261418.9034   -4620174.55647  -3518649.21646                  22261429.9814
        21.5004         22.5004
  21284978.8414    4238290.68047   3268669.19947                  21284988.0674
        26.2504         28.0004
  22107535.5604   -4475278.77647  -3412251.49346                  22107544.0014
        27.0004         25.2504
 00  5  1 19  9 15.0010000  0  7G 4G 5G 6G 9G10G24G30
  23810497.2474    8576866.50746   6589617.04346                  23810506.6734
        14.2504         13.2504
  20811714.8254     331314.96147    276424.58847                  20811722.9854
        27.7504         27.2504
  24142475.3414   -3679413.67045  -2757564.20346                  24142489.9114
        10.5004         12.5004
  24900060.5604    8433194.65845   6230290.92245                  24900081.2864
         8.5004         10.0004
  22257089.6534   -4642925.05447  -3536376.82646                  22257100.8024
        21.5004         22.7504
  21291909.6694    4274711.69447   3297049.20147                  21291918.7204
        26.2504         28.0004
  22103311.3724   -4497477.11847  -3429548.88646                  22103320.0604
        26.7504         25.2504
 00  5  1 19  9 30.0010000  0  7G 4G 5G 6G 9G10G24G30
  23821942.4974    8637011.98946   6636483.61846                  23821952.5324
        12.5004         12.5004
  20814250.0134     344639.24447    286807.13147                  20814258.2674
        27.7504         27.2504
  24138133.3964   -3702231.71045  -2775344.43246                  24138146.2204
        11.2504         12.2504
  24911075.3024    8491076.56745   6275393.47345                  24911096.1574
         9.0004          9.5004
  22252782.2004   -4665559.55647  -3554014.02946                  22252793.3724
        21.7504         22.7504
  21298858.0054    4311225.78147   3325501.72447                  21298867.1144
        26.5004         28.0004
  22099108.3564   -4519565.29047  -3446760.43046                  22099117.0214
        27.0004         25.2504
 00  5  1 19  9 45.0010000  0  7G 4G 5G 6G 9G10G24G30
  23833392.6774    8697180.35046   6683368.00246                  23833402.9354
        14.2504         13.5004
  20816811.1924     358097.88947    297294.37947                  20816819.4464
        27.7504         27.2504
  24133795.2634   -3725030.22445  -2793109.44446                  24133807.4194
        11.7504         12.2504
  24922090.9114    8548960.17345   6320497.37245                  24922111.6494
         9.2504          9.7504
  22248496.8104   -4688079.51447  -3571561.98246                  22248507.8884
        21.7504         23.0004
  21305823.8724    4347831.84247   3354025.91847                  21305832.8884
        26.7504         28.2504
  22094925.5364   -4541543.51047  -3463886.30046                  22094934.1064
        27.0004         25.5004
 00  5  1 19 10  0.0010000  0  7G 4G 5G 6G 9G10G24G30
  23844847.8334    8757377.24846   6730274.61546                  23844857.6104
        13.0004         12.7504
  20819398.4894     371692.82648    307887.81947                  20819406.6854
        28.0004         27.2504
  24129460.2004   -3747806.05145  -2810856.80545                  24129473.3414
        11.0004         11.7504
  24933105.8964    8606846.40245   6365603.28845                  24933126.5524
         8.2504         10.0004
  22244234.1464   -4710479.23547  -3589016.24046                  22244245.1304
        21.7504         23.2504
  21312807.6854    4384530.92447   3382622.59647                  21312816.6654
        26.7504         28.0004
  22090764.8174   -4563409.88347  -3480925.01547                  22090773.3644
        27.0004         25.7504
 00  5  1 19 10 15.0010000  0  7G 4G 5G 6G 9G10G24G30
  23856306.5754    8817599.52146   6777201.04246                  23856316.6104
        13.0004         13.2504
  20822010.9194     385421.09748    318585.16247                  20822019.1034
        28.2504         27.5004
  24125129.7474   -3770566.56145  -2828592.18146                  24125142.6304
        11.5004         12.5004
  24944120.7554    8664733.41945   6410709.79645                  24944142.1614
         8.5004         10.0004
  22239994.0524   -4732761.66147  -3606379.10646                  22240005.0244
        21.7504         23.0004
  21319808.3174    4421320.19247   3411289.54647                  21319817.2514
        26.7504         28.2504
  22086624.1064   -4585168.59847  -3497879.84146                  22086632.7474
        26.7504         25.5004
 00  5  1 19 10 30.0010000  0  7G 4G 5G 6G 9G10G24G30
  23867771.3494    8877842.73946   6824143.72946                  23867781.9704
        14.0004         12.7504
  20824648.2004     399280.12048    329384.38347                  20824656.4544
        28.2504         27.2504
  24120800.0994   -3793317.05645  -2846319.75546                  24120813.7904
        11.5004         13.0004
  24955138.1614    8722621.84645   6455817.43645                  24955157.9114
         8.7504         10.0004
  22235776.3884   -4754925.85547  -3623649.83746                  22235787.3494
        22.0004         23.2504
  21326825.4664    4458196.54747   3440024.36147                  21326834.4464
        27.0004         28.2504
  22082503.3414   -4606823.72347  -3514753.94146                  22082511.8764
        27.0004         25.5004
 00  5  1 19 10 45.0010000  0  7G 4G 5G 6G 9G10G24G30
  23879238.7394    8938104.96446   6871101.28346                  23879248.6344
        13.0004         12.5004
  20827310.9034     413272.72848    340287.70847                  20827319.1814
        28.5004         27.2504
  24116472.5604   -3816057.74845  -2864039.68646                  24116485.9934
        11.2504         12.7504
  24966154.5284    8780513.41045   6500927.54345                  24966175.3964
         8.7504          9.7504
  22231582.1614   -4776965.24347  -3640823.32046                  22231592.9934
        22.0004         23.2504
  21333859.9194    4495160.70847   3468827.59347                  21333868.9354
        27.0004         28.2504
  22078402.0134   -4628377.41847  -3531549.01347                  22078410.6064
        26.7504         25.7504
 00  5  1 19 11  0.0010000  0  7G 4G 5G 6G 9G10G24G30
  23890710.2314    8998386.05046   6918073.49746                  23890720.3494
        13.5004         12.7504
  20829999.7554     427401.81848    351297.37147                  20830007.8454
        28.5004         27.5004
  24112146.5214   -3838788.57345  -2881751.93246                  24112159.2284
        11.5004         12.2504
  24977170.9894    8838405.44645   6546037.96645                  24977192.5484
         8.2504         10.0004
  22227412.5524   -4798876.83447  -3657897.22946                  22227423.7824
        21.7504         23.5004
  21340910.2244    4532210.53447   3497697.57847                  21340919.2744
        26.7504         28.5004
  22074319.3174   -4649830.30847  -3548265.53247                  22074328.0524
        27.0004         25.7504
 00  5  1 19 11 15.0010000  0  7G 4G 5G 6G 9G10G24G30
  23902184.1224    9058684.96746   6965059.63246                  23902193.9114
        12.2504         12.0004
  20832714.5134     441668.79148    362414.47847                  20832722.6614
        29.0004         27.7504
  24107823.4744   -3861510.40446  -2899457.20646                  24107835.8644
        12.5004         12.2504
  24988187.3254    8896295.13245   6591146.57545                  24988208.5914
         8.2504         10.2504
  22223266.7784   -4820663.51147  -3674873.79746                  22223277.6924
        22.0004         23.5004
  21347975.8494    4569340.52847   3526630.02947                  21347984.6184
        27.0004         28.2504
  22070255.7314   -4671185.32147  -3564905.78647                  22070264.4544
        27.0004         25.7504
 00  5  1 19 11 30.0010000  0  7G 4G 5G 6G 9G10G24G30
  23913663.7784    9119007.39146   7012064.06046                  23913673.7554
        13.5004         13.0004
  20835456.5054     456077.81248    373642.27547                  20835464.6534
        29.0004         27.7504
  24103502.2554   -3884218.68946  -2917151.93446                  24103514.0484
        12.2504         13.0004
  24999203.8724    8954186.99745   6636256.89445                  24999226.1344
         8.2504         10.0004
  22219144.4034   -4842325.54047  -3691753.23946                  22219155.4354
        22.0004         23.5004
  21355057.2714    4606555.22847   3555628.48347                  21355066.2044
        27.2504         28.5004
  22066211.1464   -4692439.49047  -3581467.46047                  22066220.0094
        27.0004         26.0004
 00  5  1 19 11 45.0020000  0  7G 4G 5G 6G 9G10G24G30
  23925148.0024    9179357.08346   7059089.74546                  23925158.0144
        12.5004         12.5004
  20838226.1434     470631.65148    384982.91247                  20838234.5024
        29.0004         28.0004
  24099182.3774   -3906914.65045  -2934837.01446                  24099195.6584
        11.0004         12.7504
  25010221.7524    9012084.38545   6681371.50445                  25010244.0964
         8.7504          9.5004
  22215045.3934   -4863865.51247  -3708537.56946                  22215056.4714
        21.7504         23.7504
  21362155.6274    4643856.41247   3584694.33347                  21362164.5374
        27.2504         28.5004
  22062185.7294   -4713592.84047  -3597950.57247                  22062194.3464
        27.2504         25.7504
 00  5  1 19 12  0.0020000  0  7G 4G 5G 6G 9G10G24G30
  23936634.8854    9239723.26246   7106128.30246                  23936644.8144
        12.2504         12.7504
  20841023.0414     485329.64948    396435.88547                  20841031.4004
        29.5004         28.0004
  24094866.1194   -3929598.11245  -2952512.34946                  24094879.7524
        11.0004         12.7504
  25021237.9944    9069973.10945   6726479.33945                  25021259.6464
         9.2504          9.7504
  22210969.8144   -4885282.81147  -3725226.30946                  22210980.9044
        21.7504         23.7504
  21369268.7214    4681236.87647   3613821.95647                  21369277.5144
        27.2504         28.5004
  22058180.0024   -4734643.53047  -3614353.69147                  22058188.6894
        27.2504         26.0004
 00  5  1 19 12 15.0020000  0  7G 4G 5G 6G 9G10G24G30
  23948125.6744    9300106.68746   7153180.25746                  23948135.5804
        13.0004         12.7504
  20843847.7214     500173.75548    408002.70347                  20843856.1044
        29.2504         28.0004
  24090552.2134   -3952269.81546  -2970178.52746                  24090564.7684
        12.7504         12.7504
  25032252.8304    9127856.88445   6771583.37545                  25032273.8034
         9.5004          9.7504
  22206917.4864   -4906577.86247  -3741819.79546                  22206928.2834
        22.0004         24.0004
  21376398.2524    4718701.62047   3643015.25247                  21376407.1154
        27.2504         28.5004
  22054193.7994   -4755591.25247  -3630676.57347                  22054202.6394
        27.0004         26.0004
 00  5  1 19 12 30.0020000  0  7G 4G 5G 6G 9G10G24G30
  23959619.3224    9360506.67346   7200245.12546                  23959628.7254
        13.5004         12.7504
  20846700.4324     515164.21548    419683.57147                  20846708.7214
        29.2504         28.0004
  24086240.2134   -3974927.79246  -2987834.06446                  24086252.6504
        12.5004         12.7504
  25043267.4244    9185737.43345   6816684.88645                  25043286.7874
         9.0004          9.5004
  22202888.4714   -4927750.77447  -3758318.10746                  22202899.1974
        22.0004         24.0004
  21383543.6354    4756250.55047   3672274.14747                  21383552.2404
        27.5004         28.2504
  22050227.7054   -4776432.95947  -3646916.84647                  22050236.4864
        27.2504         26.2504
 00  5  1 19 12 45.0020000  0  7G 4G 5G 6G 9G10G24G30
  23971116.6434    9420923.83946   7247323.36046                  23971126.7484
        13.0004         12.5004
  20849580.5644     530300.64548    431478.17347                  20849588.6784
        29.0004         28.0004
  24081931.5644   -3997569.61645  -3005476.98546                  24081944.1544
        11.7504         12.5004
  25054279.7214    9243611.58845   6861781.40545                  25054301.5374
         8.0004          8.7504
  22198881.8304   -4948804.17947  -3774723.29646                  22198892.8144
        22.0004         23.7504
  21390704.2364    4793879.52747   3701595.41347                  21390713.0644
        27.5004         28.2504
  22046281.8774   -4797168.26647  -3663074.21247                  22046290.6704
        27.0004         26.2504
 00  5  1 19 13  0.0020000  0  7G 4G 5G 6G 9G10G24G30
  23982616.8074    9481358.73046   7294415.46146                  23982626.8304
        12.2504         12.2504
  20852488.9394     545583.51748    443386.89047                  20852497.2054
        29.2504         28.0004
  24077626.6114   -4020192.66845  -3023105.27646                  24077639.4004
        11.2504         12.7504
  25065291.7834    9301475.26045   6906869.74245                  25065312.0964
         8.2504          9.5004
  22194897.7214   -4969742.79047  -3791039.04046                  22194908.7754
        22.0004         23.5004
  21397879.7684    4831588.26247   3730978.83347                  21397888.5254
        27.2504         28.2504
  22042356.9714   -4817793.77747  -3679146.02247                  22042365.7994
        27.2504         26.2504
 00  5  1 19 13 15.0020000  0  7G 4G 5G 6G 9G10G24G30
  23994121.0884    9541811.24046   7341521.25646                  23994131.4044
        13.0004         13.0004
  20855424.2834     561009.28248    455406.94847                  20855432.5144
        28.7504         28.0004
  24073325.2914   -4042796.71046  -3040718.71646                  24073337.5184
        12.5004         12.7504
  25076300.2604    9359327.66545   6951949.29045                  25076320.9514
         9.0004         10.0004
  22190933.9394   -4990571.22247  -3807268.92846                  22190944.9714
        21.7504         24.0004
  21405070.4944    4869374.95547   3760422.99647                  21405079.1934
        27.0004         28.0004
  22038453.1894   -4838308.29447  -3695131.34147                  22038461.9364
        27.0004         26.2504
 00  5  1 19 13 30.0020000  0  7G 4G 5G 6G 9G10G24G30
  24005627.8774    9602281.54546   7388640.92346                  24005637.7364
        12.2504         12.2504
  20858386.5804     576576.10948    467536.92847                  20858394.8694
        28.7504         28.2504
  24069027.1744   -4065383.08046  -3058318.43146                  24069038.0294
        13.0004         13.0004
  25087308.4554    9417170.28545   6997021.24145                  25087329.8264
         9.2504          9.7504
  22186991.2134   -5011290.54947  -3823413.80046                  22187002.0574
        22.0004         24.2504
  21412276.6274    4907243.55747   3789930.98747                  21412285.3384
        27.0004         28.0004
  22034570.7524   -4858710.60147  -3711029.22847                  22034579.4634
        27.2504         26.2504
 00  5  1 19 13 45.0020000  0  7G 4G 5G 6G 9G10G24G30
  24017136.9554    9662763.35146   7435769.54146                  24017146.7684
        12.7504         12.0004
  20861374.1194     592276.16348    479770.71747                  20861382.4904
        28.7504         28.0004
  24064730.8774   -4087958.66745  -3075909.74746                  24064742.4124
        11.7504         12.0004
  25098311.1114    9474996.94545   7042080.76445                  25098332.9864
         8.5004          9.7504
  22183068.5964   -5031903.26247  -3839475.60346                  22183079.4634
        22.0004         24.2504
  21419497.4164    4945188.95947   3819498.81847                  21419506.4674
        27.2504         28.0004
  22030708.8614   -4879005.65147  -3726843.53547                  22030717.6544
        27.7504         26.5004
 00  5  1 19 14  0.0020000  0  7G 4G 5G 6G 9G10G24G30
  24028649.0964    9723259.25946   7482909.16046                  24028659.2484
        12.2504         12.5004
  20864388.4474     608115.38548    492112.95347                  20864396.8894
        28.7504         28.0004
  24060438.0254   -4110518.14946  -3093488.50546                  24060449.5724
        12.5004         12.5004
  25109314.1114    9532812.76945   7087131.81145                  25109336.1274
         9.0004          9.0004
  22179167.7294   -5052401.72047  -3855448.37046                  22179178.6314
        22.0004         24.0004
  21426733.6584    4983214.75247   3849129.29647                  21426742.5804
        27.2504         27.7504
  22026867.9864   -4899189.13447  -3742570.91247                  22026876.7684
        27.5004         26.7504
 00  5  1 19 14 15.0020000  0  7G 4G 5G 6G 9G10G24G30
  24040163.9324    9783768.94846   7530059.52146                  24040172.9364
        13.5004         12.2504
  20867428.5254     624091.24248    504561.65547                  20867436.9674
        28.5004         27.7504
  24056148.3074   -4133061.29246  -3111054.53746                  24056161.2134
        12.2504         13.0004
  25120314.4244    9590618.54145   7132175.07645                  25120335.0334
         9.0004          9.0004
  22175289.1274   -5072783.08547  -3871329.89646                  22175299.9714
        22.0004         24.2504
  21433985.1434    5021323.07147   3878824.07847                  21433993.8894
        27.0004         27.7504
  22023048.4084   -4919260.72548  -3758211.09147                  22023057.0374
        28.0004         26.7504
 00  5  1 19 14 30.0020000  0  7G 4G 5G 6G 9G10G24G30
  24051682.0574    9844295.86946   7577223.29746                  24051692.1044
        12.7504         12.2504
  20870494.4004     640203.09748    517116.33047                  20870502.7954
        28.5004         27.7504
  24051861.6664   -4155587.65746  -3128607.47046                  24051873.9514
        13.2504         13.7504
  25131313.2834    9648417.50545   7177213.02945                  25131333.8304
         8.2504          8.7504
  22171433.2994   -5093046.46647  -3887119.49246                  22171444.1434
        22.2504         24.2504
  21441252.7604    5059514.55747   3908583.66747                  21441261.4244
        27.0004         27.7504
  22019250.8384   -4939218.33548  -3773762.46147                  22019259.3964
        28.2504         26.5004
 00  5  1 19 14 45.0020000  0  7G 4G 5G 6G 9G10G24G30
  24063202.9324    9904841.19146   7624401.43046                  24063213.1894
        13.2504         12.7504
  20873586.6504     656452.56048    529778.22947                  20873594.9864
        28.2504         28.0004
  24047577.5494   -4178097.71745  -3146147.71746                  24047590.1044
        11.5004         12.7504
  25142310.6274    9706210.18445   7222246.01445                  25142333.0414
         7.7504          9.0004
  22167600.0104   -5113189.87447  -3902815.60046                  22167610.6544
        22.5004         24.2504
  21448535.9944    5097787.93947   3938407.07047                  21448544.5884
        27.0004         27.2504
  22015474.2604   -4959063.34948  -3789226.09347                  22015482.8184
        28.5004         26.7504
 00  5  1 19 15  0.0020000  0  7G 4G 5G 6G 9G10G24G30
  24074728.5414    9965405.50946   7671594.34346                  24074738.0144
        13.0004         12.2504
  20876705.5334     672842.54748    542549.62747                  20876714.0684
        28.0004         27.7504
  24043297.1744   -4200593.35046  -3163676.72146                  24043308.9204
        12.7504         12.7504
  25153307.8304    9763997.87045   7267275.15345                  25153331.8034
         8.2504          9.5004
  22163790.2134   -5133210.31647  -3918415.89346                  22163801.0684
        22.7504         24.2504
  21455835.4554    5136146.52047   3968296.86047                  21455844.0724
        27.0004         27.5004
  22011719.7604   -4978793.90848  -3804600.53947                  22011728.2014
        28.0004         26.7504
 00  5  1 19 15 15.0020000  0  7G 4G 5G 6G 9G10G24G30
  24086256.7834   10025987.05246   7718800.67646                  24086266.3964
        13.5004         12.5004
  20879851.5024     689374.63248    555431.75547                  20879859.8504
        28.0004         27.7504
  24039018.7604   -4223076.95846  -3181196.37246                  24039030.8464
        13.0004         13.5004
  25164305.1274    9821784.33145   7312303.33845                  25164325.0414
         8.5004          9.2504
  22160004.3384   -5153103.96347  -3933917.38446                  22160015.1464
        22.5004         24.2504
  21463151.1664    5174590.50247   3998253.19947                  21463159.7484
        27.0004         27.2504
  22007986.7834   -4998410.85048  -3819886.45247                  22007995.0844
        28.5004         26.7504
 00  5  1 19 15 30.0020000  0  7G 4G 5G 6G 9G10G24G30
  24097788.3774   10086584.21946   7766019.21446                  24097798.8814
        12.7504         12.2504
  20883024.3074     706048.72348    568424.53347                  20883032.8184
        28.0004         27.7504
  24034741.7914   -4245552.26346  -3198709.52146                  24034752.9634
        13.5004         13.7504
  25175301.6044    9879572.37945   7357332.76445                  25175323.3734
         8.0004          9.2504
  22156243.7914   -5172867.79847  -3949317.72546                  22156254.3654
        22.7504         24.0004
  21470482.8614    5213119.11047   4028275.47847                  21470491.5254
        26.5004         27.0004
  22004274.8694   -5017916.68648  -3835085.79347                  22004283.4394
        28.5004         27.0004
 00  5  1 19 15 45.0020000  0  7G 4G 5G 6G 9G10G24G30
  24109322.5494   10147200.35446   7813252.53746                  24109332.4434
        13.5004         13.0004
  20886225.3544     722870.44048    581532.34447                  20886233.8304
        28.0004         28.0004
  24030466.5804   -4268016.40546  -3216213.98946                  24030479.4284
        12.2504         13.2504
  25186298.4714    9937362.47145   7402363.76245                  25186318.9244
         7.7504          8.5004
  22152508.4474   -5192495.31047  -3964611.84046                  22152519.0574
        22.7504         24.5004
  21477831.0884    5251733.63447   4058364.70947                  21477839.4944
        27.0004         27.2504
  22000584.3224   -5037310.65648  -3850197.96347                  22000592.7644
        28.5004         27.0004
 00  5  1 19 16  0.0020000  0  7G 4G 5G 6G 9G10G24G30
  24120860.6274   10207829.70146   7860496.11046                  24120870.0414
        13.5004         12.2504
  20889454.0024     739836.14247    594752.35947                  20889462.5024
        27.7504         28.0004
  24026193.0644   -4290475.09846  -3233714.18146                  24026204.2714
        13.0004         13.2504
  25197296.3934    9995150.62445   7447393.27945                  25197318.8074
         8.0004          9.0004
  22148798.6584   -5211990.72847  -3979803.02546                  22148809.4204
        22.7504         24.2504
  21485193.5254    5290424.99847   4088513.81447                  21485202.1664
        26.7504         27.0004
  21996914.5184   -5056596.00748  -3865225.49447                  21996922.9004
        28.5004         27.0004
 00  5  1 19 16 15.0020000  0  7G 4G 5G 6G 9G10G24G30
  24132401.7994   10268478.11546   7907754.58246                  24132412.1624
        13.0004         12.5004
  20892711.0964     756952.11848    608089.45847                  20892719.7604
        28.0004         27.7504
  24021921.0724   -4312924.35446  -3251207.08446                  24021932.3504
        13.2504         13.2504
  25208292.9714   10052940.09645   7492423.81545                  25208315.8654
         8.0004          9.2504
  22145114.7994   -5231350.03947  -3994888.15446                  22145125.5144
        23.0004         24.5004
  21492572.4004    5329200.43447   4118728.42347                  21492580.8654
        27.0004         27.0004
  21993266.5964   -5075764.80448  -3880162.20447                  21993275.0724
        28.5004         27.2504
 00  5  1 19 16 30.0020000  0  7G 4G 5G 6G 9G10G24G30
  24143946.2524   10329146.48446   7955028.56646                  24143956.8264
        12.7504         12.0004
  20895997.2214     774219.82348    621544.79547                  20896005.7444
        28.0004         27.7504
  24017650.3304   -4335367.13946  -3268694.89746                  24017662.4394
        13.2504         13.5004
  25219289.3614   10110727.71645   7537452.88645                  25219312.1154
         8.0004          8.2504
  22141455.7604   -5250577.96647  -4009870.90746                  22141466.3464
        23.0004         24.5004
  21499966.1044    5368054.92347   4149004.64247                  21499974.6394
        26.5004         26.7504
  21989641.1824   -5094816.49848  -3895007.66147                  21989649.6004
        29.0004         27.0004
 00  5  1 19 16 45.0020000  0  7G 4G 5G 6G 9G10G24G30
  24155493.7054   10389830.29446   8002314.62546                  24155502.2644
        14.0004         12.2504
  20899311.4864     791637.41948    635116.93147                  20899320.1154
        28.0004         27.7504
  24013379.6824   -4357807.50146  -3286180.82546                  24013392.4714
        12.0004         13.5004
  25230285.2524   10168508.66845   7582476.78945                  25230307.1974
         7.5004          8.2504
  22137821.1354   -5269678.16647  -4024754.13046                  22137831.7214
        23.0004         24.2504
  21507373.7054    5406982.09347   4179337.48347                  21507382.2994
        26.5004         26.7504
  21986037.4634   -5113755.33248  -3909765.18447                  21986045.5644
        29.2504         27.0004
 00  5  1 19 17  0.0020000  0  7G 4G 5G 6G 9G10G24G30
  24167045.1354   10450528.31446   8049611.68946                  24167055.4284
        13.7504         12.2504
  20902654.6044     809205.10748    648806.02047                  20902663.1274
        28.0004         27.7504
  24009109.9944   -4380245.22946  -3303664.69446                  24009122.2564
        13.5004         14.0004
  25241279.7294   10226282.94245   7627495.49745                  25241303.8894
         8.0004          9.0004
  22134210.7754   -5288649.84047  -4039537.20846                  22134221.4084
        23.0004         24.7504
  21514795.0104    5445982.25747   4209727.20947                  21514803.6624
        26.5004         26.7504
  21982455.2754   -5132579.35248  -3924433.23947                  21982463.4124
        29.0004         27.0004
 00  5  1 19 17 15.0020000  0  7G 4G 5G 6G 9G10G24G30
  24178597.7834   10511239.82946   8096919.35046                  24178607.6314
        13.2504         12.0004
  20906026.2994     826923.44548    662612.50147                  20906034.7874
        28.2504         28.0004
  24004841.2524   -4402678.69846  -3321145.26946                  24004852.5764
        12.7504         13.0004
  25252272.5104   10284048.61645   7672507.49345                  25252294.9824
         8.2504          9.0004
  22130624.4244   -5307496.29347  -4054222.70846                  22130635.1044
        23.0004         24.5004
  21522230.6274    5485055.40547   4240173.80447                  21522239.1624
        26.5004         26.5004
  21978894.9944   -5151287.72048  -3939011.17347                  21978903.3544
        29.0004         27.2504
 00  5  1 19 17 30.0020000  0  7G 4G 5G 6G 9G10G24G30
  24190153.6434   10571966.17946   8144238.53645                  24190163.0924
        12.7504         11.2504
  20909426.1664     844789.94848    676534.42847                  20909434.6314
        28.2504         28.0004
  24000573.2604   -4425105.46046  -3338620.61546                  24000584.7484
        12.7504         13.2504
  25263262.6974   10341803.52345   7717511.10345                  25263285.3224
         7.7504          9.0004
  22127061.7134   -5326217.75247  -4068810.80746                  22127072.2054
        23.2504         24.5004
  21529679.7754    5524200.46747   4270676.43547                  21529688.1934
        26.5004         26.5004
  21975356.9394   -5169881.59348  -3953499.88847                  21975365.1234
        29.2504         27.0004
 00  5  1 19 17 45.0020000  0  7G 4G 5G 6G 9G10G24G30
  24201711.9084   10632707.72746   8191569.57446                  24201722.0724
        13.7504         12.5004
  20912853.9944     862802.59848    690570.24047                  20912862.3074
        28.5004         28.0004
  23996306.5414   -4447525.90246  -3356091.03546                  23996319.3304
        12.5004         13.7504
  25274250.1274   10399542.62744   7762502.37545                  25274272.1784
         7.2504          8.5004
  22123522.4474   -5344816.73347  -4083303.47446                  22123532.8114
        23.2504         25.0004
  21537142.4164    5563416.98947   4301234.75247                  21537150.9754
        26.5004         26.5004
  21971840.5024   -5188360.89348  -3967899.33247                  21971848.8734
        28.7504         27.2504
 00  5  1 19 18  0.0020000  0  7G 4G 5G 6G 9G10G24G30
  24213274.6504   10693467.48246   8238914.80845                  24213283.8304
        12.7504         11.2504
  20916310.1114     880965.40448    704723.05947                  20916318.5184
        28.5004         28.0004
  23992042.2754   -4469934.78346  -3373552.43546                  23992054.2684
        13.0004         13.7504
  25285234.8694   10457267.45444   7807482.50145                  25285259.1824
         7.2504          8.5004
  22120006.7054   -5363291.98247  -4097699.73046                  22120017.2324
        23.2504         24.5004
  21544619.0884    5602707.68347   4331850.85947                  21544627.5294
        26.2504         26.5004
  21968346.6974   -5206719.94248  -3982205.06547                  21968355.0104
        29.2504         27.0004
 00  5  1 19 18 15.0020000  0  7G 4G 5G 6G 9G10G24G30
  24224839.6194   10754240.85146   8286270.60046                  24224849.6784
        14.0004         12.2504
  20919794.4394     899275.08648    718990.32647                  20919802.8224
        28.5004         28.0004
  23987780.2364   -4492332.64945  -3391005.26946                  23987792.6504
        11.5004         13.7504
  25296217.0804   10514975.77845   7852449.83945                  25296240.7954
         7.5004          8.5004
  22116513.7054   -5381648.16747  -4112003.20746                  22116524.1744
        23.5004         25.0004
  21552109.9084    5642072.61347   4362524.82047                  21552118.4084
        26.2504         26.5004
  21964876.0414   -5224958.07848  -3996416.58947                  21964884.0844
        28.7504         27.0004
 00  5  1 19 18 30.0020000  0  7G 4G 5G 6G 9G10G24G30
  24236406.3774   10815024.38946   8333634.36845                  24236415.8384
        12.7504         11.2504
  20923306.2604     917728.65348    733369.70847                  20923314.7254
        28.5004         28.0004
  23983520.4084   -4514718.56646  -3408448.76346                  23983532.5644
        12.7504         13.2504
  25307194.2684   10572664.19345   7897401.66245                  25307214.3814
         7.5004          8.7504
  22113042.7134   -5399888.56347  -4126216.46046                  22113053.2404
        23.5004         25.0004
  21559614.7914    5681510.17647   4393255.37747                  21559623.4554
        26.2504         26.2504
  21961427.5024   -5243079.78148  -4010537.38247                  21961435.6974
        28.5004         27.2504
 00  5  1 19 18 45.0020000  0  7G 4G 5G 6G 9G10G24G30
  24247975.0724   10875816.04946   8381004.44145                  24247984.8504
        13.5004         11.7504
  20926844.6194     936323.59648    747859.25747                  20926852.9434
        28.7504         28.2504
  23979262.8304   -4537089.53446  -3425880.64546                  23979275.3504
        12.2504         13.5004
  25318168.8224   10630335.14944   7942339.81845                  25318189.4084
         7.0004          8.5004
  22109594.1744   -5418010.75347  -4140337.60246                  22109604.7254
        23.5004         24.7504
  21567133.8224    5721022.90847   4424044.50347                  21567142.4864
        26.2504         26.5004
  21958000.7914   -5261086.92848  -4024568.90847                  21958009.0684
        28.7504         26.7504
 00  5  1 19 19  0.0020000  0  7G 4G 5G 6G 9G10G24G30
  24259543.7914   10936615.11346   8428380.28645                  24259554.7174
        12.2504         11.7504
  20930409.1274     955055.75448    762455.72347                  20930417.5104
        28.7504         28.2504
  23975009.7754   -4559443.70046  -3443299.42246                  23975022.2954
        13.2504         14.2504
  25329141.3384   10687991.48244   7987266.59245                  25329164.9594
         7.0004          8.0004
  22106168.7134   -5436011.56947  -4154364.16646                  22106179.1004
        23.5004         24.5004
  21574667.9324    5760615.55047   4454895.89547                  21574676.5614
        26.5004         26.5004
  21954596.1894   -5278979.01848  -4038510.78547                  21954604.4674
        28.7504         27.0004
 00  5  1 19 19 15.0020000  0  7G 4G 5G 6G 9G10G24G30
  24271115.8774   10997421.83146   8475762.10546                  24271125.0214
        13.5004         12.0004
  20934000.0104     973924.19748    777158.39047                  20934008.3934
        29.0004         28.2504
  23970758.5574   -4581777.86146  -3460702.59046                  23970771.4634
        12.0004         13.7504
  25340109.4394   10745634.01945   8032182.64145                  25340132.4284
         7.5004          8.7504
  22102765.8224   -5453891.50247  -4168296.53746                  22102776.2914
        23.2504         24.7504
  21582217.6274    5800289.02147   4485810.27347                  21582226.1744
        26.5004         26.5004
  21951213.0804   -5296756.27748  -4052363.18547                  21951221.1934
        28.7504         27.0004
 00  5  1 19 19 30.0020000  0  7G 4G 5G 6G 9G10G24G30
  24282688.1744   11058238.37246   8523151.56346                  24282698.1624
        12.7504         12.0004
  20937616.0804     992928.17048    791966.66147                  20937624.5214
        29.0004         28.2504
  23966513.3224   -4604092.02646  -3478090.16246                  23966526.0184
        13.2504         13.2504
  25351077.0964   10803261.25045   8077086.80645                  25351098.3384
         7.5004          8.5004
  22099387.2754   -5471648.00947  -4182132.73846                  22099397.8384
        23.0004         24.5004
  21589782.4084    5840041.50647   4516786.22647                  21589790.8504
        26.5004         26.7504
  21947851.7604   -5314420.33048  -4066127.36947                  21947860.0724
        28.5004         26.7504
 00  5  1 19 19 45.0020000  0  7G 4G 5G 6G 9G10G24G30
  24294262.9164   11119063.48346   8570547.69346                  24294273.4204
        13.5004         12.2504
  20941258.0024    1012066.58448    806879.68947                  20941266.3144
        29.2504         28.2504
  23962270.0104   -4626388.58146  -3495464.08646                  23962280.9364
        13.2504         13.5004
  25362038.9714   10860872.37844   8121978.36445                  25362062.4754
         6.7504          8.2504
  22096031.6974   -5489279.23447  -4195871.31346                  22096042.4244
        23.0004         25.0004
  21597361.7054    5879870.39147   4547821.70247                  21597370.4634
        26.5004         26.7504
  21944511.9004   -5331972.08548  -4079804.04747                  21944520.2714
        28.5004         27.2504
 00  5  1 19 20  0.0020000  0  7G 4G 5G 6G 9G10G24G30
  24305837.8774   11179892.12846   8617946.60545                  24305846.9634
        12.5004         11.0004
  20944925.4864    1031337.93548    821896.30947                  20944933.9284
        29.0004         28.5004
  23958029.6974   -4648671.57346  -3512827.41546                  23958041.1744
        12.7504         13.5004
  25372999.5024   10918464.76944   8166855.33245                  25373023.7564
         6.5004          7.7504
  22092700.1044   -5506788.80647  -4209515.09446                  22092710.8894
        23.0004         25.0004
  21604954.5104    5919770.90547   4578912.99847                  21604963.1624
        26.5004         27.0004
  21941192.9084   -5349413.15948  -4093394.48647                  21941201.3614
        28.2504         27.0004
 00  5  1 19 20 15.0020000  0  7G 4G 5G 6G 9G10G24G30
  24317415.0494   11240727.83846   8665350.99645                  24317425.5534
        12.2504         11.5004
  20948618.6504    1050745.98148    837019.44447                  20948627.0684
        29.2504         28.5004
  23953792.9394   -4670934.56446  -3530175.11846                  23953805.1314
        12.2504         13.7504
  25383956.5024   10976044.71944   8211722.60745                  25383980.9674
         6.7504          8.5004
  22089392.3694   -5524169.91047  -4223058.77046                  22089402.9084
        23.0004         24.5004
  21612561.9864    5959748.81747   4610064.60347                  21612570.6154
        27.0004         27.0004
  21937896.2524   -5366737.30048  -4106893.80147                  21937904.8224
        28.5004         26.5004
 00  5  1 19 20 30.0020000  0  7G 4G 5G 6G 9G10G24G30
  24328992.8774   11301573.67445   8712763.28145                  24329003.2874
        11.0004         11.2504
  20952337.5804    1070289.23748    852247.93847                  20952345.9634
        29.2504         28.5004
  23949559.9714   -4693179.88046  -3547509.06746                  23949571.9394
        13.0004         14.0004
  25394911.9084   11033612.90944   8256580.71845                  25394936.0924
         6.7504          9.0004
  22086109.9634   -5541419.10247  -4236499.65546                  22086120.4324
        23.2504         25.0004
  21620184.4004    5999805.37547   4641277.49147                  21620193.1114
        27.2504         27.0004
  21934621.1044   -5383947.32248  -4120304.19247                  21934629.5334
        28.2504         27.0004
 00  5  1 19 20 45.0020000  0  7G 4G 5G 6G 9G10G24G30
  24340574.5334   11362431.28546   8760184.75045                  24340583.1154
        12.5004         11.2504
  20956081.8614    1089965.77748    867580.28947                  20956090.2444
        29.0004         28.2504
  23945329.6274   -4715412.20946  -3564832.90446                  23945341.5844
        13.0004         14.0004
  25405862.7524   11091168.04344   8301428.70045                  25405885.9514
         6.2504          8.5004
  22082852.5184   -5558536.83847  -4249838.10146                  22082863.1274
        23.0004         25.2504
  21627821.2214    6039936.49247   4672548.47847                  21627829.8384
        27.0004         27.2504
  21931367.0184   -5401047.08148  -4133628.67947                  21931375.2364
        28.0004         27.7504
 00  5  1 19 21  0.0020000  0  7G 4G 5G 6G 9G10G24G30
  24352158.5494   11423304.43545   8807618.32945                  24352168.5964
        11.5004         11.5004
  20959851.4394    1109775.11948    883016.11847                  20959859.7874
        29.0004         28.2504
  23941100.1354   -4737633.73846  -3582148.33646                  23941111.5414
        13.0004         13.7504
  25416813.6584   11148711.41743   8346267.47145                  25416836.7294
         5.7504          7.5004
  22079620.3304   -5575521.53047  -4263072.90646                  22079632.9674
        23.0004         24.5004
  21635471.2994    6080138.16247   4703874.44147                  21635480.0924
        27.0004         27.2504
  21928134.3464   -5418034.94148  -4146865.93747                  21928142.6354
        28.0004         26.7504
 00  5  1 19 21 15.0020000  0  7G 4G 5G 6G 9G10G24G30
  24363744.5334   11484193.29345   8855064.12345                  24363754.4514
        10.0004         10.5004
  20963646.9794    1129719.74648    898557.36847                  20963655.5144
        29.0004         28.5004
  23936873.5644   -4759845.52746  -3599456.16546                  23936886.2714
        13.0004         14.0004
  25427762.2134   11206241.96543   8391096.24045                  25427785.8344
         6.0004          8.0004
  22076413.0804   -5592375.17847  -4276205.56046                  22076424.2294
        23.0004         25.5004
  21643133.9864    6120406.00647   4735251.96847                  21643142.7444
        27.0004         27.0004
  21924923.2444   -5434910.03848  -4160015.37647                  21924931.5104
        28.2504         27.5004
 00  5  1 19 21 30.0020000  0  7G 4G 5G 6G 9G10G24G30
  24375334.8144   11545097.73245   8902522.09945                  24375343.3034
        11.7504         10.7504
  20967468.4714    1149803.18848    914206.78047                  20967476.7254
        29.0004         28.2504
  23932648.2834   -4782049.67646  -3616758.03046                  23932660.2404
        14.2504         14.7504
  25438707.8074   11263757.61144   8435913.40845                  25438729.4124
         6.5004          8.7504
  22073230.8694   -5609099.36547  -4289237.35046                  22073241.5024
        23.0004         24.7504
  21650808.8614    6160738.23447   4766679.66247                  21650817.4794
        27.0004         27.2504
  21921733.6504   -5451672.55848  -4173077.06647                  21921742.0104
        28.7504         26.7504
 00  5  1 19 21 45.0020000  0  7G 4G 5G 6G 9G10G24G30
  24386927.7754   11606017.02845   8949991.62445                  24386938.5844
        10.7504         11.2504
  20971316.8074    1170025.65648    929964.52647                  20971325.1784
        29.0004         28.2504
  23928424.0184   -4804251.05346  -3634057.76046                  23928435.8934
        14.0004         14.5004
  25449648.8144   11321257.29044   8480718.13945                  25449672.8574
         6.2504          7.5004
  22070072.6044   -5625694.86247  -4302168.87046                  22070083.0494
        23.2504         24.7504
  21658495.9244    6201132.90247   4798156.01047                  21658504.5764
        27.0004         27.2504
  21918565.1664   -5468321.87648  -4186050.55247                  21918573.5724
        28.2504         27.0004
 00  5  1 19 22  0.0020000  0  7G 4G 5G 6G 9G10G24G30
  24398523.0644   11666950.03145   8997471.80045                  24398533.1704
        11.2504         10.5004
  20975191.3074    1190387.47348    945830.85547                  20975199.7014
        28.7504         28.2504
  23924199.4324   -4826447.76046  -3651353.84946                  23924211.3544
        13.2504         14.0004
  25460588.5884   11378745.31543   8525513.76645                  25460611.9164
         5.7504          8.2504
  22066938.9714   -5642162.60347  -4315000.83546                  22066949.2754
        23.2504         25.5004
  21666195.2994    6241593.53247   4829683.75847                  21666204.1624
        26.7504         27.2504
  21915419.0254   -5484854.91948  -4198933.43247                  21915427.7014
        28.2504         27.2504
 00  5  1 19 22 15.0020000  0  7G 4G 5G 6G 9G10G24G30
  24410120.7134   11727901.22445   9044966.22145                  24410131.5214
        10.5004         11.5004
  20979092.9004    1210889.30248    961806.28647                  20979101.4244
        28.7504         28.2504
  23919977.4244   -4848636.30446  -3668643.57746                  23919989.9554
        13.5004         14.2504
  25471526.9864   11436225.78243   8570303.54245                  25471551.6864
         5.5004          7.0004
  22063830.0724   -5658499.95447  -4327731.19947                  22063840.5064
        23.0004         25.7504
  21673908.0964    6282124.01747   4861265.94147                  21673916.6894
        26.7504         27.2504
  21912295.2754   -5501270.35248  -4211724.66647                  21912303.9394
        28.7504         27.2504
 00  5  1 19 22 30.0020000  0  7G 4G 5G 6G 9G10G24G30
  24421723.3224   11788871.06745   9092475.09845                  24421733.1934
        11.5004         10.7504
  20983020.3694    1231528.41448    977888.68647                  20983028.8814
        28.7504         28.5004
  23915756.2604   -4870817.76146  -3685927.76446                  23915768.5104
        14.2504         15.0004
  25482463.7524   11493695.45243   8615084.88545                  25482487.9944
         5.7504          7.2504
  22060745.7054   -5674708.98847  -4340361.57246                  22060756.3504
        23.2504         25.5004
  21681633.3384    6322721.89147   4892900.63147                  21681642.2714
        27.0004         27.2504
  21909193.3384   -5517571.38448  -4224426.76747                  21909201.7324
        29.0004         27.0004
 00  5  1 19 22 45.0020000  0  7G 4G 5G 6G 9G10G24G30
  24433329.5804   11849860.30045   9139999.10945                  24433338.5964
        10.7504         11.0004
  20986974.6274    1252309.00548    994081.33647                  20986983.2914
        28.5004         28.5004
  23911536.7364   -4892991.13946  -3703205.64646                  23911549.1624
        14.2504         15.0004
  25493397.3614   11551155.09943   8659858.43045                  25493419.2254
         6.0004          8.2504
  22057685.7524   -5690788.53247  -4352891.04247                  22057696.2214
        23.7504         25.7504
  21689371.9634    6363387.42447   4924588.04847                  21689380.9324
        26.7504         27.2504
  21906113.6894   -5533754.30748  -4237036.82347                  21906122.0964
        28.5004         27.2504
 00  5  1 19 23  0.0020000  0  7G 4G 5G 6G 9G10G24G30
  24444937.8464   11910862.21445   9187533.03445                  24444949.4284
        11.0004         11.0004
  20990955.5024    1273227.27248   1010381.25847                  20990964.0374
        28.7504         28.5004
  23907318.5804   -4915158.69746  -3720479.02546                  23907330.3264
        14.5004         15.0004
  25504328.1044   11608598.54643   8704619.35545                  25504351.5024
         5.7504          7.7504
  22054649.4164   -5706743.67247  -4365323.57547                  22054659.8504
        23.7504         26.0004
  21697121.9004    6404114.14147   4956323.13647                  21697130.6704
        27.0004         27.5004
  21903057.0804   -5549817.92648  -4249553.91947                  21903065.5924
        28.7504         27.2504
 00  5  1 19 23 15.0020000  0  7G 4G 5G 6G 9G10G24G30
  24456547.2994   11971873.30545   9235074.06245                  24456558.6234
        11.0004         11.7504
  20994962.9394    1294287.12348   1026791.50947                  20994971.3934
        28.7504         28.5004
  23903101.9794   -4937317.91946  -3737745.90546                  23903113.1154
        15.2504         14.7504
  25515257.4004   11666023.67143   8749365.98445                  25515282.4044
         5.7504          7.7504
  22051637.4634   -5722572.28047  -4377657.51647                  22051647.9324
        24.0004         26.2504
  21704884.3464    6444906.39747   4988109.29647                  21704893.2794
        26.7504         27.2504
  21900023.8934   -5565757.87448  -4261974.65047                  21900032.2874
        29.0004         27.5004
 00  5  1 19 23 30.0020000  0  7G 4G 5G 6G 9G10G24G30
  24468159.9864   12032896.67045   9282624.70545                  24468171.3934
        11.2504         10.5004
  20998999.0804    1315496.36948   1043318.16947                  20999007.4284
        29.0004         28.5004
  23898887.7054   -4959462.12046  -3755001.08946                  23898899.7324
        14.2504         15.5004
  25526180.6744   11723432.88643   8794100.20545                  25526205.3854
         5.5004          8.2504
  22048650.7294   -5738266.51547  -4389886.74747                  22048661.4084
        24.0004         26.2504
  21712661.1584    6485772.99347   5019953.38647                  21712670.0454
        26.7504         27.5004
  21897014.8614   -5581569.43748  -4274295.33647                  21897023.1744
        29.5004         27.5004
 00  5  1 19 23 45.0020000  0  7G 4G 5G 6G 9G10G24G30
  24479774.7914   12093930.02746   9330183.09245                  24479784.6624
        12.2504         11.5004
  21003062.7834    1336850.83148   1059957.98647                  21003071.1544
        29.0004         29.0004
  23894675.6744   -4981595.05146  -3772247.45546                  23894688.3114
        14.2504         15.2504
  25537103.2134   11780820.92444   8838817.95345                  25537128.2404
         6.2504          8.2504
  22045690.1354   -5753825.50447  -4402010.59647                  22045700.7564
        24.2504         26.2504
  21720451.6354    6526711.61847   5051853.59747                  21720460.6744
        27.0004         27.7504
  21894029.7834   -5597255.26648  -4286518.05347                  21894037.8964
        29.0004         27.5004
 00  5  1 19 24  0.0020000  0  8G 4G 5G 6G17G 9G10G24G30
  24491389.8384   12154969.20645   9377746.06145                  24491401.7604
        10.5004         10.7504
  21007153.1894    1358346.15648   1076707.56147                  21007161.5614
        29.0004         29.0004
  23890466.1744   -5003717.67446  -3789485.81746                  23890477.5684
        15.2504         15.2504
  25723179.6824     -15768.80252
         3.7504
  25548018.7444   11838184.10844   8883516.37845                  25548043.8184
         6.2504          7.7504
  22042754.9004   -5769249.23347  -4414029.04047                  22042765.2404
        24.5004         26.7504
  21728255.5184    6567721.07247   5083808.99947                  21728264.3464
        26.7504         27.5004
  21891068.3614   -5612819.32848  -4298645.88547                  21891076.4864
        29.0004         27.5004
 00  5  1 19 24 15.0020000  0  8G 4G 5G 6G17G 9G10G24G30
  24503005.9324   12216015.28045   9425314.32845                  24503016.5184
        11.0004         10.2504
  21011270.5884    1379984.54848   1093568.62547                  21011279.0294
        29.2504         29.0004
  23886259.4554   -5025825.06646  -3806712.31546                  23886270.9674
        14.7504         15.2504
  25716756.2294     -49529.19242
         4.7504
  25558928.5184   11895521.12243   8928194.35845                  25558954.0844
         5.7504          8.0004
  22039846.2684   -5784533.69147  -4425938.96947                  22039856.7014
        24.5004         26.7504
  21736073.2834    6608804.16347   5115821.78747                  21736082.3574
        27.0004         27.2504
  21888130.1584   -5628260.02248  -4310677.58247                  21888138.3654
        29.5004         27.5004
 00  5  1 19 24 30.0020000  0  8G 4G 5G 6G17G 9G10G24G30
  24514624.2834   12277067.94645   9472887.82845                  24514634.0254
        11.5004         10.7504
  21015416.5254    1401770.95848   1110545.02247                  21015424.9904
        29.2504         28.7504
  23882055.2834   -5047915.68446  -3823925.72946                  23882066.9714
        14.5004         15.2504
  25710341.0254     -83244.19343
         5.7504
  25569834.2214   11952829.89543   8972850.33045                  25569860.2094
         6.0004          8.0004
  22036964.5574   -5799676.80047  -4437738.75247                  22036974.9674
        24.5004         26.7504
  21743905.1824    6649961.96647   5147892.79047                  21743914.1044
        26.7504         27.2504
  21885215.6744   -5643575.27848  -4322611.54447                  21885223.7644
        29.7504         27.5004
 00  5  1 19 24 45.0020000  0  8G 4G 5G 6G17G 9G10G24G30
  24526243.6434   12338125.26145   9520464.85945                  24526254.0534
        11.7504         10.7504
  21019591.0024    1423706.54048   1127637.65847                  21019599.5844
        29.5004         29.0004
  23877854.8384   -5069991.89146  -3841127.90346                  23877867.6154
        15.0004         15.5004
  25703933.6744    -116914.98644
         6.5004
  25580734.9004   12010110.31443   9017484.21145                  25580758.8144
         6.0004          8.2504
  22034109.7134   -5814679.11347  -4449428.82347                  22034120.0414
        24.2504         26.7504
  21751751.8614    6691195.55347   5180022.84247                  21751760.9474
        26.7504         27.2504
  21882325.4554   -5658763.40548  -4334446.43747                  21882333.6504
        29.0004         27.7504
 00  5  1 19 25  0.0020000  0  8G 4G 5G 6G17G 9G10G24G30
  24537861.6744   12399180.75745   9568040.53645                  24537873.2094
        11.5004         10.5004
  21023793.3074    1445789.27748   1144844.95847                  21023801.6434
        29.5004         28.7504
  23873656.0964   -5092056.11446  -3858320.75046                  23873668.4044
        15.0004         15.5004
  25697533.2134    -150544.84544
         6.2504
  25591629.9164   12067358.72544   9062093.16645                  25591654.9554
         6.5004          8.2504
  22031280.9164   -5829544.79447  -4461012.42647                  22031291.4324
        24.5004         27.0004
  21759612.5964    6732504.16947   5212211.36347                  21759621.5534
        26.7504         27.5004
  21879458.7834   -5673827.84448  -4346184.95447                  21879467.0614
        29.5004         27.7504
 00  5  1 19 25 15.0020000  0  8G 4G 5G 6G17G 9G10G24G30
  24549480.3614   12460234.75346   9615615.02445                  24549489.1544
        12.5004         10.7504
  21028023.6824    1468019.88048   1162167.48147                  21028031.9824
        29.5004         29.0004
  23869458.9944   -5114106.85846  -3875503.10346                  23869470.3304
        14.5004         15.0004
  25691141.7444    -184131.59443    -12207.90855                  25691167.0764
         5.5004          6.7504
  25602517.9714   12124577.25744   9106678.83245                  25602543.2684
         6.7504          8.5004
  22028478.5804   -5844271.58447  -4472487.80747                  22028488.7914
        24.2504         26.7504
  21767488.4164    6773891.26547   5244461.04047                  21767497.4794
        26.7504         27.2504
  21876615.2524   -5688770.69148  -4357828.72347                  21876623.4474
        29.5004         28.0004
 00  5  1 19 25 30.0020000  0  8G 4G 5G 6G17G 9G10G24G30
  24561097.7994   12521283.42045   9663185.35645                  24561108.4204
        11.7504         10.7504
  21032281.3544    1490394.99948   1179602.61447                  21032289.9364
        29.7504         29.0004
  23865265.3934   -5136145.12546  -3892675.72646                  23865277.1154
        14.7504         15.0004
  25684758.1974    -217678.36643    -38348.01545                  25684783.8694
         5.0004          6.5004
  25613400.4944   12181764.60544   9151240.22245                  25613426.0144
         6.5004          8.0004
  22025702.1664   -5858861.30847  -4483856.38047                  22025712.2954
        24.5004         26.7504
  21775378.4714    6815354.13647   5276769.75947                  21775387.4514
        26.7504         27.5004
  21873793.4084   -5703598.98148  -4369383.22847                  21873801.8144
        29.5004         28.0004
 00  5  1 19 25 45.0020000  0  8G 4G 5G 6G17G 9G10G24G30
  24572713.4474   12582330.55645   9710754.51345                  24572722.6044
        11.2504         11.0004
  21036566.6354    1512914.51148   1197150.26047                  21036575.0644
        29.5004         28.7504
  23861074.4554   -5158169.86746  -3909837.80846                  23861086.6704
        14.7504         15.5004
  25678380.2054    -251184.22442    -64456.31845                  25678402.7714
         4.5004          6.7504
  25624278.4944   12238925.38044   9195780.90645                  25624304.0374
         6.2504          7.5004
  22022952.0184   -5873314.02747  -4495118.19347                  22022962.4164
        24.0004         26.7504
  21783282.9084    6856892.55747   5309137.34447                  21783292.0184
        26.7504         27.2504
  21870994.0414   -5718310.84148  -4380847.00847                  21871002.2484
        29.7504         27.7504
 00  5  1 19 26  0.0020000  0  8G 4G 5G 6G17G 9G10G24G30
  24584332.0964   12643379.03846   9758324.68245                  24584339.9514
        12.2504         10.0004
  21040879.4394    1535577.06248   1214809.36847                  21040887.7754
        29.5004         28.7504
  23856886.1894   -5180178.47446  -3926987.31446                  23856898.3344
        14.5004         15.2504
  25672012.9474    -284651.54443    -90534.45545                  25672037.2834
         5.7504          7.7504
  25635150.0334   12296062.54543   9240303.19945                  25635176.9944
         6.0004          8.2504
  22020227.1744   -5887632.06347  -4506275.06147                  22020237.5024
        24.2504         26.5004
  21791201.6504    6898506.52947   5341563.80847                  21791210.6664
        26.5004         27.2504
  21868216.6114   -5732905.51648  -4392219.47247                  21868224.8654
        29.5004         28.0004
 00  5  1 19 26 15.0020000  0  8G 4G 5G 6G17G 9G10G24G30
  24595949.4244   12704430.43345   9805897.17945                  24595959.2954
        11.2504         10.5004
  21045218.9244    1558382.30348   1232579.65947                  21045227.3184
        29.5004         28.7504
  23852702.2604   -5202167.44346  -3944121.53546                  23852714.1114
        14.2504         14.7504
  25665651.4164    -318081.36843   -116583.51745                  25665677.4514
         6.0004          8.0004
  25646020.0724   12353179.43144   9284809.66845                  25646044.8424
         6.2504          7.7504
  22017527.4084   -5901818.66447  -4517329.51347                  22017537.7134
        23.7504         26.7504
  21799134.8934    6940195.43647   5374048.65947                  21799143.7794
        26.7504         27.0004
  21865462.0644   -5747381.56648  -4403499.50247                  21865470.2484
        29.5004         28.0004
 00  5  1 19 26 30.0020000  0  8G 4G 5G 6G17G 9G10G24G30
  24607567.4324   12765486.06045   9853472.88145                  24607578.2874
        10.7504         10.2504
  21049586.0414    1581331.63448   1250462.23147                  21049594.3774
        29.5004         28.5004
  23848521.5184   -5224136.24046  -3961240.02446                  23848533.0534
        14.5004         15.0004
  25659296.9324    -351474.94044   -142604.25645                  25659321.6784
         7.0004          8.7504
  25656885.7914   12410277.15043   9329301.18645                  25656912.8694
         6.0004          7.2504
  22014852.8144   -5915873.68447  -4528281.43247                  22014863.1544
        23.7504         26.5004
  21807082.1114    6981957.20647   5406590.28547                  21807091.0804
        26.2504         27.0004
  21862730.5644   -5761735.44548  -4414684.33547                  21862738.8774
        29.5004         28.0004
 00  5  1 19 26 45.0020000  0  8G 4G 5G 6G17G 9G10G24G30
  24619187.6974   12826547.33145   9901053.05645                  24619197.3114
        11.7504         10.0004
  21053980.2054    1604422.93548   1268455.42747                  21053988.6004
        29.0004         28.7504
  23844344.0724   -5246087.54646  -3978344.89346                  23844355.2214
        14.2504         15.0004
  25652948.6664    -384833.95944   -168598.10445                  25652972.2644
         7.0004          9.0004
  25667748.1194   12467357.33643   9373779.06745                  25667775.5494
         5.7504          7.7504
  22012202.8224   -5929798.25947  -4539131.70447                  22012213.0454
        24.0004         26.2504
  21815042.4634    7023789.15347   5439186.59347                  21815051.6434
        26.2504         27.0004
  21860021.9944   -5775968.98648  -4425775.40147                  21860030.1664
        29.5004         28.0004
 00  5  1 19 27  0.0020000  0  8G 4G 5G 6G17G 9G10G24G30
  24630808.5414   12887615.65145   9948638.73445                  24630819.0574
        11.0004          9.7504
  21058401.3224    1627655.99948   1286559.08947                  21058409.7054
        29.5004         28.7504
  23840170.4864   -5268019.39146  -3995434.57546                  23840182.4554
        14.2504         14.5004
  25646607.5334    -418156.10844   -194563.20945                  25646630.8264
         7.0004          7.7504
  25678607.1894   12524421.68543   9418244.62545                  25678633.0614
         6.0004          7.2504
  22009578.3854   -5943589.00247  -4549877.69747                  22009588.8304
        24.0004         26.2504
  21823015.9394    7065690.61547   5471837.07747                  21823025.0964
        26.2504         27.0004
  21857336.3464   -5790081.23148  -4436771.94447                  21857344.4714
        29.7504         28.2504
 00  5  1 19 27 15.0020000  0  8G 4G 5G 6G17G 9G10G24G30
  24642430.5024   12948690.31045   9996229.32945                  24642440.8894
        10.0004          9.5004
  21062849.1584    1651031.13848   1304773.45447                  21062857.5184
        29.0004         28.7504
  23836001.1824   -5289931.07946  -4012508.57946                  23836013.4324
        14.5004         14.7504
  25640273.8544    -451440.29044   -220498.76645                  25640298.6004
         6.5004          7.5004
  25689462.1044   12581469.79744   9462697.49145                  25689489.2174
         6.2504          6.2504
  22006980.3544   -5957243.33747  -4560517.39047                  22006990.7054
        23.7504         26.2504
  21831001.7914    7107657.52447   5504538.54847                  21831010.8894
        26.5004         26.7504
  21854673.7524   -5804072.18548  -4447673.97747                  21854682.0184
        30.0004         28.2504
 00  5  1 19 27 30.0020000  0  8G 4G 5G 6G17G 9G10G24G30
  24654054.1744   13009771.57145  10043825.02145                  24654063.8934
        10.7504          9.0004
  21067323.6194    1674543.18548   1323094.50447                  21067331.9904
        29.2504         28.7504
  23831833.8384   -5311826.71446  -4029570.06646                  23831845.6544
        14.2504         15.0004
  25633946.2134    -484688.63143   -246406.38445                  25633969.0254
         5.0004          6.5004
  25700315.4164   12638501.46344   9507137.55645                  25700339.4004
         6.2504          8.0004
  22004407.4474   -5970762.64247  -4571051.87147                  22004417.8814
        23.7504         26.5004
  21838999.2214    7149684.13747   5537286.54647                  21839008.2714
        26.0004         26.7504
  21852034.5964   -5817942.94648  -4458482.35647                  21852042.8614
        29.7504         28.2504
 00  5  1 19 27 45.0020000  0  8G 4G 5G 6G17G 9G10G24G30
  24665678.8144   13070861.37145  10091427.47645                  24665687.5494
        10.0004          9.0004
  21071823.9944    1698192.11148   1341522.21647                  21071832.4944
        29.0004         28.7504
  23827670.3934   -5333708.92746  -4046621.08046                  23827682.1974
        14.5004         15.5004
  25627625.6194    -517902.08143   -272286.75745                  25627649.4394
         5.5004          6.7504
  25711166.4164   12695516.50944   9551564.67345                  25711190.6584
         6.7504          7.7504
  22001860.4944   -5984147.22347  -4581481.37047                  22001870.8574
        23.7504         26.5004
  21847007.4244    7191766.87447   5570078.27747                  21847016.5454
        26.2504         26.7504
  21849418.2754   -5831691.96048  -4469195.86047                  21849426.4824
        30.0004         28.5004
 00  5  1 19 28  0.0020000  0  8G 4G 5G 6G17G 9G10G24G30
  24677306.2134   13131964.63545  10139040.30645                  24677316.4714
         9.7504          8.7504
  21076351.1744    1721982.32648   1360060.01647                  21076359.7564
        29.0004         28.7504
  23823508.6044   -5355577.73746  -4063661.66046                  23823520.0214
        14.2504         15.0004
  25621313.6974    -551075.03443   -298135.59745                  25621340.0844
         6.0004          7.7504
  25722012.8544   12752519.80444   9595982.69445                  25722036.6274
         6.7504          7.5004
  21999340.0254   -5997393.00047  -4591802.71247                  21999350.3074
        24.2504         26.5004
  21855027.3074    7233910.86047   5602917.73447                  21855036.2524
        26.5004         26.5004
  21846825.8614   -5845314.33448  -4479810.69047                  21846834.1044
        29.7504         28.5004
 00  5  1 19 28 15.0020000  0  8G 4G 5G 6G17G 9G10G24G30
  24688935.8464   13193077.46045  10186660.66845                  24688945.7524
         9.7504          9.2504
  21080905.2444    1745914.13748   1378708.15947                  21080913.8504
        29.0004         28.5004
  23819349.5254   -5377434.53646  -4080692.88846                  23819361.3894
        14.7504         15.0004
  25615008.4554    -584206.06944   -323951.80045                  25615032.6394
         7.0004          8.5004
  25732858.0574   12809509.56444   9640390.07445                  25732884.1864
         6.7504          7.2504
  21996846.1584   -6010498.91947  -4602015.07147                  21996856.3814
        24.2504         26.7504
  21863058.5644    7276116.09747   5635804.91547                  21863067.4284
        26.0004         26.7504
  21844257.7684   -5858809.65748  -4490326.51647                  21844266.1044
        29.7504         28.5004
 00  5  1 19 28 30.0020000  0  8G 4G 5G 6G17G 9G10G24G30
  24700565.9324   13254194.14245  10234283.97845                  24700576.4594
         9.0004          8.5004
  21085486.8934    1769990.63548   1397469.03847                  21085495.4634
        29.2504         28.7504
  23815191.3774   -5399284.17946  -4097718.52946                  23815202.4434
        15.0004         15.2504
  25608711.8544    -617294.98444   -349735.15345                  25608737.1744
         7.2504          8.7504
  25743699.3614   12866481.06444   9684783.30245                  25743724.7404
         6.5004          6.7504
  21994379.0574   -6023463.62947  -4612117.39647                  21994389.3614
        24.2504         26.2504
  21871101.7524    7318382.70447   5668739.92247                  21871110.7444
        26.5004         26.5004
  21841714.4794   -5872174.89148  -4500740.97247                  21841722.9204
        29.5004         28.5004
 00  5  1 19 28 45.0020000  0  8G 4G 5G 6G17G 9G10G24G30
  24712196.8144   13315313.43645  10281909.36245                  24712207.7294
         9.7504         10.0004
  21090096.4164    1794214.23648   1416344.54647                  21090104.8814
        29.2504         28.7504
  23811034.7134   -5421128.54846  -4114740.06746                  23811046.1314
        15.0004         15.2504
  25602424.2914    -650339.40244   -375483.84745                  25602449.8344
         7.2504          8.7504
  25754537.3464   12923434.18144   9729162.19945                  25754563.6974
         6.5004          6.7504
  21991938.7294   -6036285.87347  -4622108.71047                  21991949.0334
        24.2504         26.2504
  21879157.2054    7360713.77947   5701725.16147                  21879166.2094
        26.5004         26.5004
  21839196.0574   -5885408.62448  -4511052.96247                  21839204.5684
        29.2504         28.5004
 00  5  1 19 29  0.0020000  0  7G 4G 5G 6G17G10G24G30
  24723827.8144   13376436.96645  10329537.96945                  24723838.7174
         9.0004          9.2504
  21094734.6974    1818588.53548   1435337.48047                  21094743.2094
        29.5004         28.7504
  23806879.3774   -5442964.33846  -4131754.91246                  23806890.4794
        15.2504         15.5004
  25596144.9324    -683334.32744   -401193.95445                  25596170.0184
         6.7504          9.2504
  21989526.6894   -6048961.53247  -4631985.80247                  21989536.8424
        24.2504         26.5004
  21887225.5494    7403114.92347   5734765.00147                  21887234.5534
        26.2504         26.7504
  21836703.4004   -5898508.19048  -4521260.40747                  21836711.9124
        29.5004         28.7504
 00  5  1 19 29 15.0020000  0  7G 4G 5G 6G17G10G24G30
  24735458.7134   13437557.99145  10377164.76945                  24735470.1434
         8.7504          8.7504
  21099400.7294    1843108.25048   1454443.72447                  21099408.9824
        29.2504         29.0004
  23802725.3464   -5464795.80346  -4148766.40146                  23802736.1074
        15.7504         15.7504
  25589873.7684    -716284.07043   -426868.88945                  25589898.2324
         5.7504          7.5004
  21987141.2754   -6061496.69947  -4641753.42047                  21987151.3934
        24.5004         26.7504
  21895306.5254    7445580.58147   5767855.10847                  21895315.4594
        26.2504         26.7504
  21834235.2994   -5911477.03148  -4531365.98747                  21834243.6584
        29.7504         28.7504
 00  5  1 19 29 30.0020000  0  7G 4G 5G 6G17G10G24G30
  24747090.3384   13498680.02045  10424792.20245                  24747101.7564
         9.2504          9.5004
  21104094.3614    1867773.01648   1473662.99747                  21104102.8964
        29.2504         29.0004
  23798571.6044   -5486621.92246  -4165773.71946                  23798582.3304
        15.7504         15.5004
  25583612.8774    -749187.37743   -452507.59445                  25583637.3304
         6.0004          7.5004
  21984782.6744   -6073891.29747  -4651411.50247                  21984792.8614
        24.5004         26.5004
  21903400.0414    7488111.90947   5800996.39047                  21903408.9634
        26.5004         26.5004
  21831792.6664   -5924312.68948  -4541367.79047                  21831801.0254
        29.5004         29.0004
 00  5  1 19 29 45.0020000  0  7G 4G 5G 6G17G10G24G30
  24758721.3464   13559802.77845  10472420.32645                  24758733.4324
         8.2504          8.7504
  21108815.2604    1892581.16448   1492993.99447                  21108823.7484
        29.5004         29.0004
  23794418.5254   -5508445.20146  -4182778.82146                  23794429.5334
        15.7504         16.0004
  25577359.6274    -782046.38243   -478111.77545                  25577382.9084
         5.7504          7.0004
  21982450.1824   -6086148.85647  -4660962.80047                  21982460.2404
        24.5004         26.7504
  21911505.7444    7530708.35847   5834188.40847                  21911514.7834
        26.5004         26.5004
  21829375.5184   -5937015.01248  -4551265.70047                  21829384.0184
        29.2504         28.7504
 00  5  1 19 30  0.0020000  0  7G 4G 5G 6G17G10G24G30
  24770352.9864   13620926.63945  10520049.20145                  24770365.9044
         9.0004          8.5004
  21113564.2444    1917538.22348   1512441.02947                  21113572.7684
        29.5004         28.7504
  23790267.6894   -5530260.93646  -4199778.03346                  23790278.8854
        16.0004         16.0004
  25571116.2994    -814858.15844   -503679.26045                  25571141.1744
         6.7504          7.5004
  21980144.1114   -6098267.23447  -4670405.64447                  21980154.1114
        24.5004         27.0004
  21919624.5414    7573372.73147   5867433.35947                  21919633.6154
        26.5004         26.5004
  21826983.7914   -5949584.14648  -4561059.81947                  21826992.3854
        29.5004         29.0004
 00  5  1 19 30 15.0020000  0  7G 4G 5G 6G17G10G24G30
  24781985.9714   13682054.09145  10567680.94445                  24781994.7994
         9.5004          9.0004
  21118342.3384    1942646.20648   1532005.66147                  21118350.9554
        29.0004         28.7504
  23786118.9244   -5552062.38646  -4216766.12846                  23786129.5334
        16.0004         16.0004
  25564880.7754    -847621.49644   -529208.93645                  25564905.7324
         7.0004          8.0004
  21977864.7214   -6110245.34347  -4679739.19047                  21977874.8384
        24.7504         27.0004
  21927757.0024    7616107.71547   5900733.32947                  21927765.8654
        26.5004         26.5004
  21824617.9714   -5962015.95548  -4570746.93347                  21824626.6004
        29.5004         29.0004
 00  5  1 19 30 30.0020000  0  7G 4G 5G 6G17G10G24G30
  24793617.8774   13743185.57745  10615315.80945                  24793630.6784
         8.7504          9.5004
  21123148.0494    1967901.04848   1551684.73147                  21123156.7364
        28.7504         28.7504
  23781973.2754   -5573846.57046  -4233740.74746                  23781984.3304
        16.0004         15.7504
  25558655.1504    -880338.89044   -554702.74645                  25558680.5764
         7.2504          8.7504
  21975611.4394   -6122086.30747  -4688965.87047                  21975621.3814
        24.7504         27.0004
  21935901.6664    7658908.62247   5934084.67047                  21935910.4244
        26.7504         26.5004
  21822278.5414   -5974311.04348  -4580327.51747                  21822287.0884
        28.7504         28.7504
 00  5  1 19 30 45.0020000  0  7G 4G 5G 6G17G10G24G30
  24805253.6584   13804327.28845  10662958.66545                  24805263.5184
         9.7504          9.2504
  21127981.3544    1993300.46548   1571476.46247                  21127989.9244
        29.0004         28.5004
  23777831.9634   -5595609.53846  -4250698.85146                  23777842.3504
        16.2504         16.0004
  25552438.0964    -913010.23744   -580160.75045                  25552460.3114
         6.7504          8.2504
  21973384.5574   -6133787.91447  -4698083.95747                  21973394.4514
        24.7504         27.0004
  21944058.8074    7701774.07547   5967486.30247                  21944067.7054
        26.7504         26.7504
  21819964.2294   -5986472.58648  -4589804.04047                  21819972.9754
        28.5004         28.5004
 00  5  1 19 31  0.0020000  0  7G 4G 5G 6G17G10G24G30
  24816889.9554   13865480.35145  10710610.34245                  24816901.7364
         8.2504          9.2504
  21132841.0644    2018837.90548   1591375.73547                  21132849.7294
        29.0004         28.7504
  23773694.5104   -5617352.47946  -4267641.36546                  23773705.0144
        16.5004         16.0004
  25546228.4474    -945637.73544   -605584.56945                  25546252.7604
         6.2504          8.5004
  21971183.8774   -6145351.88547  -4707094.80747                  21971193.8654
        25.0004         27.0004
  21952227.0494    7744698.71147   6000934.05447                  21952235.8894
        26.7504         26.5004
  21817673.7134   -5998508.07148  -4599182.32847                  21817682.2604
        28.5004         28.7504
 00  5  1 19 31 15.0020000  0  7G 4G 5G 6G17G10G24G30
  24828529.1744   13926644.35745  10758270.53045                  24828537.3934
         9.2504          9.0004
  21137725.9944    2044509.13048   1611379.25947                  21137734.7874
        29.0004         28.7504
  23769559.9474   -5639075.55546  -4284568.38446                  23769571.1894
        15.7504         16.2504
  25540027.6044    -978225.71243   -630977.56845                  25540053.0294
         5.7504          8.5004
  21969009.3304   -6156780.21447  -4715999.95747                  21969019.2254
        25.5004         27.2504
  21960405.2834    7787675.33047   6034422.30747                  21960414.1824
        27.0004         26.7504
  21815407.0964   -6010419.70848  -4608464.11847                  21815415.7484
        28.7504         28.7504
 00  5  1 19 31 30.0020000  0  7G 4G 5G 6G17G10G24G30
  24840171.9864   13987825.34245  10805943.97945                  24840184.7524
         9.7504         10.0004
  21142637.5804    2070319.50048   1631491.21047                  21142646.1974
        28.7504         28.7504
  23765431.7054   -5660773.51346  -4301475.83146                  23765442.3964
        16.2504         16.2504
  25533834.1044   -1010770.96743   -656337.25945                  25533856.7754
         6.0004          8.2504
  21966861.1194   -6168068.50347  -4724795.98047                  21966870.9204
        25.5004         27.2504
  21968593.8144    7830706.80547   6067953.31047                  21968602.7364
        26.7504         26.5004
  21813165.1274   -6022201.84548  -4617644.99447                  21813173.7094
        28.7504         28.7504
 00  5  1 19 31 45.0020000  0  7G 4G 5G 6G17G10G24G30
  24851815.8934   14049018.01445  10853626.52345                  24851826.3964
         9.5004          9.5004
  21147575.1824    2096265.64048   1651708.95747                  21147583.8464
        29.0004         28.7504
  23761306.5724   -5682451.02446  -4318367.33746                  23761317.5574
        16.0004         16.2504
  25527647.2054   -1043279.17544   -681668.10345                  25527670.8504
         6.2504          8.2504
  21964739.1434   -6179220.46547  -4733485.77947                  21964748.9324
        26.0004         27.2504
  21976792.2054    7873789.70647   6101524.38347                  21976801.0924
        27.0004         27.0004
  21810946.7214   -6033859.12748  -4626728.58547                  21810955.3504
        28.5004         28.7504
 00  5  1 19 32  0.0020000  0  7G 4G 5G 6G17G10G24G30
  24863463.6974   14110221.05645  10901317.18145                  24863475.8304
         9.2504          9.0004
  21152539.0184    2122350.54248   1672034.82147                  21152547.4474
        29.0004         28.7504
  23757185.0334   -5704106.37946  -4335241.59746                  23757196.1934
        15.5004         16.0004
  25521468.5804   -1075748.70945   -706968.81745                  25521489.9634
         7.5004          8.0004
  21962643.4324   -6190233.58847  -4742067.39247                  21962653.1504
        25.7504         27.2504
  21985001.4084    7916928.49347   6135138.99547                  21985010.3654
        27.0004         26.7504
  21808752.2524   -6045391.96848  -4635715.20947                  21808761.0334
        28.7504         28.7504
 00  5  1 19 32 15.0020000  0  7G 4G 5G 6G17G10G24G30
  24875111.5884   14171432.65245  10949014.45445                  24875122.8424
        10.7504         10.7504
  21157528.8934    2148573.02248   1692467.89847                  21157537.5214
        28.7504         28.7504
  23753068.8384   -5725738.75346  -4352097.94246                  23753079.9284
        15.5004         16.0004
  25515297.3694   -1108180.33945   -732240.07745                  25515318.2604
         8.0004          8.0004
  21960574.1744   -6201106.66747  -4750539.88147                  21960583.9984
        26.0004         27.5004
  21993221.4004    7960124.38947   6168798.12047                  21993230.3114
        27.0004         26.5004
  21806581.4864   -6056798.93448  -4644603.75047                  21806590.2324
        28.5004         29.0004
 00  5  1 19 32 30.0020000  0  7G 4G 5G 6G17G10G24G30
  24886760.7134   14232649.98945  10996716.21445                  24886772.2834
        10.5004         10.7504
  21162544.2834    2174929.19648   1713005.14647                  21162552.8544
        29.0004         28.7504
  23748956.1044   -5747352.46646  -4368939.73446                  23748967.2404
        16.2504         16.5004
  25509133.0334   -1140574.29544   -757481.92445                  25509155.7174
         6.7504          8.5004
  21958531.7834   -6211839.10347  -4758902.78247                  21958541.5614
        26.2504         27.5004
  22001451.8614    8003375.78247   6202500.48247                  22001460.8074
        26.7504         26.5004
  21804434.7994   -6068080.23048  -4653394.35847                  21804443.6394
        28.5004         28.7504
 00  5  1 19 32 45.0020000  0  7G 4G 5G 6G17G10G24G30
  24898410.4634   14293871.84945  11044421.51545                  24898421.2254
        10.0004         10.2504
  21167585.8074    2201421.55548   1733648.51547                  21167594.4124
        29.2504         28.7504
  23744846.1194   -5768949.15146  -4385768.28446                  23744857.2914
        15.2504         16.2504
  25502975.4714   -1172928.20443   -782692.54745                  25502998.9754
         5.7504          8.0004
  21956517.5414   -6222424.56847  -4767151.16247                  21956527.2954
        26.2504         27.5004
  22009693.8774    8046687.16447   6236249.59147                  22009702.7174
        27.2504         26.7504
  21802311.8934   -6079235.91648  -4662087.09647                  21802320.6274
        28.7504         28.7504
 00  5  1 19 33  0.0020000  0  7G 4G 5G 6G17G10G24G30
  24910062.2994   14355096.34145  11092128.84645                  24910073.9754
        11.2504         10.0004
  21172654.0254    2228055.41448   1754402.14547                  21172662.5144
        29.5004         28.7504
  23740739.1664   -5790530.13846  -4402584.58046                  23740750.4324
        15.2504         16.2504
  25496826.4864   -1205239.79043   -807870.20645                  25496852.6044
         5.0004          8.0004
  21954531.8694   -6232859.08247  -4775281.91347                  21954541.6824
        26.0004         27.7504
  22017947.8074    8090063.62947   6270049.41247                  22017956.6704
        27.2504         26.7504
  21800213.5804   -6090262.01048  -4670678.84747                  21800222.3034
        28.7504         28.7504
 00  5  1 19 33 15.0020000  0  7G 4G 5G 6G17G10G24G30
  24921710.7994   14416315.41045  11139832.00745                  24921721.4904
        10.5004         10.7504
  21177749.2294    2254830.91148   1775266.13947                  21177757.9514
        29.5004         29.2504
  23736634.3544   -5812099.48946  -4419391.81346                  23736645.8184
        15.0004         16.2504
  25490685.6434   -1237510.48743   -833015.89845                  25490711.6074
         5.5004          8.2504
  21952574.2914   -6243146.39447  -4783297.96247                  21952583.9394
        26.0004         27.7504
  22026214.3074    8133502.97547   6303898.23247                  22026223.1824
        26.7504         26.7504
  21798140.8544   -6101154.61548  -4679166.58347                  21798149.5064
        28.7504         28.7504
 00  5  1 19 33 30.0020000  0  7G 4G 5G 6G17G10G24G30
  24933358.6194   14477524.60945  11187527.40345                  24933370.3304
        10.0004         10.7504
  21182871.1584    2281746.33948   1796239.17447                  21182879.7404
        29.5004         29.2504
  23732531.6354   -5833660.41046  -4436192.48446                  23732543.5574
        15.0004         16.5004
  25484551.6434   -1269742.18043   -858131.31145                  25484575.5454
         6.0004          8.2504
  21950644.1974   -6253288.99547  -4791201.25347                  21950653.8224
        26.2504         27.5004
  22034492.3934    8177005.11247   6337795.98347                  22034501.2914
        27.0004         26.7504
  21796093.2444   -6111914.65848  -4687551.02647                  21796101.9434
        29.0004         28.7504
 00  5  1 19 33 45.0020000  0  7G 4G 5G 6G17G10G24G30
  24945004.8464   14538722.25145  11235213.81445                  24945015.2444
        11.2504         11.0004
  21188019.8694    2308802.51648   1817321.87947                  21188028.4394
        29.7504         29.5004
  23728429.9794   -5855215.04246  -4452988.23946                  23728441.6314
        14.7504         16.0004
  25478426.5964   -1301931.83445   -883213.89345                  25478450.3464
         7.5004          9.5004
  21948742.1274   -6263283.74647  -4798989.34047                  21948751.9394
        26.0004         27.5004
  22042783.4164    8220572.93447   6371744.91347                  22042792.3034
        27.0004         26.7504
  21794071.1044   -6122540.99748  -4695831.28047                  21794079.7564
        29.2504         29.0004
 00  5  1 19 34  0.0020000  0  7G 4G 5G 6G17G10G24G30
  24956648.2754   14599908.82945  11282891.64645                  24956659.3774
        11.0004         10.0004
  21193195.1194    2335998.43148   1838513.46747                  21193203.7604
        29.7504         29.5004
  23724329.1584   -5876763.15246  -4469778.92746                  23724340.3654
        15.2504         15.7504
  25472308.8854   -1334077.10045   -908261.96145                  25472331.6974
         7.7504          8.7504
  21946868.4864   -6273129.64347  -4806661.43347                  21946878.3574
        25.7504         27.7504
  22051086.5644    8264207.83847   6405746.11847                  22051095.6154
        26.7504         26.7504
  21792074.5334   -6133034.13048  -4704007.74247                  21792083.1154
        29.5004         28.7504
 00  5  1 19 34 15.0020000  0  7G 4G 5G 6G17G10G24G30
  24968288.6044   14661082.99845  11330559.83145                  24968299.9754
        10.0004         10.2504
  21198396.8544    2363333.74348   1859813.68647                  21198405.4004
        29.7504         29.5004
  23720229.6354   -5898304.97346  -4486564.70646                  23720241.6744
        15.0004         16.0004
  25466201.2134   -1366178.91945   -933276.22245                  25466224.2604
         7.5004          8.5004
  21945022.9394   -6282828.39047  -4814218.86147                  21945032.8344
        25.7504         27.5004
  22059402.2444    8307906.04847   6439796.65447                  22059411.2834
        26.7504         26.7504
  21790102.6894   -6143395.57448  -4712081.58747                  21790111.2834
        29.2504         28.7504
 00  5  1 19 34 30.0020000  0  7G 4G 5G 6G17G10G24G30
  24979928.5254   14722248.96945  11378221.52245                  24979939.8264
        10.7504         11.0004
  21203625.4634    2390809.95848   1881223.69147                  21203633.9984
        30.0004         29.7504
  23716132.7754   -5919835.96646  -4503342.04246                  23716144.6744
        15.0004         16.2504
  25460100.0104   -1398233.07644   -958253.29945                  25460122.8934
         6.5004          6.7504
  21943205.1114   -6292379.28047  -4821661.08147                  21943214.9944
        25.5004         27.5004
  22067729.5644    8351667.51247   6473896.47747                  22067738.4754
        26.7504         26.7504
  21788156.7214   -6153621.81148  -4720050.07547                  21788165.2564
        29.2504         28.7504
 00  5  1 19 34 45.0020000  0  7G 4G 5G 6G17G10G24G30
  24991567.6194   14783412.07045  11425881.05745                  24991577.2794
        10.7504         10.0004
  21208881.6044    2418430.72348   1902746.33747                  21208890.1154
        30.0004         29.5004
  23712038.4714   -5941351.13546  -4520107.05746                  23712050.0414
        15.0004         16.0004
  25454009.9004   -1430234.41644   -983189.23545                  25454033.2054
         6.2504          8.0004
  21941416.7214   -6301778.60347  -4828985.19847                  21941426.4394
        25.2504         27.5004
  22076070.1744    8395497.19847   6508049.45747                  22076079.2254
        26.7504         26.7504
  21786237.2604   -6163708.69148  -4727909.97747                  21786245.6784
        29.5004         29.0004
 00  5  1 19 35  0.0020000  0  7G 4G 5G 6G17G10G24G30
  25003205.1584   14844570.46045  11473536.91745                  25003215.8384
         9.5004          9.7504
  21214164.7214    2446193.38548   1924379.55247                  21214173.2444
        29.7504         29.5004
  23707946.3224   -5962854.41946  -4536862.80646                  23707958.0214
        14.5004         16.0004
  25447929.4864   -1462189.25543  -1008088.86045                  25447955.0064
         6.0004          8.5004
  21939655.5494   -6311032.56447  -4836196.04347                  21939665.4324
        25.0004         27.2504
  22084422.3224    8439388.83147   6542250.71047                  22084431.4794
        26.5004         26.7504
  21784343.6044   -6173659.12448  -4735663.55147                  21784352.1394
        29.2504         28.7504
 00  5  1 19 35 15.0020000  0  7G 4G 5G 6G17G10G24G30
  25014842.8224   14905724.13845  11521189.09845                  25014853.4204
         9.7504          9.2504
  21219474.3144    2474096.21948   1946121.98847                  21219482.8854
        29.5004         29.2504
  23703856.7834   -5984347.03546  -4553610.23246                  23703869.1504
        15.0004         16.2504
  25441856.7604   -1494096.92644  -1032951.74445                  25441879.2324
         6.5004          8.2504
  21937921.0964   -6320146.17247  -4843297.52047                  21937930.9434
        24.7504         27.2504
  22092785.2604    8483336.40047   6576495.55047                  22092794.3814
        26.5004         26.7504
  21782475.9634   -6183475.01748  -4743312.29047                  21782484.3464
        29.5004         28.7504
 00  5  1 19 35 30.0020000  0  7G 4G 5G 6G17G10G24G30
  25026480.2444   14966878.44045  11568841.74345                  25026490.4794
         9.5004         10.0004
  21224811.4164    2502142.30948   1967976.04847                  21224819.9514
        29.7504         29.5004
  23699769.7294   -6005823.82046  -4570345.33646                  23699781.3814
        15.0004         16.5004
  25435794.9864   -1525954.49044  -1057775.60045                  25435816.6504
         6.7504          8.5004
  21936214.2134   -6329117.26747  -4850287.95247                  21936224.1664
        24.7504         27.0004
  22101159.7134    8527343.71347   6610786.94447                  22101168.8114
        26.5004         26.5004
  21780633.3224   -6193157.77348  -4750857.28147                  21780641.6584
        29.5004         28.7504
 00  5  1 19 35 45.0020000  0  7G 4G 5G 6G17G10G24G30
  25038117.3544   15028032.76845  11616494.37845                  25038129.6864
         9.5004         10.0004
  21230174.8384    2530328.20348   1989939.05347                  21230183.4434
        29.5004         29.5004
  23695685.4324   -6027285.81246  -4587068.91046                  23695696.8384
        15.7504         16.2504
  25429741.4554   -1557764.41144  -1082562.35245                  25429763.4004
         6.7504          9.0004
  21934533.6434   -6337948.48147  -4857169.38647                  21934543.6664
        24.5004         26.7504
  22109544.7994    8571408.27447   6645122.94847                  22109554.0374
        26.5004         26.5004
  21778815.1434   -6202712.01248  -4758302.13947                  21778823.3034
        30.0004         28.7504
 00  5  1 19 36  0.0020000  0  7G 4G 5G 6G17G10G24G30
  25049754.9244   15089190.70245  11664149.89145                  25049766.6004
         8.5004          8.7504
  21235565.9944    2558657.89148   2012014.10047                  21235574.7994
        29.5004         29.2504
  23691605.1354   -6048729.43046  -4603778.17746                  23691616.4474
        15.5004         16.2504
  25423697.4474   -1589524.32144  -1107310.14445                  25423720.5294
         6.5004          8.5004
  21932879.9324   -6346637.85647  -4863940.29747                  21932889.7914
        24.7504         27.0004
  22117941.7444    8615534.24747   6679506.80447                  22117950.8544
        26.5004         26.5004
  21777022.0494   -6212134.35548  -4765644.21447                  21777030.2444
        30.0004         29.0004
 00  5  1 19 36 15.0020000  0  7G 4G 5G 6G17G10G24G30
  25061393.1044   15150348.10045  11711804.97645                  25061404.4864
         9.7504          9.5004
  21240983.8854    2587129.35648   2034199.62847                  21240992.5374
        29.2504         29.2504
  23687527.7524   -6070155.34946  -4620473.64646                  23687539.1704
        15.7504         16.2504
  25417662.5644   -1621238.66044  -1132022.41345                  25417683.7254
         6.2504          7.7504
  21931252.7134   -6355190.65047  -4870604.78047                  21931262.4324
        24.5004         26.7504
  22126349.7604    8659718.26047   6713935.88347                  22126358.7754
        26.0004         26.5004
  21775253.7444   -6221428.55448  -4772886.43647                  21775261.9634
        30.0004         28.7504
 00  5  1 19 36 30.0020000  0  7G 4G 5G 6G17G10G24G30
  25073031.8224   15211509.21045  11759462.94645                  25073041.5184
         8.7504          8.5004
  21246428.9004    2615743.38948   2056496.24447                  21246437.5764
        29.5004         29.2504
  23683453.9864   -6091561.27546  -4637153.52646                  23683465.1114
        16.2504         16.5004
  25411637.0804   -1652903.07044  -1156695.74345                  25411659.4364
         6.7504          8.2504
  21929651.9554   -6363601.99347  -4877159.03847                  21929661.7094
        24.7504         27.0004
  22134769.6894    8703964.28047   6748413.28747                  22134778.7294
        26.0004         26.2504
  21773510.3384   -6230589.76548  -4780025.03147                  21773518.3814
        29.7504         28.7504
 00  5  1 19 36 45.0020000  0  7G 4G 5G 6G17G10G24G30
  25084670.0964   15272670.39345  11807120.97845                  25084682.2294
         7.7504          8.7504
  21251900.2214    2644495.30048   2078900.29947                  21251908.9794
        29.2504         29.0004
  23679383.5644   -6112952.13246  -4653821.68646                  23679394.9824
        16.5004         16.2504
  25405619.8934   -1684520.11144  -1181332.21245                  25405640.0414
         6.7504          8.5004
  21928077.7364   -6371873.84347  -4883604.60647                  21928087.4674
        24.7504         27.0004
  22143200.8304    8748270.28547   6782937.42547                  22143209.9984
        26.2504         26.5004
  21771791.6584   -6239621.45448  -4787062.70247                  21771799.9364
        30.0004         28.7504
 00  5  1 19 37  0.0020000  0  7G 4G 5G 6G17G10G24G30
  25096308.4324   15333832.93045  11854780.01845                  25096321.0214
         7.5004          8.5004
  21257398.1194    2673386.47248   2101412.86847                  21257406.8424
        29.5004         29.2504
  23675315.8144   -6134327.85546  -4670478.04346                  23675326.8344
        16.2504         17.0004
  25399613.5184   -1716089.98945  -1205931.91445                  25399634.2794
         8.0004          8.7504
  21926530.8614   -6380001.71447  -4889937.98747                  21926540.4394
        24.7504         27.0004
  22151643.2754    8792636.28747   6817508.31847                  22151652.4674
        26.0004         26.2504
  21770097.4714   -6248524.54648  -4794000.16747                  21770105.6194
        29.7504         28.7504
 00  5  1 19 37 15.0020000  0  7G 4G 5G 6G17G10G24G30
  25107948.1354   15394991.15645  11902435.75145                  25107957.3264
         8.7504          7.7504
  21262921.6354    2702412.68448   2124030.65847                  21262930.3814
        29.2504         29.2504
  23671250.6194   -6155693.20046  -4687126.31546                  23671261.4754
        16.2504         16.7504
  25393612.7444   -1747617.43645  -1230498.56145                  25393635.0294
         7.5004          9.5004
  21925010.7834   -6387989.69047  -4896162.35447                  21925020.5614
        25.0004         27.0004
  22160096.0254    8837055.54747   6852120.71047                  22160105.1584
        26.0004         26.2504
  21768426.5254   -6257305.31648  -4800842.31347                  21768434.7094
        29.7504         28.7504
 00  5  1 19 37 30.0020000  0  7G 4G 5G 6G17G10G24G30
  25119583.6584   15456145.65044  11950088.63445                  25119595.7564
         6.7504          9.0004
  21268470.7054    2731574.70548   2146754.28447                  21268479.4514
        29.5004         29.0004
  23667187.7054   -6177042.70446  -4703762.23846                  23667198.4674
        17.0004         16.7504
  25387621.9714   -1779099.49845  -1255029.79045                  25387644.3504
         8.0004          9.7504
  21923518.2524   -6395832.80447  -4902273.84147                  21923528.0064
        24.7504         27.2504
  22168560.0184    8881533.84647   6886779.10647                  22168569.3384
        26.0004         26.0004
  21766779.4244   -6265959.82548  -4807586.08347                  21766787.5844
        29.2504         28.5004
 00  5  1 19 37 45.0020000  0  7G 4G 5G 6G17G10G24G30
  25131220.3144   15517294.14944  11997736.62045                  25131233.6544
         7.2504          7.5004
  21274045.2994    2760867.60148   2169579.88447                  21274054.0334
        29.5004         29.2504
  23663127.6044   -6198377.55046  -4720386.76046                  23663138.5884
        17.0004         17.0004
  25381638.8384   -1810540.26444  -1279528.86945                  25381662.2364
         7.2504          9.5004
  21922053.6664   -6403529.83547  -4908271.50047                  21922063.3854
        25.0004         27.0004
  22177034.7134    8926069.61847   6921482.29047                  22177043.8224
        25.7504         26.0004
  21765156.8074   -6274486.96148  -4814230.59147                  21765164.8854
        29.5004         28.5004
 00  5  1 19 38  0.0020000  0  7G 4G 5G 6G17G10G24G30
  25142855.4554   15578438.72444  12045381.78545                  25142867.9284
         6.2504          7.0004
  21279644.6894    2790292.56948   2192508.40047                  21279653.5184
        29.2504         29.0004
  23659070.2684   -6219698.33346  -4737000.29546                  23659081.4164
        16.2504         17.2504
  25375664.4554   -1841939.86345  -1303995.86745                  25375686.0844
         7.7504          9.2504
  21920617.7524   -6411076.29747  -4914151.83747                  21920627.5534
        25.0004         27.0004
  22185520.5884    8970661.76347   6956229.39947                  22185529.9084
        26.0004         26.0004
  21763559.0574   -6282882.70348  -4820772.72047                  21763567.2754
        29.2504         28.2504
 00  5  1 19 38 15.0020000  0  7G 4G 5G 6G17G10G24G30
  25154490.7834   15639577.51045  12093022.31145                  25154503.2684
         8.5004          9.0004
  21285269.0574    2819849.38248   2215539.65147                  21285277.7914
        29.5004         29.2504
  23655015.6824   -6241006.75946  -4753604.21446                  23655026.2214
        17.0004         17.0004
  25369695.5804   -1873300.60745  -1328432.60645                  25369717.3034
         7.5004          8.2504
  21919210.2754   -6418471.58547  -4919914.36747                  21919220.0294
        25.0004         27.2504
  22194016.5964    9015309.02047   6991019.45147                  22194025.8344
        26.0004         26.0004
  21761986.1744   -6291147.91648  -4827213.13747                  21761994.2994
        29.0004         28.2504
 00  5  1 19 38 30.0020000  0  7G 4G 5G 6G17G10G24G30
  25166124.0884   15700713.79244  12140660.95445                  25166135.4474
         7.2504          7.7504
  21290918.4554    2849536.27048   2238672.25947                  21290927.1194
        29.0004         29.2504
  23650963.1114   -6262301.07346  -4770197.14846                  23650973.7324
        17.0004         17.0004
  25363735.8544   -1904621.79345  -1352838.51245                  25363756.7684
         8.0004          8.7504
  21917831.9714   -6425714.54547  -4925558.20847                  21917841.5144
        25.0004         27.0004
  22202522.8774    9060011.32647   7025852.39947                  22202532.2684
        26.0004         26.0004
  21760438.5024   -6299281.46148  -4833550.95747                  21760446.6394
        29.2504         28.5004
 00  5  1 19 38 45.0020000  0  7G 4G 5G 6G17G10G24G30
  25177758.7134   15761847.22245  12188297.37045                  25177769.9204
         7.5004          8.0004
  21296592.3694    2879352.29748   2261905.49647                  21296601.1974
        29.5004         29.0004
  23646913.3074   -6283582.44846  -4786779.98946                  23646924.2324
        16.7504         17.0004
  25357782.1354   -1935906.60645  -1377216.07645                  25357804.4204
         8.5004          9.2504
  21916482.4004   -6432806.34747  -4931084.25947                  21916492.1194
        24.7504         27.2504
  22211039.6894    9104766.06547   7060726.20446                  22211048.8464
        25.2504         25.5004
  21758915.6194   -6307284.75148  -4839787.28347                  21758923.8734
        29.0004         28.2504
 00  5  1 19 39  0.0020000  0  7G 4G 5G 6G17G10G24G30
  25189391.1664   15822978.63245  12235932.16245                  25189403.2644
         7.5004          9.2504
  21302291.6974    2909302.29748   2285243.12747                  21302300.3964
        29.5004         29.2504
  23642866.8854   -6304847.82746  -4803350.36846                  23642878.1044
        16.7504         17.2504
  25351835.5644   -1967153.73745  -1401564.29845                  25351856.1004
         8.2504          9.5004
  21915161.9634   -6439745.93747  -4936491.70147                  21915171.8224
        24.7504         27.0004
  22219565.7834    9149571.41347   7095639.44247                  22219575.2214
        25.5004         25.7504
  21757417.6504   -6315155.91248  -4845920.64747                  21757425.9984
        29.0004         28.5004
 00  5  1 19 39 15.0020000  0  7G 4G 5G 6G17G10G24G30
  25201023.1114   15884108.96244  12283566.04445                  25201033.5924
         6.2504          6.7504
  21308017.2294    2939390.61548   2308688.53547                  21308026.0214
        29.5004         29.5004
  23638823.4394   -6326096.33846  -4819907.60946                  23638834.0374
        17.2504         17.2504
  25345897.0184   -1998362.02345  -1425882.20245                  25345918.0024
         8.5004          9.5004
  21913870.5414   -6446532.17847  -4941779.65847                  21913880.3774
        24.7504         27.0004
  22228102.0104    9194428.39947   7130592.91747                  22228111.2134
        25.7504         25.7504
  21755945.7364   -6322889.78248  -4851947.03747                  21755954.0494
        28.5004         28.5004
 00  5  1 19 39 30.0020000  0  7G 4G 5G 6G17G10G24G30
  25212655.6584   15945234.82045  12331196.66445                  25212665.0844
         7.5004          7.5004
  21313769.4864    2969618.44148   2332242.65647                  21313778.3034
        29.5004         29.5004
  23634782.8384   -6347329.33446  -4836452.75946                  23634793.5294
        17.0004         17.2504
  25339965.5644   -2029531.69745  -1450170.05545                  25339986.8304
         7.7504          9.5004
  21912607.3614   -6453168.28547  -4946950.62447                  21912617.2214
        24.7504         27.0004
  22236647.7444    9239337.89347   7165587.31146                  22236657.0534
        26.0004         25.5004
  21754500.6504   -6330484.02648  -4857864.62547                  21754509.0104
        28.7504         28.2504
 00  5  1 19 39 45.0020000  0  7G 4G 5G 6G17G10G24G30
  25224286.1194   16006357.29543  12378824.51645                  25224297.3034
         5.7504          7.2504
  21319548.4944    2999987.91848   2355907.14947                  21319557.1934
        29.5004         29.5004
  23630745.7364   -6368545.39046  -4852984.70146                  23630756.6744
        17.2504         17.7504
  25334041.1434   -2060661.90145  -1474427.11345                  25334064.4124
         8.2504          9.5004
  21911373.7754   -6459652.87247  -4952003.52147                  21911383.6114
        24.7504         27.0004
  22245204.1744    9284301.62547   7200623.96747                  22245213.4944
        25.5004         25.7504
  21753082.4244   -6337937.32148  -4863672.38547                  21753090.8074
        28.5004         28.5004
 00  5  1 19 40  0.0020000  0  7G 4G 5G 6G17G10G24G30
  25235919.4394   16067481.87645  12426453.87345                  25235930.0024
         9.0004          7.2504
  21325356.0414    3030506.56148   2379687.87347                  21325364.8814
        29.2504         29.5004
  23626712.1894   -6389741.46146  -4869501.07746                  23626722.8114
        17.5004         17.5004
  25328125.5104   -2091747.72545  -1498649.57845                  25328147.0104
         8.7504          9.5004
  21910168.9714   -6465982.92647  -4956936.00647                  21910178.7254
        25.0004         27.0004
  22253771.3694    9329321.65547   7235704.50146                  22253780.6434
        25.2504         25.2504
  21751691.3464   -6345247.63148  -4869368.72847                  21751699.7644
        28.5004         28.5004
 00  5  1 19 40 15.0020000  0  7G 4G 5G 6G17G10G24G30
  25247549.1974   16128605.91243  12474083.16145                  25247556.8774
         6.0004          6.7504
  21331192.0644    3061174.80448   2403585.17347                  21331200.8344
        29.2504         29.5004
  23622681.9634   -6410919.08046  -4886003.07246                  23622693.0064
        17.0004         17.5004
  25322219.1044   -2122788.20545  -1522836.79745                  25322240.2754
         9.2504         10.0004
  21908992.6434   -6472163.21347  -4961751.78047                  21909002.2914
        24.7504         27.2504
  22262348.7444    9374397.25847   7270828.33646                  22262358.1004
        25.5004         25.5004
  21750326.9554   -6352417.84148  -4874955.90247                  21750335.2914
        28.5004         28.5004
 00  5  1 19 40 30.0020000  0  7G 4G 5G 6G17G10G24G30
  25259181.4084   16189729.32044  12521711.59845                  25259195.6394
         6.5004          7.5004
  21337056.0964    3091990.62348   2427597.46147                  21337064.9474
        29.2504         29.5004
  23618655.8774   -6432075.99646  -4902488.93046                  23618667.3424
        17.0004         17.2504
  25316320.9164   -2153779.82945  -1546985.91045                  25316340.7134
         8.7504          9.2504
  21907844.7754   -6478196.33047  -4966452.89047                  21907854.4824
        25.0004         27.0004
  22270936.9634    9419527.82447   7305994.98746                  22270946.3894
        25.0004         25.2504
  21748989.0644   -6359447.44948  -4880433.51547                  21748997.5884
        28.2504         28.5004
 00  5  1 19 40 45.0020000  0  7G 4G 5G 6G17G10G24G30
  25270812.4554   16250849.80745  12569337.90845                  25270823.0064
         8.0004          7.0004
  21342948.4554    3122954.13348   2451724.83847                  21342957.3544
        28.7504         29.7504
  23614634.1974   -6453211.26146  -4918957.92646                  23614645.5214
        17.0004         17.5004
  25310432.2364   -2184720.35245  -1571095.19745                  25310454.5214
         7.7504          9.2504
  21906724.3384   -6484084.86647  -4971041.32747                  21906734.0214
        25.0004         27.0004
  22279534.8544    9464710.35447   7341202.14146                  22279544.2214
        25.5004         25.5004
  21747678.2834   -6366335.51548  -4885800.83647                  21747686.7254
        28.2504         28.5004
 00  5  1 19 41  0.0020000  0  7G 4G 5G 6G17G10G24G30
  25282442.0804   16311962.38945  12616958.15445                  25282450.4984
         7.5004          6.7504
  21348868.7604    3154066.70048   2475968.36047                  21348877.7874
        29.0004         29.7504
  23610615.6974   -6474328.02146  -4935412.50046                  23610626.4824
        16.5004         17.7504
  25304555.0884   -2215606.76445  -1595162.29345                  25304576.2834
         8.0004          9.5004
  21905631.1114   -6489829.17247  -4975517.38947                  21905640.6894
        25.0004         27.2504
  22288142.2134    9509941.83147   7376447.42846                  22288151.6744
        25.2504         25.2504
  21746394.4794   -6373082.61248  -4891058.31647                  21746402.9434
        28.5004         28.5004
 00  5  1 19 41 15.0020000  0  7G 4G 5G 6G17G10G24G30
  25294070.7294   16373067.73845  12664572.71945                  25294082.2174
         9.7504          8.7504
  21354817.7444    3185327.85348   2500327.66147                  21354826.7254
        28.7504         29.5004
  23606600.3694   -6495425.48946  -4951852.03446                  23606611.8344
        16.5004         17.5004
  25298687.9394   -2246436.63845  -1619185.34445                  25298710.0254
         8.0004          9.7504
  21904566.0574   -6495426.07047  -4979878.57847                  21904575.8114
        25.0004         27.2504
  22296759.4084    9555226.61547   7411734.25646                  22296768.7404
        25.5004         25.2504
  21745138.0104   -6379685.57148  -4896203.47147                  21745146.5104
        28.2504         28.7504
 00  5  1 19 41 30.0020000  0  7G 4G 5G 6G17G10G24G30
  25305694.8854   16434166.46843  12712182.05445                  25305706.0684
         6.0004          8.0004
  21360794.1044    3216733.57448   2524799.61547                  21360803.0494
        29.2504         29.7504
  23602589.6974   -6516503.74246  -4968276.60346                  23602600.7994
        16.5004         17.5004
  25292831.8384   -2277210.23045  -1643164.52845                  25292852.7174
         9.0004         10.5004
  21903528.8224   -6500877.22247  -4984126.20547                  21903538.6824
        25.2504         27.2504
  22305387.4864    9600566.78947   7447064.24146                  22305396.9124
        25.0004         25.2504
  21743908.6044   -6386145.63748  -4901237.28547                  21743917.2214
        28.5004         29.0004
 00  5  1 19 41 45.0020000  0  7G 4G 5G 6G17G10G24G30
  25317322.3144   16495256.47545  12759784.58545                  25317332.9124
         7.7504          6.5004
  21366796.4004    3248276.24048   2549378.28047                  21366805.3694
        29.2504         29.7504
  23598581.9794   -6537562.93846  -4984686.32346                  23598593.3734
        16.2504         17.5004
  25286987.2134   -2307927.88845  -1667100.17345                  25287008.8544
         9.2504         10.5004
  21902519.1584   -6506182.77447  -4988260.37247                  21902528.8654
        25.5004         27.2504
  22314025.2684    9645958.75147   7482434.58546                  22314034.7644
        25.5004         25.0004
  21742705.7834   -6392466.83448  -4906162.89047                  21742714.3654
        28.5004         29.0004
 00  5  1 19 42  0.0020000  0  7G 4G 5G 6G17G10G24G30
  25328946.1354   16556342.85045  12807384.37445                  25328956.8614
         9.0004          8.2504
  21372824.5804    3279954.46948   2574062.57447                  21372833.6194
        29.5004         29.7504
  23594578.2524   -6558602.82446  -5001080.99546                  23594589.0024
        16.0004         17.2504
  25281151.9324   -2338586.46945  -1690989.76445                  25281172.4674
         8.2504          9.7504
  21901537.7994   -6511339.42247  -4992278.51447                  21901547.3424
        25.2504         27.5004
  22322672.7054    9691400.79247   7517843.94546                  22322682.1544
        25.2504         25.0004
  21741529.3854   -6398649.33248  -4910980.41547                  21741537.9324
        28.7504         29.0004
 00  5  1 19 42 15.0020000  0  7G 4G 5G 6G17G10G24G30
  25340569.0884   16617424.81244  12854980.68345                  25340581.2214
         7.0004          6.7504
  21378878.0884    3311765.34848   2598850.23847                  21378887.0804
        29.5004         30.0004
  23590577.9554   -6579623.94846  -5017461.04146                  23590588.9754
        16.2504         17.7504
  25275329.6744   -2369183.75845  -1714831.60445                  25275349.1784
         9.0004         10.0004
  21900584.8144   -6516347.15347  -4996180.61547                  21900594.6864
        25.5004         27.5004
  22331329.1744    9736891.34947   7553291.11546                  22331338.3074
        24.7504         25.2504
  21740379.5414   -6404691.72748  -4915688.76847                  21740388.1584
        28.7504         29.2504
 00  5  1 19 42 30.0030000  0  7G 4G 5G 6G17G10G24G30
  25352192.1084   16678502.45945  12902573.61445                  25352203.2694
         8.0004          7.0004
  21384956.2884    3343706.82448   2623739.66547                  21384965.3394
        29.7504         29.7504
  23586580.8824   -6600629.45246  -5033828.92746                  23586592.1594
        16.2504         17.5004
  25269518.1084   -2399722.35345  -1738627.70545                  25269539.1404
         8.2504          9.7504
  21899659.7184   -6521209.94547  -4999969.77747                  21899669.3194
        25.5004         27.5004
  22339995.1404    9782430.33147   7588776.02546                  22340004.3434
        25.0004         25.0004
  21739256.3194   -6410594.36648  -4920288.22847                  21739264.9254
        29.0004         29.2504
 00  5  1 19 42 45.0030000  0  7G 4G 5G 6G17G10G24G30
  25363812.4524   16739567.58945  12950156.81945                  25363823.7184
         8.0004          8.0004
  21391058.9914    3375776.07348   2648728.65347                  21391068.1244
        29.5004         30.0004
  23582587.3124   -6621615.49746  -5050181.63046                  23582599.0344
        15.7504         17.7504
  25263718.0854   -2430200.76945  -1762376.90345                  25263738.8004
         8.7504         10.2504
  21898762.3124   -6525925.48447  -5003644.19647                  21898771.9484
        25.5004         27.7504
  22348668.9054    9828011.78347   7624294.02346                  22348678.0974
        25.0004         25.0004
  21738159.7574   -6416355.46748  -4924777.38947                  21738168.2924
        28.7504         29.0004
 00  5  1 19 43  0.0030000  0  7G 4G 5G 6G17G10G24G30
  25375431.5934   16800623.76945  12997732.92345                  25375442.6714
         9.0004          8.5004
  21397186.7804    3407977.33848   2673820.51147                  21397195.7844
        29.7504         30.0004
  23578596.6634   -6642584.78546  -5066521.29446                  23578607.9054
        16.0004         17.7504
  25257929.0624   -2460624.07045  -1786083.16045                  25257949.7764
         8.7504         10.0004
  21897893.4764   -6530490.71247  -5007201.48847                  21897902.9954
        25.5004         27.7504
  22357351.9294    9873642.09747   7659850.09746                  22357361.2144
        25.5004         25.0004
  21737090.4374   -6421976.28048  -4929157.24047                  21737099.0894
        29.2504         29.2504
 00  5  1 19 43 15.0030000  0  7G 4G 5G 6G17G10G24G30
  25387047.6084   16861671.05745  13045302.25345                  25387059.9174
         9.0004          7.7504
  21403338.7884    3440306.89348   2699012.33347                  21403347.7694
        29.7504         30.2504
  23574609.2334   -6663540.59346  -5082850.44346                  23574620.8274
        16.2504         17.2504
  25252148.7264   -2490998.28345  -1809751.16645                  25252169.0974
         8.5004         10.2504
  21897053.8354   -6534903.33747  -5010639.87147                  21897063.4604
        25.5004         27.5004
  22366044.1474    9919319.65747   7695442.97546                  22366053.3044
        25.0004         24.7504
  21736046.6554   -6427461.30548  -4933431.28247                  21736055.0624
        29.5004         29.2504
 00  5  1 19 43 30.0030000  0  7G 4G 5G 6G17G10G24G30
  25398663.4764   16922710.38945  13092865.45545                  25398676.1364
         8.0004          7.2504
  21409515.3664    3472763.85148   2724303.43347                  21409524.5344
        29.7504         30.2504
  23570623.6474   -6684482.17546  -5099168.51746                  23570634.7374
        16.2504         17.7504
  25246376.6404   -2521328.28445  -1833384.71845                  25246397.9174
         8.7504         10.5004
  21896242.8904   -6539164.52947  -5013960.24647                  21896252.5034
        25.2504         27.5004
  22374745.0694    9965043.22947   7731071.72146                  22374754.4484
        25.0004         24.7504
  21735028.3044   -6432812.82048  -4937601.28947                  21735036.7804
        29.5004         29.0004
 00  5  1 19 43 45.0030000  0  7G 4G 5G 6G17G10G24G30
  25410276.9604   16983740.76445  13140421.54745                  25410288.7294
         8.5004          9.0004
  21415716.2884    3505349.92648   2749695.14147                  21415725.5504
        29.7504         30.2504
  23566641.4604   -6705411.12746  -5115476.74746                  23566652.5154
        16.0004         17.7504
  25240613.6164   -2551613.50345  -1856983.38545                  25240634.3314
         8.2504          9.5004
  21895460.2264   -6543276.90947  -5017164.67347                  21895469.8974
        25.5004         27.5004
  22383453.8124   10010808.38647   7766732.86746                  22383463.0734
        24.7504         25.0004
  21734034.9444   -6438033.07848  -4941669.02347                  21734043.3154
        29.5004         29.2504
 00  5  1 19 44  0.0030000  0  7G 4G 5G 6G17G10G24G30
  25421889.4214   17044763.52045  13187971.61145                  25421900.1834
         9.2504          8.5004
  21421942.5384    3538068.63548   2775190.20847                  21421951.5544
        29.7504         30.0004
  23562661.5854   -6726325.05546  -5131773.26046                  23562673.3084
        16.0004         17.7504
  25234857.8584   -2581855.49745  -1880548.38545                  25234877.9484
         8.0004          9.7504
  21894706.3514   -6547238.28647  -5020251.42947                  21894715.8584
        25.2504         27.7504
  22392171.1244   10056615.91347   7802427.02646                  22392180.5974
        24.7504         24.5004
  21733067.0464   -6443118.69848  -4945631.83847                  21733075.4174
        29.5004         29.2504
 00  5  1 19 44 15.0030000  0  7G 4G 5G 6G17G10G24G30
  25433499.9134   17105777.10245  13235514.69245                  25433510.1364
         9.5004          9.2504
  21428194.4764    3570923.04648   2800791.00647                  21428203.4794
        29.2504         30.0004
  23558684.0694   -6747224.95546  -5148058.85446                  23558695.3234
        16.2504         18.2504
  25229110.2724   -2612058.45445  -1904082.94945                  25229131.1754
         8.0004         10.0004
  21893980.3584   -6551052.87847  -5023223.80947                  21893989.8314
        25.0004         27.5004
  22400895.8044   10102465.02247   7838153.59146                  22400905.2294
        24.7504         24.7504
  21732124.8974   -6448069.82048  -4949489.85347                  21732133.1634
        29.5004         29.2504
 00  5  1 19 44 30.0030000  0  7G 4G 5G 6G17G10G24G30
  25445108.4374   17166779.79145  13283049.22045                  25445120.8044
         9.5004          9.7504
  21434472.5694    3603914.79648   2826498.82747                  21434481.6674
        29.0004         30.0004
  23554710.4604   -6768107.11646  -5164330.61546                  23554721.6794
        16.5004         18.2504
  25223370.2494   -2642224.42145  -1927588.71245                  25223390.9174
         8.0004         10.0004
  21893282.2184   -6554720.43547  -5026081.61847                  21893291.8904
        25.2504         27.5004
  22409629.1554   10148359.22447   7873915.28746                  22409638.6984
        24.7504         24.7504
  21731208.7654   -6452883.93548  -4953241.10847                  21731217.1714
        29.7504         29.0004
 00  5  1 19 44 45.0030000  0  7G 4G 5G 6G17G10G24G30
  25456715.2334   17227774.27345  13330577.34645                  25456726.7104
         8.0004          8.7504
  21440776.9374    3637044.23248   2852313.93347                  21440786.0114
        29.0004         30.0004
  23550740.4994   -6788970.51846  -5180587.77746                  23550751.8124
        16.7504         18.2504
  25217636.1084   -2672355.78245  -1951067.50645                  25217657.5974
         7.5004         10.0004
  21892613.3904   -6558236.99547  -5028821.76547                  21892622.9684
        25.0004         27.5004
  22418371.7494   10194302.12047   7909714.93046                  22418380.9294
        24.7504         24.2504
  21730318.8584   -6457560.71248  -4956885.34947                  21730327.1594
        29.7504         29.2504
 00  5  1 19 45  0.0030000  0  7G 4G 5G 6G17G10G24G30
  25468320.6474   17288761.90445  13378100.11945                  25468330.9404
         7.5004          6.5004
  21447106.7414    3670308.06948   2878233.76747                  21447115.8274
        28.7504         29.7504
  23546773.2414   -6809817.16146  -5196831.86146                  23546784.3784
        17.2504         18.2504
  25211908.4684   -2702456.67945  -1974522.51645                  25211928.4764
         8.0004          9.7504
  21891973.1324   -6561600.46647  -5031442.61647                  21891982.8044
        25.0004         27.7504
  22427123.3194   10240293.37647   7945552.25346                  22427132.6404
        24.5004         24.2504
  21729454.4764   -6462103.01848  -4960424.80347                  21729462.8124
        29.7504         29.2504
 00  5  1 19 45 15.0030000  0  7G 4G 5G 6G17G10G24G30
  25479925.2104   17349740.11145  13425615.66045                  25479936.5344
         9.2504          9.0004
  21453460.8274    3703699.29848   2904252.86747                  21453469.9724
        28.7504         29.7504
  23542808.8584   -6830651.19746  -5213066.13946                  23542819.8664
        16.5004         18.2504
  25206185.7184   -2732525.83645  -1997952.85545                  25206206.6084
         7.5004          9.2504
  21891361.8744   -6564812.60447  -5033945.55247                  21891371.4764
        25.0004         27.5004
  22435883.8664   10286329.12247   7981424.24646                  22435893.2334
        24.5004         24.5004
  21728615.5934   -6466512.00448  -4963860.37447                  21728623.8584
        29.5004         29.2504
 00  5  1 19 45 30.0030000  0  7G 4G 5G 6G17G10G24G30
  25491527.9834   17410713.02945  13473126.94845                  25491539.8944
         9.5004         10.5004
  21459839.4834    3737218.95648   2930372.04147                  21459848.7224
        28.5004         29.5004
  23538847.0464   -6851468.64046  -5229287.47146                  23538858.2764
        17.2504         18.2504
  25200471.0154   -2762556.76945  -2021353.37045                  25200490.9174
         8.2504          8.7504
  21890779.2724   -6567873.79347  -5036330.86547                  21890788.9444
        25.2504         27.5004
  22444653.2964   10332411.34547   8017332.44746                  22444662.6874
        24.5004         24.0004
  21727803.1324   -6470781.19148  -4967187.01147                  21727811.3394
        29.7504         29.0004
 00  5  1 19 45 45.0030000  0  7G 4G 5G 6G17G10G24G30
  25503129.4834   17471683.90445  13520636.67545                  25503141.7694
         8.2504          9.7504
  21466243.1944    3770870.56648   2956594.03047                  21466252.3274
        28.2504         29.2504
  23534889.8434   -6872266.40646  -5245493.48146                  23534901.0734
        17.0004         18.2504
  25194765.2724   -2792542.15245  -2044718.42845                  25194785.9174
         8.7504          9.5004
  21890225.6404   -6570784.21347  -5038598.69647                  21890235.3474
        25.0004         27.5004
  22453431.6404   10378543.46747   8053279.53946                  22453440.9724
        24.5004         24.2504
  21727019.1164   -6474901.75048  -4970397.83347                  21727027.3584
        29.7504         28.7504
 00  5  1 19 46  0.0030000  0  7G 4G 5G 6G17G10G24G30
  25514731.5154   17532651.10045  13568143.53245                  25514744.9014
         8.5004          9.2504
  21472671.8664    3804652.90948   2982917.89447                  21472681.0934
        28.2504         29.5004
  23530935.6874   -6893044.64446  -5261684.27046                  23530946.5304
        17.5004         18.7504
  25189067.8744   -2822480.98745  -2068047.22345                  25189088.0694
         8.5004          9.7504
  21889700.5384   -6573542.41747  -5040747.91547                  21889710.2224
        25.0004         27.7504
  22462220.2264   10424727.39947   8089266.99846                  22462229.6164
        24.5004         24.2504
  21726263.9604   -6478870.00248  -4973489.97347                  21726272.1674
        29.7504         29.0004
 00  5  1 19 46 15.0030000  0  7G 4G 5G 6G17G10G24G30
  25526331.5694   17593609.50245  13615643.58645                  25526344.8044
         7.7504          8.2504
  21479124.2804    3838560.12048   3009339.05447                  21479133.6714
        28.2504         29.7504
  23526984.2804   -6913807.67146  -5277863.21046                  23526995.3354
        17.5004         18.5004
  25183378.6634   -2852376.64245  -2091342.31745                  25183398.1444
         8.5004          9.7504
  21889204.2724   -6576150.02347  -5042779.78847                  21889213.9334
        25.2504         27.7504
  22471017.8744   10470958.41447   8125291.14646                  22471027.2064
        24.5004         24.0004
  21725536.8354   -6482691.40948  -4976467.69147                  21725545.0774
        29.7504         28.7504
 00  5  1 19 46 30.0030000  0  7G 4G 5G 6G17G10G24G30
  25537930.0774   17654557.39645  13663135.39645                  25537943.3584
         8.5004          8.5004
  21485600.0544    3872590.62748   3035856.29247                  21485609.3624
        28.2504         29.7504
  23523036.4444   -6934557.40146  -5294031.78146                  23523048.0034
        17.0004         18.7504
  25177698.2264   -2882226.46945  -2114601.74245                  25177719.4094
         8.2504         10.0004
  21888737.1794   -6578605.25947  -5044692.93047                  21888746.7224
        25.2504         27.7504
  22479824.2494   10517236.46847   8161351.94746                  22479833.5934
        24.2504         24.2504
  21724837.3354   -6486366.64548  -4979331.50347                  21724845.4604
        29.5004         28.7504
 00  5  1 19 46 45.0030000  0  7G 4G 5G 6G17G10G24G30
  25549527.0694   17715499.65145  13710622.84145                  25549538.5224
         9.5004          8.7504
  21492100.1474    3906749.50548   3062473.55747                  21492109.3974
        28.5004         29.5004
  23519090.6324   -6955289.99446  -5310187.01346                  23519101.2294
        17.7504         18.5004
  25172027.9294   -2912022.24845  -2137819.04245                  25172049.9094
         8.2504         10.0004
  21888300.0384   -6580901.41047  -5046482.10847                  21888309.5464
        25.2504         27.7504
  22488640.6794   10563567.90247   8197454.34346                  22488650.0934
        24.2504         24.0004
  21724166.2964   -6489892.89948  -4982079.23147                  21724174.2924
        29.7504         28.7504
 00  5  1 19 47  0.0030000  0  7G 4G 5G 6G17G10G24G30
  25561122.5774   17776435.43045  13758105.28845                  25561134.2654
         8.2504          8.7504
  21498625.4294    3941039.32248   3089192.85347                  21498634.7264
        28.5004         30.0004
  23515148.2494   -6976007.29146  -5326330.32046                  23515159.1404
        17.0004         18.5004
  25166369.1554   -2941761.80445  -2160992.53245                  25166388.4254
         9.5004         10.2504
  21887893.1324   -6583039.46847  -5048148.10047                  21887902.5584
        25.2504         27.5004
  22497466.6164   10609948.20647   8233594.81646                  22497476.0894
        24.5004         24.0004
  21723523.2414   -6493271.37448  -4984711.80547                  21723531.3784
        29.5004         28.5004
 00  5  1 19 47 15.0030000  0  7G 4G 5G 6G17G10G24G30
  25572715.1554   17837359.01744  13805578.18745                  25572727.8514
         6.7504          8.2504
  21505175.6794    3975461.07748   3116014.95747                  21505184.8584
        28.5004         29.7504
  23511208.1874   -6996712.87846  -5342464.49146                  23511218.6084
        17.7504         18.5004
  25160720.7964   -2971441.77245  -2184119.59845                  25160739.6794
         9.5004         10.0004
  21887515.6794   -6585023.58047  -5049694.13247                  21887525.1874
        25.2504         27.7504
  22506301.0624   10656372.75447   8269769.77246                  22506310.1834
        24.5004         24.0004
  21722908.2804   -6496503.01548  -4987229.96447                  21722916.3474
        29.5004         28.5004
 00  5  1 19 47 30.0030000  0  7G 4G 5G 6G17G10G24G30
  25584306.5074   17898269.16144  13853040.60545                  25584319.0734
         6.7504          8.7504
  21511751.8194    4010017.61948   3142942.09347                  21511760.9524
        29.0004         29.7504
  23507269.8194   -7017406.51646  -5358589.37446                  23507280.8514
        17.0004         18.5004
  25155084.0934   -3001060.54245  -2207198.98245                  25155103.0464
         8.7504         10.2504
  21887167.2264   -6586855.77347  -5051121.79047                  21887176.7454
        25.0004         27.7504
  22515143.6794   10702841.15347   8305978.89346                  22515152.9764
        24.5004         24.2504
  21722321.7264   -6499586.74048  -4989632.86347                  21722329.7104
        29.5004         28.5004
 00  5  1 19 47 45.0030000  0  7G 4G 5G 6G17G10G24G30
  25595894.5934   17959166.80844  13900493.21645                  25595906.0344
         6.5004          8.5004
  21518354.4054    4044715.48748   3169979.35347                  21518363.6674
        29.2504         30.0004
  23503334.6084   -7038087.25746  -5374704.18146                  23503345.3944
        17.7504         18.5004
  25149458.9214   -3030620.79945  -2230232.79345                  25149478.1794
         8.7504          9.5004
  21886846.8194   -6588538.19347  -5052432.73747                  21886856.3624
        25.2504         27.7504
  22523994.6794   10749353.35047   8342222.14446                  22524004.0344
        24.2504         23.7504
  21721762.5854   -6502524.38848  -4991921.93247                  21721770.6634
        29.7504         28.7504
 00  5  1 19 48  0.0030000  0  6G 5G 6G17G10G24G30
  21524984.5074    4079555.69348   3197127.52547                  21524993.6164
        29.5004         29.7504
  23499401.2884   -7058757.32046  -5390810.68446                  23499412.0264
        17.5004         18.5004
  25143844.0224   -3060125.63745  -2253223.37045                  25143864.5584
         8.5004          9.7504
  21886555.4764   -6590069.20447  -5053625.70347                  21886564.9374
        25.2504         27.7504
  22532853.6554   10795907.42947   8378498.02446                  22532863.0464
        24.5004         23.7504
  21721229.6944   -6505324.57748  -4994103.89247                  21721237.8084
        29.2504         28.7504
 00  5  1 19 48 15.0030000  0  6G 5G 6G17G10G24G30
  21531641.3904    4114538.56748   3224386.86647                  21531650.5114
        29.2504         30.0004
  23495470.5464   -7079413.57046  -5406906.42746                  23495481.5424
        18.2504         18.5004
  25138240.0154   -3089576.66145  -2276172.05045                  25138259.6244
         9.2504          9.7504
  21886293.5074   -6591446.10947  -5054698.59347                  21886302.9684
        25.2504         27.5004
  22541720.5544   10842503.56247   8414806.67546                  22541730.0264
        24.5004         23.7504
  21720721.6634   -6507992.49948  -4996182.79147                  21720729.7064
        29.0004         28.5004
 00  5  1 19 48 30.0030000  0  6G 5G 6G17G10G24G30
  21538325.9684    4149665.34748   3251758.34547                  21538335.1474
        29.2504         29.5004
  23491542.6714   -7100055.40446  -5422990.93746                  23491553.4334
        17.7504         18.7504
  25132645.6714   -3118975.52545  -2299080.06245                  25132665.7614
        10.2504          9.7504
  21886060.8274   -6592667.86347  -5055650.57947                  21886070.3234
        25.0004         27.5004
  22550595.4994   10889141.31347   8451147.76546                  22550605.1944
        23.7504         23.7504
  21720239.2654   -6510528.41848  -4998158.82247                  21720247.4724
        29.0004         28.5004
 00  5  1 19 48 45.0030000  0  6G 5G 6G17G10G24G30
  21545037.7804    4184936.72048   3279242.48847                  21545046.9254
        29.0004         29.5004
  23487617.4604   -7120681.37346  -5439063.07946                  23487628.2454
        18.0004         18.7504
  25127061.1714   -3148323.54545  -2321948.49245                  25127080.5814
        10.5004         10.5004
  21885857.6164   -6593736.04347  -5056482.89847                  21885867.1124
        25.0004         27.7504
  22559478.5154   10935822.15547   8487522.42446                  22559488.2454
        24.2504         23.5004
  21719781.8434   -6512932.22848  -5000031.92347                  21719790.1204
        28.7504         28.5004
 00  5  1 19 49  0.0030000  0  6G 5G 6G17G10G24G30
  21551777.1944    4220350.89848   3306837.90847                  21551786.3394
        29.0004         29.7504
  23483695.1944   -7141292.81246  -5455123.90246                  23483705.7694
        18.5004         18.7504
  25121485.2574   -3177623.68845  -2344779.59745                  25121505.0194
         9.5004         10.2504
  21885682.8274   -6594653.93047  -5057198.10347                  21885692.3474
        25.0004         27.7504
  22568369.1794   10982542.44047   8523927.81946                  22568378.7694
        23.7504         23.5004
  21719349.7414   -6515203.46248  -5001801.71447                  21719358.0074
        28.7504         28.5004
 00  5  1 19 49 15.0030000  0  6G 5G 6G17G10G24G30
  21558542.8664    4255905.22248   3334542.53747                  21558551.9994
        28.7504         29.5004
  23479776.0624   -7161889.83446  -5471173.49446                  23479786.3194
        18.7504         19.0004
  25115917.6014   -3206877.26545  -2367574.41845                  25115938.1754
         9.2504          9.7504
  21885536.9684   -6595420.88847  -5057795.70647                  21885546.5584
        25.0004         27.7504
  22577267.6714   11029304.29547   8560365.61046                  22577277.0854
        23.7504         23.7504
  21718943.2264   -6517339.81148  -5003466.39747                  21718951.6324
        28.5004         28.5004
 00  5  1 19 49 30.0030000  0  6G 5G 6G17G10G24G30
  21565334.4914    4291595.76248   3362353.30647                  21565343.6944
        28.5004         29.2504
  23475859.8044   -7182469.77846  -5487209.77646                  23475870.2964
        18.2504         18.7504
  25110359.1874   -3236088.01245  -2390335.86945                  25110380.2294
         9.5004         10.0004
  21885419.8124   -6596037.19047  -5058275.91847                  21885429.3194
        25.5004         27.7504
  22586174.0544   11076108.98647   8596836.77146                  22586183.4564
        23.7504         23.5004
  21718562.1084   -6519341.55448  -5005026.19147                  21718570.4564
        28.2504         28.5004
 00  5  1 19 49 45.0030000  0  6G 5G 6G17G10G24G30
  21572152.6944    4327425.96748   3390272.90447                  21572161.9214
        28.5004         29.2504
  23471947.5774   -7203025.97446  -5503227.55346                  23471958.2924
        18.7504         18.5004
  25104808.1244   -3265258.50445  -2413065.91845                  25104827.0774
         9.5004         10.7504
  21885331.6634   -6596499.79047  -5058636.35647                  21885341.2764
        25.2504         28.0004
  22595090.0224   11122960.83047   8633344.68446                  22595099.4954
        24.0004         23.5004
  21718207.1164   -6521208.11648  -5006480.65547                  21718215.4054
        28.7504         28.7504
 00  5  1 19 50  0.0030000  0  6G 5G 6G17G10G24G30
  21578996.2334    4363388.45848   3418295.58447                  21579005.4374
        28.2504         29.2504
  23468039.7964   -7223560.98346  -5519228.81846                  23468050.3474
        18.2504         18.7504
  25099264.5854   -3294392.66545  -2435767.68645                  25099283.3044
        10.5004         11.0004
  21885272.8824   -6596808.54447  -5058876.91747                  21885282.3904
        25.5004         28.0004
  22604013.9374   11169856.80647   8669886.98446                  22604023.2694
        24.0004         23.2504
  21717876.8044   -6522943.33548  -5007832.77247                  21717885.3974
        28.7504         28.7504
 00  5  1 19 50 15.0030000  0  6G 5G 6G17G10G24G30
  21585864.1244    4399480.13948   3446418.92647                  21585873.2694
        28.2504         29.0004
  23464137.0154   -7244071.68346  -5535211.14446                  23464147.3784
        18.5004         18.5004
  25093727.3044   -3323487.59645  -2458438.89745                  25093746.7494
         9.7504         11.0004
  21885244.2024   -6596958.37847  -5058993.64047                  21885253.4524
        25.5004         28.0004
  22612946.9914   11216800.24747   8706466.27046                  22612956.4294
        23.7504         23.2504
  21717572.9444   -6524540.47848  -5009077.29747                  21717581.3974
        28.7504         28.7504
 00  5  1 19 50 30.0030000  0  6G 5G 6G17G10G24G30
  21592756.9134    4435700.89548   3474642.85147                  21592766.1634
        28.0004         28.7504
  23460238.9214   -7264557.66846  -5551174.21746                  23460249.2494
        18.5004         18.7504
  25088198.0624   -3352540.98345  -2481077.72845                  25088217.4484
         8.7504          9.5004
  21885246.2964   -6596949.32547  -5058986.56047                  21885255.7104
        25.7504         28.2504
  22621888.8824   11263790.27947   8743081.85446                  22621898.0504
        24.0004         23.0004
  21717296.9374   -6525990.87148  -5010207.47647                  21717305.2264
        28.7504         28.7504
 00  5  1 19 50 45.0030000  0  6G 5G 6G17G10G24G30
  21599673.7804    4472050.22947   3502966.96547                  21599682.9954
        27.7504         29.0004
  23456344.7104   -7285021.80646  -5567120.24746                  23456355.1204
        19.0004         19.0004
  25082677.5934   -3381550.63145  -2503682.45445                  25082696.3354
         8.2504          9.7504
  21885277.3194   -6596785.56847  -5058858.92847                  21885286.8514
        26.0004         28.0004
  22630839.4604   11310826.36747   8779733.33446                  22630848.6634
        23.5004         23.2504
  21717049.0154   -6527293.59348  -5011222.58347                  21717057.2804
        28.5004         29.0004
 00  5  1 19 51  0.0030000  0  6G 5G 6G17G10G24G30
  21606615.4444    4508528.09147   3531391.22747                  21606624.6594
        27.5004         28.5004
  23452454.2884   -7305465.15246  -5583050.10146                  23452464.6754
        18.5004         18.7504
  25077166.5774   -3410512.99245  -2526250.37045                  25077185.8704
         9.0004          9.0004
  21885337.3514   -6596469.82247  -5058612.86547                  21885346.9644
        26.0004         28.0004
  22639799.2804   11357908.57147   8816420.74746                  22639808.7294
        24.2504         23.2504
  21716829.3434   -6528447.98348  -5012122.11147                  21716837.6324
        28.5004         29.0004
 00  5  1 19 51 15.0030000  0  6G 5G 6G17G10G24G30
  21613581.3274    4545133.88947   3559915.18147                  21613590.6714
        27.7504         28.7504
  23448567.9914   -7325888.83746  -5598964.62046                  23448578.5774
        18.5004         19.0004
  25071664.3974   -3439427.46145  -2548780.93745                  25071682.8704
        10.0004         10.5004
  21885426.2184   -6596002.36447  -5058248.58747                  21885435.6904
        26.2504         28.5004
  22648767.2964   11405037.39847   8853144.48546                  22648776.6044
        23.5004         23.0004
  21716638.0544   -6529454.23048  -5012906.20347                  21716646.4484
        28.5004         29.0004
 00  5  1 19 51 30.0030000  0  6G 5G 6G17G10G24G30
  21620571.4444    4581866.69847   3588538.10247                  21620580.8474
        27.5004         28.7504
  23444685.1944   -7346291.21146  -5614862.52846                  23444695.4294
        18.7504         19.2504
  25066170.9834   -3468294.65845  -2571274.69045                  25066189.6084
        10.0004         10.0004
  21885544.3354   -6595381.77547  -5057764.98047                  21885553.8084
        26.0004         28.2504
  22657744.3354   11452212.25547   8889904.09446                  22657753.8194
        23.7504         23.0004
  21716474.3194   -6530313.95648  -5013576.11847                  21716482.7844
        28.7504         29.0004
 00  5  1 19 51 45.0030000  0  6G 5G 6G17G10G24G30
  21627584.8354    4618722.11947   3617256.56747                  21627594.2724
        27.2504         28.7504
  23440805.7804   -7366678.02146  -5630748.32546                  23440815.9564
        18.7504         19.0004
  25060685.5304   -3497116.63645  -2593733.22945                  25060703.8744
         9.0004         10.0004
  21885690.6324   -6594612.48647  -5057165.50747                  21885700.1164
        26.2504         28.5004
  22666728.8904   11499425.83647   8926693.87446                  22666738.3274
        23.7504         22.7504
  21716337.9764   -6531030.05948  -5014134.12447                  21716346.4524
        28.5004         29.0004
 00  5  1 19 52  0.0030000  0  6G 5G 6G17G10G24G30
  21634622.6554    4655705.35047   3646074.62347                  21634632.0464
        27.5004         28.7504
  23436929.4524   -7387047.79246  -5646620.83646                  23436939.9444
        18.7504         19.0004
  25055210.8744   -3525884.46345  -2616149.49445                  25055230.3544
         7.7504          9.7504
  21885866.6244   -6593687.72347  -5056444.89147                  21885875.9564
        26.5004         28.2504
  22675722.0224   11546683.03147   8963517.64246                  22675731.1674
        24.2504         23.0004
  21716230.6554   -6531595.43248  -5014574.67747                  21716239.1794
        28.7504         29.2504
 00  5  1 19 52 15.0030000  0  6G 5G 6G17G10G24G30
  21641684.5384    4692816.43647   3674992.31347                  21641693.8944
        27.2504         28.7504
  23433055.9914   -7407403.14346  -5662482.11346                  23433066.9294
        18.2504         19.5004
  25049747.2104   -3554594.16245  -2638520.51545                  25049766.6674
         8.2504          9.7504
  21886072.1164   -6592607.68547  -5055603.27547                  21886081.4254
        26.2504         28.2504
  22684722.5854   11593982.29247   9000374.18646                  22684731.9054
        24.0004         23.0004
  21716151.8664   -6532007.37248  -5014895.67347                  21716160.1674
        28.7504         29.2504
 00  5  1 19 52 30.0030000  0  6G 5G 6G17G10G24G30
  21648772.0384    4730061.36047   3704014.28847                  21648781.4054
        27.0004         28.7504
  23429185.6084   -7427742.39146  -5678330.83446                  23429196.2884
        19.2504         19.0004
  25044296.3514   -3583243.65545  -2660844.60445                  25044315.9134
         9.7504         10.5004
  21886307.1944   -6591373.89547  -5054641.85947                  21886316.5504
        26.2504         28.2504
  22693731.4214   11641323.41447   9037263.35046                  22693740.2964
        24.0004         23.0004
  21716103.0694   -6532264.28148  -5015095.86547                  21716111.4874
        28.7504         29.2504
 00  5  1 19 52 45.0030000  0  6G 5G 6G17G10G24G30
  21655885.3744    4767442.08247   3733142.08047                  21655894.9054
        27.2504         28.7504
  23425317.9444   -7448065.64946  -5694167.09946                  23425328.4724
        18.5004         19.5004
  25038855.4524   -3611834.52245  -2683123.05845                  25038873.7844
         9.5004         10.5004
  21886570.4914   -6589988.70047  -5053562.45747                  21886579.9874
        26.2504         28.2504
  22702747.8354   11688705.70747   9074184.59846                  22702757.1444
        24.2504         23.0004
  21716082.7414   -6532370.50148  -5015178.63447                  21716091.1944
        28.5004         29.2504
 00  5  1 19 53  0.0030000  0  6G 5G 6G17G10G24G30
  21663024.5854    4804958.44947   3762375.57447                  21663034.0224
        27.2504         28.7504
  23421453.5074   -7468371.98446  -5709990.16746                  23421463.6944
        19.2504         19.2504
  25033424.5074   -3640369.25745  -2705357.73045                  25033443.8234
         8.0004         10.0004
  21886863.4914   -6588449.16947  -5052362.80247                  21886872.8474
        26.2504         28.0004
  22711772.3974   11736130.73647   9111139.14646                  22711781.7884
        24.2504         22.7504
  21716090.7964   -6532328.47248  -5015145.88347                  21716099.3904
        28.5004         29.2504
 00  5  1 19 53 15.0030000  0  6G 5G 6G17G10G24G30
  21670189.1084    4842607.93147   3791712.78347                  21670198.7574
        27.0004         28.7504
  23417593.0074   -7488660.54646  -5725799.41446                  23417603.3704
        18.7504         19.5004
  25028004.0224   -3668851.38545  -2727551.38945                  25028024.5224
         7.7504         10.0004
  21887186.4214   -6586751.81247  -5051040.16147                  21887195.7294
        26.0004         28.0004
  22720805.2574   11783597.46747   9148126.18546                  22720814.4724
        24.2504         22.7504
  21716126.9994   -6532138.44248  -5014997.81347                  21716135.5694
        28.5004         29.2504
 00  5  1 19 53 30.0030000  0  6G 5G 6G17G10G24G30
  21677378.6794    4880388.77447   3821152.36147                  21677388.1284
        27.0004         28.5004
  23413735.5384   -7508930.82546  -5741594.39046                  23413746.2184
        19.0004         19.5004
  25022594.3274   -3697281.91645  -2749704.82845                  25022613.4684
         9.0004         10.5004
  21887540.2804   -6584893.02647  -5049591.73347                  21887549.6124
        26.0004         27.7504
  22729845.4764   11831104.08647   9185144.30246                  22729854.5264
        24.2504         22.5004
  21716191.3124   -6531801.02448  -5014734.88847                  21716199.9294
        28.5004         29.2504
 00  5  1 19 53 45.0030000  0  6G 5G 6G17G10G24G30
  21684593.3194    4918302.16747   3850695.21947                  21684602.8394
        27.0004         28.5004
  23409881.5934   -7529182.69946  -5757375.03646                  23409892.2614
        19.0004         19.5004
  25017194.6404   -3725657.58745  -2771815.55345                  25017212.3154
        10.2504         10.5004
  21887924.7964   -6582871.17947  -5048016.24347                  21887934.0464
        25.7504         27.7504
  22738893.1794   11878650.49747   9222193.43446                  22738902.4404
        24.5004         23.2504
  21716283.7574   -6531315.29248  -5014356.39847                  21716292.3514
        28.5004         29.5004
 00  5  1 19 54  0.0030000  0  6G 5G 6G17G10G24G30
  21691833.1474    4956347.64847   3880341.00847                  21691842.6554
        26.7504         28.7504
  23406030.8354   -7549418.04346  -5773142.79746                  23406041.1044
        18.7504         19.2504
  25011805.4604   -3753981.13645  -2793885.67245                  25011824.4484
        10.0004         10.5004
  21888339.7654   -6580690.21247  -5046316.76847                  21888349.1554
        26.0004         28.0004
  22747948.5074   11926235.22947   9259272.42146                  22747957.7804
        24.2504         23.0004
  21716403.6714   -6530685.53348  -5013865.67647                  21716412.2534
        28.2504         29.2504
 00  5  1 19 54 15.0030000  0  6G 5G 6G17G10G24G30
  21699098.2264    4994525.49747   3910089.93747                  21699107.7574
        26.7504         28.5004
  23402184.2654   -7569634.76446  -5788896.04746                  23402194.5934
        19.0004         19.2504
  25006423.2804   -3782256.13245  -2815917.99145                  25006441.8124
         9.0004         10.0004
  21888785.3044   -6578349.69147  -5044492.96547                  21888794.3664
        25.5004         28.0004
  22757010.7724   11973857.23447   9296380.45646                  22757019.9644
        24.0004         22.7504
  21716550.0304   -6529916.51248  -5013266.43947                  21716558.7764
        28.2504         29.5004
 00  5  1 19 54 30.0030000  0  6G 5G 6G17G10G24G30
  21706388.3824    5032835.78047   3939942.06147                  21706397.9484
        26.7504         28.2504
  23398340.5624   -7589831.41546  -5804633.65946                  23398350.8904
        18.7504         19.2504
  25001051.8514   -3810483.03845  -2837912.76445                  25001070.8394
         8.0004          9.2504
  21889261.2414   -6575847.94547  -5042543.52847                  21889270.5264
        25.5004         27.7504
  22766079.9914   12021517.12247   9333518.00746                  22766089.2884
        23.7504         23.0004
  21716722.3584   -6529010.19848  -5012560.22147                  21716730.9404
        28.5004         29.2504
 00  5  1 19 54 45.0030000  0  6G 5G 6G17G10G24G30
  21713702.9214    5071273.85947   3969893.76247                  21713712.4524
        26.7504         28.2504
  23394501.1474   -7610008.28246  -5820355.85146                  23394511.3124
        18.7504         19.5004
  24995689.5544   -3838662.27145  -2859870.40445                  24995708.9054
         9.0004         10.5004
  21889768.2414   -6573183.91747  -5040467.64147                  21889777.6084
        25.5004         28.0004
  22775156.4214   12069214.20547   9370684.54646                  22775165.9174
        23.7504         22.7504
  21716920.9294   -6527967.27448  -5011747.55247                  21716929.5224
        28.7504         29.2504
 00  5  1 19 55  0.0030000  0  6G 5G 6G17G10G24G30
  21721041.1944    5109835.57747   3999941.80947                  21721050.7614
        26.7504         28.5004
  23390664.7494   -7630167.15646  -5836064.02746                  23390674.9484
        18.7504         19.5004
  24990336.3194   -3866793.92745  -2881790.97445                  24990354.7104
         9.7504         11.2504
  21890306.3194   -6570356.07247  -5038264.10747                  21890315.5584
        25.7504         28.0004
  22784239.6794   12116947.34847   9407879.18546                  22784248.9524
        24.2504         22.7504
  21717145.1944   -6526787.10648  -5010827.94547                  21717153.8704
        28.5004         29.2504
 00  5  1 19 55 15.0030000  0  6G 5G 6G17G10G24G30
  21728402.2024    5148519.01347   4030084.70147                  21728411.8744
        26.5004         28.2504
  23386832.5854   -7650304.98346  -5851755.79946                  23386843.3004
        19.0004         19.7504
  24984993.6554   -3894874.33545  -2903671.61345                  24985012.0934
        10.0004         10.7504
  21890875.7414   -6567363.13147  -5035931.92447                  21890885.0504
        25.7504         28.0004
  22793329.4524   12164714.30047   9445100.16446                  22793338.7614
        23.7504         22.7504
  21717396.7024   -6525467.00548  -5009799.29847                  21717405.2144
        28.7504         29.2504
 00  5  1 19 55 30.0030000  0  6G 5G 6G17G10G24G30
  21735786.6714    5187323.85647   4060322.19347                  21735796.2844
        26.7504         28.2504
  23383004.4374   -7670422.00746  -5867431.35646                  23383014.7294
        19.0004         19.7504
  24979659.6084   -3922901.01045  -2925510.39445                  24979677.9764
         9.5004         10.5004
  21891476.1944   -6564208.52047  -5033473.76547                  21891485.5504
        26.0004         28.0004
  22802425.7574   12212514.72047   9482347.22746                  22802435.1714
        24.2504         23.0004
  21717674.2804   -6524007.82548  -5008662.28047                  21717682.8514
        28.7504         29.5004
 00  5  1 19 55 45.0030000  0  6G 5G 6G17G10G24G30
  21743193.6554    5226248.24947   4090652.84647                  21743203.1984
        26.5004         28.0004
  23379179.7724   -7690519.46046  -5883091.66346                  23379189.7964
        19.0004         19.7504
  24974335.8514   -3950874.97445  -2947308.06645                  24974355.8354
         8.2504          9.7504
  21892106.1324   -6560896.99947  -5030893.33747                  21892115.4764
        26.2504         28.2504
  22811527.2964   12260344.88247   9519617.46246                  22811536.4874
        24.2504         23.0004
  21717978.2104   -6522410.59948  -5007417.69047                  21717986.7924
        28.5004         29.2504
 00  5  1 19 56  0.0030000  0  6G 5G 6G17G10G24G30
  21750623.1244    5265289.46147   4121074.52447                  21750632.5854
        26.7504         28.0004
  23375359.4134   -7710597.35546  -5898736.73246                  23375369.6714
        18.7504         19.7504
  24969020.7574   -3978801.55845  -2969068.88045                  24969039.7804
         8.0004          9.7504
  21892765.5074   -6557433.85447  -5028194.76447                  21892774.7224
        26.5004         28.2504
  22820633.9374   12308200.89947   9556907.84046                  22820643.3624
        24.2504         23.0004
  21718308.3124   -6520675.02148  -5006065.29847                  21718316.8474
        29.0004         29.2504
 00  5  1 19 56 15.0030000  0  6G 5G 6G17G10G24G30
  21758075.7574    5304453.96747   4151592.27247                  21758085.3004
        26.5004         27.7504
  23371543.4994   -7730649.71246  -5914361.89646                  23371553.6984
        19.2504         20.0004
  24963716.2024   -4006678.90945  -2990791.29045                  24963735.2844
         9.2504         10.2504
  21893454.3124   -6553813.42047  -5025373.62747                  21893463.5504
        26.5004         28.5004
  22829747.1084   12356088.48347   9594222.82946                  22829756.2534
        24.2504         22.7504
  21718666.8824   -6518792.13648  -5004598.11947                  21718675.3354
        28.7504         29.2504
 00  5  1 19 56 30.0030000  0  6G 5G 6G17G10G24G30
  21765552.0544    5343741.24247   4182205.69147                  21765561.6204
        26.5004         28.0004
  23367731.9134   -7750679.29246  -5929969.32146                  23367741.9134
        19.5004         19.7504
  24958421.8354   -4034505.54145  -3012474.17545                  24958440.7884
        10.7504         11.5004
  21894172.7334   -6550036.79547  -5022430.78047                  21894182.1714
        26.2504         28.5004
  22838865.6554   12404007.35347   9631562.18846                  22838874.9874
        24.2504         22.5004
  21719053.6014   -6516759.90748  -5003014.56347                  21719062.0544
        28.7504         29.0004
 00  5  1 19 56 45.0030000  0  6G 5G 6G17G10G24G30
  21773051.0544    5383148.56347   4212912.64447                  21773060.6674
        26.5004         27.7504
  23363924.3124   -7770688.26946  -5945560.69346                  23363934.3944
        19.2504         19.7504
  24953135.6244   -4062283.20645  -3034118.93445                  24953153.8744
        10.0004         11.5004
  21894919.9994   -6546110.42847  -5019371.25947                  21894929.3544
        26.5004         28.7504
  22847989.7964   12451956.15847   9668924.87846                  22847998.9404
        25.0004         23.0004
  21719469.2724   -6514574.44948  -5001311.61747                  21719477.7024
        28.7504         29.0004
 00  5  1 19 57  0.0030000  0  6G 5G 6G17G10G24G30
  21780573.9764    5422681.22447   4243717.27447                  21780583.6244
        26.2504         27.7504
  23360121.6874   -7790670.35046  -5961131.09246                  23360131.9094
        19.7504         20.0004
  24947858.9524   -4090009.43945  -3055723.59445                  24947877.3314
         9.2504         10.7504
  21895695.8514   -6542033.30347  -5016194.25647                  21895705.3824
        26.5004         28.5004
  22857120.8354   12499938.89447   9706314.00646                  22857130.1794
        24.7504         23.0004
  21719915.5694   -6512230.15348  -4999484.89647                  21719924.0464
        29.0004         29.0004
 00  5  1 19 57 15.0030000  0  6G 5G 6G17G10G24G30
  21788120.1714    5462337.83447   4274618.48247                  21788129.7494
        26.0004         27.7504
  23356324.3354   -7810626.48846  -5976681.28446                  23356334.4764
        19.2504         20.0004
  24942591.9214   -4117688.45645  -3077291.46345                  24942610.5464
         9.5004         10.2504
  21896499.8044   -6537808.78747  -5012902.40747                  21896509.0544
        26.5004         28.7504
  22866257.4214   12547952.83047   9743727.44546                  22866266.7534
        24.7504         23.2504
  21720390.8434   -6509733.08048  -4997539.13147                  21720399.1904
        29.0004         29.2504
 00  5  1 19 57 30.0030000  0  6G 5G 6G17G10G24G30
  21795690.8974    5502120.90247   4305618.22847                  21795700.4994
        25.5004         27.5004
  23352531.1404   -7830559.01047  -5992213.08446                  23352541.0694
        20.0004         20.0004
  24937332.4524   -4145323.16745  -3098824.82345                  24937350.7614
         9.5004         10.5004
  21897331.0464   -6533440.38547  -5009498.44147                  21897340.4724
        26.7504         28.7504
  22875400.9604   12596001.34847   9781167.82846                  22875410.1404
        24.7504         23.0004
  21720894.9524   -6507084.20048  -4995475.07247                  21720903.1944
        29.2504         29.2504
 00  5  1 19 57 45.0030000  0  6G 5G 6G17G10G24G30
  21803285.8044    5542033.30947   4336718.75847                  21803295.6284
        25.5004         27.2504
  23348742.0934   -7850470.78746  -6007728.71146                  23348751.9994
        19.7504         20.0004
  24932081.5074   -4172915.57445  -3120325.22245                  24932099.6874
         9.5004         10.7504
  21898189.9764   -6528926.97447  -5005981.47947                  21898199.4724
        27.0004         28.7504
  22884551.3354   12644086.14347   9818636.48246                  22884560.7494
        24.5004         22.7504
  21721428.2264   -6504281.58248  -4993291.22347                  21721436.5264
        29.2504         29.2504
 00  5  1 19 58  0.0030000  0  6G 5G 6G17G10G24G30
  21810904.8904    5582071.62747   4367917.40347                  21810914.7614
        25.5004         27.2504
  23344956.1084   -7870366.37947  -6023231.71846                  23344965.7104
        20.7504         20.2504
  24926838.1944   -4200471.01645  -3141796.78645                  24926856.3974
         9.0004         10.7504
  21899075.9054   -6524270.66947  -5002353.17147                  21899085.1324
        26.5004         28.5004
  22893707.8044   12692203.98447   9856130.89946                  22893717.0894
        24.2504         22.7504
  21721990.3744   -6501327.58148  -4990989.40247                  21721998.6874
        29.5004         29.5004
 00  5  1 19 58 15.0030000  0  6G 5G 6G17G10G24G30
  21818548.7184    5622239.73647   4399217.17847                  21818558.5074
        25.2504         27.2504
  23341173.1794   -7890244.85846  -6038721.41646                  23341182.6514
        19.7504         20.0004
  24921601.2104   -4227986.19445  -3163236.99245                  24921620.1164
         9.5004         10.7504
  21899989.5544   -6519468.47047  -4998611.18147                  21899998.7694
        26.7504         28.7504
  22902871.6554   12740361.22047   9893655.99246                  22902880.8234
        24.2504         22.7504
  21722581.3664   -6498221.93448  -4988569.42647                  21722589.7024
        29.5004         29.2504
 00  5  1 19 58 30.0030000  0  6G 5G 6G17G10G24G30
  21826217.3044    5662537.51447   4430618.00347                  21826226.8474
        25.0004         27.2504
  23337393.5224   -7910107.92247  -6054199.07446                  23337403.3704
        20.5004         20.0004
  24916374.7184   -4255456.76545  -3184642.46145                  24916392.8274
        10.2504         11.0004
  21900931.4764   -6514519.20647  -4994754.59447                  21900940.7024
        26.7504         28.5004
  22912043.1874   12788558.50547   9931212.30846                  22912052.6594
        24.2504         22.7504
  21723200.3904   -6494968.68348  -4986034.42847                  21723208.6794
        29.5004         29.2504
 00  5  1 19 58 45.0030000  0  6G 5G 6G17G10G24G30
  21833909.7184    5702961.08747   4462116.84347                  21833919.3434
        25.0004         26.7504
  23333616.6244   -7929955.87547  -6069664.97846                  23333626.7884
        20.0004         20.0004
  24911155.4444   -4282879.96845  -3206011.02045                  24911173.9294
        10.0004         10.7504
  21901901.2024   -6509422.83347  -4990783.37547                  21901910.5344
        26.5004         28.2504
  22921222.0694   12836793.98047   9968798.37646                  22921231.4954
        24.5004         22.5004
  21723847.1084   -6491569.44248  -4983385.67547                  21723855.3974
        29.5004         29.5004
 00  5  1 19 59  0.0030000  0  6G 5G 6G17G10G24G30
  21841625.8124    5743510.91047   4493714.05847                  21841635.5424
        24.7504         27.0004
  23329843.1084   -7949784.93546  -6085116.14646                  23329852.8394
        19.7504         20.0004
  24905946.3354   -4310253.74945  -3227341.07145                  24905964.3394
         9.7504         10.7504
  21902899.8434   -6504174.29347  -4986693.58947                  21902909.1754
        26.5004         28.2504
  22930408.2964   12885067.22647  10006413.86646                  22930417.5464
        24.0004         22.7504
  21724521.8664   -6488025.24248  -4980623.96547                  21724530.2964
        29.7504         29.5004
 00  5  1 19 59 15.0030000  0  6G 5G 6G17G10G24G30
  21849365.1404    5784181.38647   4525405.29347                  21849374.8704
        24.5004         27.0004
  23326072.1944   -7969601.02447  -6100557.21646                  23326081.7024
        20.0004         20.0004
  24900746.2264   -4337580.86145  -3248634.74645                  24900764.3704
         9.7504         10.5004
  21903927.8824   -6498772.83047  -4982484.63947                  21903936.9914
        26.2504         28.2504
  22939600.6874   12933373.45947  10044055.07746                  22939609.9954
        23.5004         22.7504
  21725222.2964   -6484344.17948  -4977755.61047                  21725230.7374
        29.7504         29.5004
 00  5  1 19 59 30.0030000  0  6G 5G 6G17G10G24G30
  21857128.2964    5824975.60647   4557192.94747                  21857138.2024
        24.7504         27.0004
  23322304.1324   -7989402.39646  -6115986.81646                  23322314.2724
        19.7504         20.2504
  24895555.8974   -4364856.31945  -3269888.18545                  24895574.9684
        10.0004         11.0004
  21904985.5934   -6493214.51747  -4978153.46747                  21904994.8434
        26.2504         28.2504
  22948800.1164   12981716.44647  10081724.92646                  22948809.5304
        23.5004         22.5004
  21725949.3744   -6480522.44948  -4974777.64647                  21725957.8044
        29.7504         29.2504
 00  5  1 19 59 45.0030000  0  6G 5G 6G17G10G24G30
  21864915.2884    5865896.05547   4589078.96447                  21864925.1474
        24.5004         26.5004
  23318539.6404   -8009185.62347  -6131402.26846                  23318549.3124
        20.0004         20.2504
  24890376.3354   -4392074.59845  -3291097.05745                  24890394.6444
        10.2504         11.5004
  21906073.7654   -6487496.25047  -4973697.65947                  21906083.0264
        26.0004         28.0004
  22958007.2024   13030099.89447  10119426.29446                  22958016.6634
        23.7504         22.5004
  21726705.1164   -6476551.26448  -4971683.22047                  21726713.4764
        30.0004         29.7504
 00  5  1 20  0  0.0030000  0  6G 5G 6G17G10G24G30
  21872724.9684    5906937.00047   4621058.87247                  21872734.8974
        24.5004         26.7504
  23314778.3974   -8028950.35647  -6146803.32246                  23314788.2454
        20.0004         20.2504
  24885207.8044   -4419233.85045  -3312259.93145                  24885226.9214
        10.0004         11.5004
  21907192.3824   -6481618.16447  -4969117.31747                  21907201.5624
        26.0004         28.0004
  22967220.9054   13078518.26147  10157154.87346                  22967230.4604
        23.7504         22.5004
  21727488.4684   -6472434.34548  -4968475.23847                  21727496.8744
        29.7504         29.7504
 00  5  1 20  0 15.0030000  0  6G 5G 6G17G10G24G30
  21880557.8974    5948098.09547   4653132.40847                  21880567.8044
        24.5004         26.7504
  23311021.4604   -8048693.18647  -6162187.29946                  23311031.2724
        20.0004         20.5004
  24880051.8664   -4446330.22645  -3333373.81545                  24880070.3274
        10.7504         11.5004
  21908341.5384   -6475578.77947  -4964411.28447                  21908350.7184
        26.0004         28.0004
  22976441.4054   13126972.09647  10194911.08746                  22976450.9724
        23.5004         22.5004
  21728299.4054   -6468173.64548  -4965155.22047                  21728307.8354
        30.0004         29.7504
 00  5  1 20  0 30.0030000  0  6G 5G 6G17G10G24G30
  21888413.8584    5989380.34547   4685300.34847                  21888423.9174
        24.7504         26.7504
  23307268.7104   -8068412.39147  -6177552.87146                  23307278.7334
        20.0004         20.2504
  24874907.4684   -4473362.74845  -3354437.95445                  24874925.4254
        10.7504         11.0004
  21909521.5774   -6469377.55447  -4959579.14447                  21909530.9094
        26.0004         27.7504
  22985668.0624   13175457.80647  10232692.14446                  22985677.5464
        23.2504         22.2504
  21729137.4914   -6463768.72048  -4961722.81547                  21729145.8974
        29.7504         30.0004
 00  5  1 20  0 45.0030000  0  6G 5G 6G17G10G24G30
  21896292.8744    6030785.77747   4717564.27547                  21896302.7334
        24.7504         26.5004
  23303521.0694   -8088105.79747  -6192898.33646                  23303530.9764
        20.0004         20.5004
  24869775.7024   -4500329.21045  -3375450.62845                  24869794.0464
        10.5004         10.7504
  21910732.9834   -6463010.64647  -4954617.89947                  21910742.1284
        25.7504         28.0004
  22994900.5224   13223974.56447  10270497.39446                  22994910.2064
        23.5004         22.2504
  21730004.1554   -6459214.94548  -4958174.42647                  21730012.4334
        30.0004         30.0004
 00  5  1 20  1  0.0030000  0  6G 5G 6G17G10G24G30
  21904194.4294    6072308.97447   4749919.96547                  21904204.1474
        24.7504         26.5004
  23299777.7104   -8107778.53647  -6208227.70246                  23299787.4874
        20.0004         20.2504
  24864654.5624   -4527238.72245  -3396418.91045                  24864672.9764
        10.2504         10.5004
  21911975.1554   -6456483.06047  -4949531.45147                  21911984.5224
        26.0004         27.7504
  23004137.8514   13272517.91547  10308323.36746                  23004147.4054
        23.2504         22.0004
  21730897.8044   -6454518.22048  -4954514.64447                  21730906.1634
        29.7504         30.0004
 00  5  1 20  1 15.0030000  0  6G 5G 6G17G10G24G30
  21912119.4834    6113956.06747   4782372.19747                  21912129.2494
        24.7504         26.5004
  23296039.2334   -8127423.46347  -6223535.38946                  23296049.1404
        20.5004         20.2504
  24859545.3354   -4554088.93545  -3417341.01045                  24859563.0814
        11.0004         11.2504
  21913248.7334   -6449790.45647  -4944316.41547                  21913258.1364
        26.0004         27.7504
  23013381.3974   13321093.63047  10346174.55746                  23013391.1164
        23.0004         22.2504
  21731820.2184   -6449670.77748  -4950737.42147                  21731828.7184
        29.7504         30.2504
 00  5  1 20  1 30.0030000  0  6G 5G 6G17G10G24G30
  21920067.8664    6155723.07847   4814917.87647                  21920077.5854
        24.7504         26.5004
  23292305.5074   -8147044.67046  -6238824.60846                  23292315.4134
        19.7504         20.5004
  24854445.8904   -4580886.31145  -3438221.92245                  24854463.3194
        11.2504         11.7504
  21914552.3824   -6442939.29347  -4938977.82447                  21914561.5034
        25.7504         27.7504
  23022630.6474   13369699.12347  10384048.95346                  23022640.2264
        23.0004         22.0004
  21732771.2104   -6444674.24748  -4946844.02947                  21732779.7104
        29.7504         30.2504
